﻿<?xml version="1.0" encoding="utf-8"?><gpx creator="Garmin Desktop App" version="1.1" xsi:schemaLocation="http://www.topografix.com/GPX/1/1 http://www.topografix.com/GPX/1/1/gpx.xsd http://www.garmin.com/xmlschemas/WaypointExtension/v1 http://www8.garmin.com/xmlschemas/WaypointExtensionv1.xsd http://www.garmin.com/xmlschemas/TrackPointExtension/v1 http://www.garmin.com/xmlschemas/TrackPointExtensionv1.xsd http://www.garmin.com/xmlschemas/GpxExtensions/v3 http://www8.garmin.com/xmlschemas/GpxExtensionsv3.xsd http://www.garmin.com/xmlschemas/ActivityExtension/v1 http://www8.garmin.com/xmlschemas/ActivityExtensionv1.xsd http://www.garmin.com/xmlschemas/AdventuresExtensions/v1 http://www8.garmin.com/xmlschemas/AdventuresExtensionv1.xsd http://www.garmin.com/xmlschemas/PressureExtension/v1 http://www.garmin.com/xmlschemas/PressureExtensionv1.xsd http://www.garmin.com/xmlschemas/TripExtensions/v1 http://www.garmin.com/xmlschemas/TripExtensionsv1.xsd http://www.garmin.com/xmlschemas/TripMetaDataExtensions/v1 http://www.garmin.com/xmlschemas/TripMetaDataExtensionsv1.xsd http://www.garmin.com/xmlschemas/ViaPointTransportationModeExtensions/v1 http://www.garmin.com/xmlschemas/ViaPointTransportationModeExtensionsv1.xsd http://www.garmin.com/xmlschemas/CreationTimeExtension/v1 http://www.garmin.com/xmlschemas/CreationTimeExtensionsv1.xsd http://www.garmin.com/xmlschemas/AccelerationExtension/v1 http://www.garmin.com/xmlschemas/AccelerationExtensionv1.xsd http://www.garmin.com/xmlschemas/PowerExtension/v1 http://www.garmin.com/xmlschemas/PowerExtensionv1.xsd http://www.garmin.com/xmlschemas/VideoExtension/v1 http://www.garmin.com/xmlschemas/VideoExtensionv1.xsd" xmlns="http://www.topografix.com/GPX/1/1" xmlns:xsi="http://www.w3.org/2001/XMLSchema-instance" xmlns:wptx1="http://www.garmin.com/xmlschemas/WaypointExtension/v1" xmlns:gpxtrx="http://www.garmin.com/xmlschemas/GpxExtensions/v3" xmlns:gpxtpx="http://www.garmin.com/xmlschemas/TrackPointExtension/v1" xmlns:gpxx="http://www.garmin.com/xmlschemas/GpxExtensions/v3" xmlns:trp="http://www.garmin.com/xmlschemas/TripExtensions/v1" xmlns:adv="http://www.garmin.com/xmlschemas/AdventuresExtensions/v1" xmlns:prs="http://www.garmin.com/xmlschemas/PressureExtension/v1" xmlns:tmd="http://www.garmin.com/xmlschemas/TripMetaDataExtensions/v1" xmlns:vptm="http://www.garmin.com/xmlschemas/ViaPointTransportationModeExtensions/v1" xmlns:ctx="http://www.garmin.com/xmlschemas/CreationTimeExtension/v1" xmlns:gpxacc="http://www.garmin.com/xmlschemas/AccelerationExtension/v1" xmlns:gpxpx="http://www.garmin.com/xmlschemas/PowerExtension/v1" xmlns:vidx1="http://www.garmin.com/xmlschemas/VideoExtension/v1">

  <metadata>
    <link href="http://www.garmin.com">
      <text>Garmin International</text>
    </link>
    <time>2017-04-10T15:28:28Z</time>
    <bounds maxlat="44.050484765321016" maxlon="9.853605441749096" minlat="44.036041656509042" minlon="9.833772517740727" />
  </metadata>

  <trk>
    <name>isola palmaria9apr2017</name>
    <extensions>
      <gpxx:TrackExtension>
        <gpxx:DisplayColor>Yellow</gpxx:DisplayColor>
      </gpxx:TrackExtension>
    </extensions>
    <trkseg>
      <trkpt lat="44.048657091334462" lon="9.840653222054243">
        <ele>3.98</ele>
        <time>2017-04-09T09:09:11Z</time>
      </trkpt>
      <trkpt lat="44.048610404133797" lon="9.840630339458585">
        <ele>3.98</ele>
        <time>2017-04-09T09:09:19Z</time>
      </trkpt>
      <trkpt lat="44.04861107468605" lon="9.840610306710005">
        <ele>4.46</ele>
        <time>2017-04-09T09:09:20Z</time>
      </trkpt>
      <trkpt lat="44.048602692782879" lon="9.840573342517018">
        <ele>3.98</ele>
        <time>2017-04-09T09:09:24Z</time>
      </trkpt>
      <trkpt lat="44.048601016402245" lon="9.840554818511009">
        <ele>3.98</ele>
        <time>2017-04-09T09:09:25Z</time>
      </trkpt>
      <trkpt lat="44.048602106049657" lon="9.840535540133715">
        <ele>3.98</ele>
        <time>2017-04-09T09:09:26Z</time>
      </trkpt>
      <trkpt lat="44.04860470443964" lon="9.840514753013849">
        <ele>3.98</ele>
        <time>2017-04-09T09:09:27Z</time>
      </trkpt>
      <trkpt lat="44.048605961725116" lon="9.840496061369777">
        <ele>3.98</ele>
        <time>2017-04-09T09:09:28Z</time>
      </trkpt>
      <trkpt lat="44.048606716096401" lon="9.840389527380467">
        <ele>3.98</ele>
        <time>2017-04-09T09:09:37Z</time>
      </trkpt>
      <trkpt lat="44.048615768551826" lon="9.840300930663943">
        <ele>4.46</ele>
        <time>2017-04-09T09:09:46Z</time>
      </trkpt>
      <trkpt lat="44.04861057177186" lon="9.840274946764112">
        <ele>3.98</ele>
        <time>2017-04-09T09:09:48Z</time>
      </trkpt>
      <trkpt lat="44.048604788258672" lon="9.840189786627889">
        <ele>4.46</ele>
        <time>2017-04-09T09:09:57Z</time>
      </trkpt>
      <trkpt lat="44.048605961725116" lon="9.840144524350762">
        <ele>4.46</ele>
        <time>2017-04-09T09:10:00Z</time>
      </trkpt>
      <trkpt lat="44.048586431890726" lon="9.840076295658946">
        <ele>4.46</ele>
        <time>2017-04-09T09:10:09Z</time>
      </trkpt>
      <trkpt lat="44.048584923148155" lon="9.84003983438015">
        <ele>4.46</ele>
        <time>2017-04-09T09:10:16Z</time>
      </trkpt>
      <trkpt lat="44.04858810827136" lon="9.840048970654607">
        <ele>4.46</ele>
        <time>2017-04-09T09:10:28Z</time>
      </trkpt>
      <trkpt lat="44.048581486567855" lon="9.840030446648598">
        <ele>4.46</ele>
        <time>2017-04-09T09:10:44Z</time>
      </trkpt>
      <trkpt lat="44.048571595922112" lon="9.840042097494006">
        <ele>4.46</ele>
        <time>2017-04-09T09:10:55Z</time>
      </trkpt>
      <trkpt lat="44.04857243411243" lon="9.840043438598514">
        <ele>4.46</ele>
        <time>2017-04-09T09:11:15Z</time>
      </trkpt>
      <trkpt lat="44.048569332808256" lon="9.840048216283321">
        <ele>4.46</ele>
        <time>2017-04-09T09:11:30Z</time>
      </trkpt>
      <trkpt lat="44.048574864864349" lon="9.840037990361452">
        <ele>4.46</ele>
        <time>2017-04-09T09:11:47Z</time>
      </trkpt>
      <trkpt lat="44.048576289787889" lon="9.840043187141419">
        <ele>4.46</ele>
        <time>2017-04-09T09:12:05Z</time>
      </trkpt>
      <trkpt lat="44.048582324758172" lon="9.840041762217879">
        <ele>4.46</ele>
        <time>2017-04-09T09:12:26Z</time>
      </trkpt>
      <trkpt lat="44.048582157120109" lon="9.84004033729434">
        <ele>4.46</ele>
        <time>2017-04-09T09:12:45Z</time>
      </trkpt>
      <trkpt lat="44.048581905663013" lon="9.840040924027562">
        <ele>4.46</ele>
        <time>2017-04-09T09:13:09Z</time>
      </trkpt>
      <trkpt lat="44.048584504052997" lon="9.840043857693672">
        <ele>4.46</ele>
        <time>2017-04-09T09:13:22Z</time>
      </trkpt>
      <trkpt lat="44.048588695004582" lon="9.840044276788831">
        <ele>4.46</ele>
        <time>2017-04-09T09:13:43Z</time>
      </trkpt>
      <trkpt lat="44.048568243160844" lon="9.840024663135409">
        <ele>5.91</ele>
        <time>2017-04-09T09:13:55Z</time>
      </trkpt>
      <trkpt lat="44.048556089401245" lon="9.839994236826897">
        <ele>4.46</ele>
        <time>2017-04-09T09:14:10Z</time>
      </trkpt>
      <trkpt lat="44.048539744690061" lon="9.839892815798521">
        <ele>4.94</ele>
        <time>2017-04-09T09:14:19Z</time>
      </trkpt>
      <trkpt lat="44.048536224290729" lon="9.839850068092346">
        <ele>5.42</ele>
        <time>2017-04-09T09:14:29Z</time>
      </trkpt>
      <trkpt lat="44.048505127429962" lon="9.839771864935756">
        <ele>5.91</ele>
        <time>2017-04-09T09:14:38Z</time>
      </trkpt>
      <trkpt lat="44.048468498513103" lon="9.839691147208214">
        <ele>6.39</ele>
        <time>2017-04-09T09:14:45Z</time>
      </trkpt>
      <trkpt lat="44.048461625352502" lon="9.839605065062642">
        <ele>6.39</ele>
        <time>2017-04-09T09:14:51Z</time>
      </trkpt>
      <trkpt lat="44.048493644222617" lon="9.839362241327763">
        <ele>6.87</ele>
        <time>2017-04-09T09:15:05Z</time>
      </trkpt>
      <trkpt lat="44.048497080802917" lon="9.839168367907405">
        <ele>6.87</ele>
        <time>2017-04-09T09:15:17Z</time>
      </trkpt>
      <trkpt lat="44.048471180722117" lon="9.83898145146668">
        <ele>6.87</ele>
        <time>2017-04-09T09:15:29Z</time>
      </trkpt>
      <trkpt lat="44.048451818525791" lon="9.838793529197574">
        <ele>7.35</ele>
        <time>2017-04-09T09:15:42Z</time>
      </trkpt>
      <trkpt lat="44.048470007255673" lon="9.838594878092408">
        <ele>7.83</ele>
        <time>2017-04-09T09:15:55Z</time>
      </trkpt>
      <trkpt lat="44.04850353486836" lon="9.838426904752851">
        <ele>7.35</ele>
        <time>2017-04-09T09:16:07Z</time>
      </trkpt>
      <trkpt lat="44.048507139086723" lon="9.838361609727144">
        <ele>6.39</ele>
        <time>2017-04-09T09:16:12Z</time>
      </trkpt>
      <trkpt lat="44.048445699736476" lon="9.838231354951859">
        <ele>6.39</ele>
        <time>2017-04-09T09:16:22Z</time>
      </trkpt>
      <trkpt lat="44.048439832404256" lon="9.838212747126818">
        <ele>6.39</ele>
        <time>2017-04-09T09:16:23Z</time>
      </trkpt>
      <trkpt lat="44.048433713614941" lon="9.838195396587253">
        <ele>5.91</ele>
        <time>2017-04-09T09:16:24Z</time>
      </trkpt>
      <trkpt lat="44.048424661159515" lon="9.838173100724816">
        <ele>6.39</ele>
        <time>2017-04-09T09:16:25Z</time>
      </trkpt>
      <trkpt lat="44.048394737765193" lon="9.838119624182582">
        <ele>6.39</ele>
        <time>2017-04-09T09:16:30Z</time>
      </trkpt>
      <trkpt lat="44.048387780785561" lon="9.838107135146856">
        <ele>6.87</ele>
        <time>2017-04-09T09:16:31Z</time>
      </trkpt>
      <trkpt lat="44.048380237072706" lon="9.838095149025321">
        <ele>6.39</ele>
        <time>2017-04-09T09:16:32Z</time>
      </trkpt>
      <trkpt lat="44.048373280093074" lon="9.838081570342183">
        <ele>6.87</ele>
        <time>2017-04-09T09:16:33Z</time>
      </trkpt>
      <trkpt lat="44.048367496579885" lon="9.838067991659045">
        <ele>6.87</ele>
        <time>2017-04-09T09:16:34Z</time>
      </trkpt>
      <trkpt lat="44.04834620654583" lon="9.837944274768233">
        <ele>6.87</ele>
        <time>2017-04-09T09:16:43Z</time>
      </trkpt>
      <trkpt lat="44.04830421321094" lon="9.837723998352885">
        <ele>7.83</ele>
        <time>2017-04-09T09:16:55Z</time>
      </trkpt>
      <trkpt lat="44.048282839357853" lon="9.837539931759238">
        <ele>7.83</ele>
        <time>2017-04-09T09:17:05Z</time>
      </trkpt>
      <trkpt lat="44.048278229311109" lon="9.837524425238371">
        <ele>7.83</ele>
        <time>2017-04-09T09:17:06Z</time>
      </trkpt>
      <trkpt lat="44.048272697255015" lon="9.837510176002979">
        <ele>7.35</ele>
        <time>2017-04-09T09:17:07Z</time>
      </trkpt>
      <trkpt lat="44.048244869336486" lon="9.837338011711836">
        <ele>5.91</ele>
        <time>2017-04-09T09:17:18Z</time>
      </trkpt>
      <trkpt lat="44.048208827152848" lon="9.837074149399996">
        <ele>5.91</ele>
        <time>2017-04-09T09:17:33Z</time>
      </trkpt>
      <trkpt lat="44.048151494935155" lon="9.836952863261104">
        <ele>5.91</ele>
        <time>2017-04-09T09:17:42Z</time>
      </trkpt>
      <trkpt lat="44.048144621774554" lon="9.836937440559268">
        <ele>5.42</ele>
        <time>2017-04-09T09:17:43Z</time>
      </trkpt>
      <trkpt lat="44.048136658966541" lon="9.836925286799669">
        <ele>5.42</ele>
        <time>2017-04-09T09:17:44Z</time>
      </trkpt>
      <trkpt lat="44.048056192696095" lon="9.836697718128562">
        <ele>6.39</ele>
        <time>2017-04-09T09:17:58Z</time>
      </trkpt>
      <trkpt lat="44.047999950125813" lon="9.836555980145931">
        <ele>5.91</ele>
        <time>2017-04-09T09:18:07Z</time>
      </trkpt>
      <trkpt lat="44.047994837164879" lon="9.836545921862125">
        <ele>6.39</ele>
        <time>2017-04-09T09:18:09Z</time>
      </trkpt>
      <trkpt lat="44.04798611998558" lon="9.836533684283495">
        <ele>6.39</ele>
        <time>2017-04-09T09:18:10Z</time>
      </trkpt>
      <trkpt lat="44.047982348129153" lon="9.836516920477152">
        <ele>5.91</ele>
        <time>2017-04-09T09:18:11Z</time>
      </trkpt>
      <trkpt lat="44.047898026183248" lon="9.836334194988012">
        <ele>6.39</ele>
        <time>2017-04-09T09:18:24Z</time>
      </trkpt>
      <trkpt lat="44.047772716730833" lon="9.836150882765651">
        <ele>7.35</ele>
        <time>2017-04-09T09:18:37Z</time>
      </trkpt>
      <trkpt lat="44.047620920464396" lon="9.836028926074505">
        <ele>7.35</ele>
        <time>2017-04-09T09:18:51Z</time>
      </trkpt>
      <trkpt lat="44.047479769214988" lon="9.835951728746295">
        <ele>7.83</ele>
        <time>2017-04-09T09:19:03Z</time>
      </trkpt>
      <trkpt lat="44.047413719817996" lon="9.83591141179204">
        <ele>8.310000000000001</ele>
        <time>2017-04-09T09:19:12Z</time>
      </trkpt>
      <trkpt lat="44.047405337914824" lon="9.835896324366331">
        <ele>8.789999999999999</ele>
        <time>2017-04-09T09:19:13Z</time>
      </trkpt>
      <trkpt lat="44.04739829711616" lon="9.835881320759654">
        <ele>8.789999999999999</ele>
        <time>2017-04-09T09:19:14Z</time>
      </trkpt>
      <trkpt lat="44.047389747574925" lon="9.83586648479104">
        <ele>8.789999999999999</ele>
        <time>2017-04-09T09:19:15Z</time>
      </trkpt>
      <trkpt lat="44.047381365671754" lon="9.835849888622761">
        <ele>8.789999999999999</ele>
        <time>2017-04-09T09:19:16Z</time>
      </trkpt>
      <trkpt lat="44.047372983768582" lon="9.835830526426435">
        <ele>8.789999999999999</ele>
        <time>2017-04-09T09:19:17Z</time>
      </trkpt>
      <trkpt lat="44.047364434227347" lon="9.835814516991377">
        <ele>8.789999999999999</ele>
        <time>2017-04-09T09:19:18Z</time>
      </trkpt>
      <trkpt lat="44.047355214133859" lon="9.835798507556319">
        <ele>9.27</ele>
        <time>2017-04-09T09:19:19Z</time>
      </trkpt>
      <trkpt lat="44.047348257154226" lon="9.835780067369342">
        <ele>9.27</ele>
        <time>2017-04-09T09:19:20Z</time>
      </trkpt>
      <trkpt lat="44.047343395650387" lon="9.835763303562999">
        <ele>9.27</ele>
        <time>2017-04-09T09:19:21Z</time>
      </trkpt>
      <trkpt lat="44.047305593267083" lon="9.83566707931459">
        <ele>9.75</ele>
        <time>2017-04-09T09:19:28Z</time>
      </trkpt>
      <trkpt lat="44.04730349779129" lon="9.835649561136961">
        <ele>10.23</ele>
        <time>2017-04-09T09:19:29Z</time>
      </trkpt>
      <trkpt lat="44.047299977391958" lon="9.83563045039773">
        <ele>9.75</ele>
        <time>2017-04-09T09:19:30Z</time>
      </trkpt>
      <trkpt lat="44.047223450616002" lon="9.83542375266552">
        <ele>10.23</ele>
        <time>2017-04-09T09:19:44Z</time>
      </trkpt>
      <trkpt lat="44.047203836962581" lon="9.83537195250392">
        <ele>10.23</ele>
        <time>2017-04-09T09:19:48Z</time>
      </trkpt>
      <trkpt lat="44.047216325998306" lon="9.835326857864857">
        <ele>11.67</ele>
        <time>2017-04-09T09:19:57Z</time>
      </trkpt>
      <trkpt lat="44.047194365411997" lon="9.835307495668531">
        <ele>10.710000000000001</ele>
        <time>2017-04-09T09:20:07Z</time>
      </trkpt>
      <trkpt lat="44.047186654061079" lon="9.835290145128965">
        <ele>10.710000000000001</ele>
        <time>2017-04-09T09:20:08Z</time>
      </trkpt>
      <trkpt lat="44.047163184732199" lon="9.835225772112608">
        <ele>10.710000000000001</ele>
        <time>2017-04-09T09:20:12Z</time>
      </trkpt>
      <trkpt lat="44.047154383733869" lon="9.8352141212672">
        <ele>10.710000000000001</ele>
        <time>2017-04-09T09:20:13Z</time>
      </trkpt>
      <trkpt lat="44.0471510309726" lon="9.835197357460856">
        <ele>10.710000000000001</ele>
        <time>2017-04-09T09:20:14Z</time>
      </trkpt>
      <trkpt lat="44.04715153388679" lon="9.835178162902594">
        <ele>10.710000000000001</ele>
        <time>2017-04-09T09:20:15Z</time>
      </trkpt>
      <trkpt lat="44.047152707353234" lon="9.835157124325633">
        <ele>10.710000000000001</ele>
        <time>2017-04-09T09:20:16Z</time>
      </trkpt>
      <trkpt lat="44.047153629362583" lon="9.835135834291577">
        <ele>11.19</ele>
        <time>2017-04-09T09:20:17Z</time>
      </trkpt>
      <trkpt lat="44.047183217480779" lon="9.83489309437573">
        <ele>10.23</ele>
        <time>2017-04-09T09:20:31Z</time>
      </trkpt>
      <trkpt lat="44.047216158360243" lon="9.834732078015804">
        <ele>9.75</ele>
        <time>2017-04-09T09:20:43Z</time>
      </trkpt>
      <trkpt lat="44.047240046784282" lon="9.83465077355504">
        <ele>8.789999999999999</ele>
        <time>2017-04-09T09:20:54Z</time>
      </trkpt>
      <trkpt lat="44.047237280756235" lon="9.834655886515975">
        <ele>8.789999999999999</ele>
        <time>2017-04-09T09:21:05Z</time>
      </trkpt>
      <trkpt lat="44.047255888581276" lon="9.834611462429166">
        <ele>8.789999999999999</ele>
        <time>2017-04-09T09:21:16Z</time>
      </trkpt>
      <trkpt lat="44.047274496406317" lon="9.834582293406129">
        <ele>8.789999999999999</ele>
        <time>2017-04-09T09:21:25Z</time>
      </trkpt>
      <trkpt lat="44.047260330989957" lon="9.834521524608135">
        <ele>9.75</ele>
        <time>2017-04-09T09:21:36Z</time>
      </trkpt>
      <trkpt lat="44.047242728993297" lon="9.834435526281595">
        <ele>12.15</ele>
        <time>2017-04-09T09:21:44Z</time>
      </trkpt>
      <trkpt lat="44.047184390947223" lon="9.834382804110646">
        <ele>15.52</ele>
        <time>2017-04-09T09:21:55Z</time>
      </trkpt>
      <trkpt lat="44.047148684039712" lon="9.834295464679599">
        <ele>17.440000000000001</ele>
        <time>2017-04-09T09:22:05Z</time>
      </trkpt>
      <trkpt lat="44.047124711796641" lon="9.834239641204476">
        <ele>18.399999999999999</ele>
        <time>2017-04-09T09:22:15Z</time>
      </trkpt>
      <trkpt lat="44.047091687098145" lon="9.834169484674931">
        <ele>19.84</ele>
        <time>2017-04-09T09:22:28Z</time>
      </trkpt>
      <trkpt lat="44.047066625207663" lon="9.83410301618278">
        <ele>21.289999999999999</ele>
        <time>2017-04-09T09:22:39Z</time>
      </trkpt>
      <trkpt lat="44.047051118686795" lon="9.8340761102736">
        <ele>22.25</ele>
        <time>2017-04-09T09:22:49Z</time>
      </trkpt>
      <trkpt lat="44.04700149782002" lon="9.834039732813835">
        <ele>25.129999999999999</ele>
        <time>2017-04-09T09:22:59Z</time>
      </trkpt>
      <trkpt lat="44.046984314918518" lon="9.833982149139047">
        <ele>26.09</ele>
        <time>2017-04-09T09:23:10Z</time>
      </trkpt>
      <trkpt lat="44.04697610065341" lon="9.833940826356411">
        <ele>27.050000000000001</ele>
        <time>2017-04-09T09:23:19Z</time>
      </trkpt>
      <trkpt lat="44.046958079561591" lon="9.833892295137048">
        <ele>27.530000000000001</ele>
        <time>2017-04-09T09:23:28Z</time>
      </trkpt>
      <trkpt lat="44.046942573040724" lon="9.833896066993475">
        <ele>27.530000000000001</ele>
        <time>2017-04-09T09:23:39Z</time>
      </trkpt>
      <trkpt lat="44.046938046813011" lon="9.83396764844656">
        <ele>28.98</ele>
        <time>2017-04-09T09:23:49Z</time>
      </trkpt>
      <trkpt lat="44.046901250258088" lon="9.833971755579114">
        <ele>29.460000000000001</ele>
        <time>2017-04-09T09:23:58Z</time>
      </trkpt>
      <trkpt lat="44.04685297049582" lon="9.833911238238215">
        <ele>31.859999999999999</ele>
        <time>2017-04-09T09:24:07Z</time>
      </trkpt>
      <trkpt lat="44.046828579157591" lon="9.833846362307668">
        <ele>32.82</ele>
        <time>2017-04-09T09:24:17Z</time>
      </trkpt>
      <trkpt lat="44.046807624399662" lon="9.833846697583795">
        <ele>33.780000000000001</ele>
        <time>2017-04-09T09:24:26Z</time>
      </trkpt>
      <trkpt lat="44.046791279688478" lon="9.833890702575445">
        <ele>35.229999999999997</ele>
        <time>2017-04-09T09:24:37Z</time>
      </trkpt>
      <trkpt lat="44.04677920974791" lon="9.833928504958749">
        <ele>36.189999999999998</ele>
        <time>2017-04-09T09:24:48Z</time>
      </trkpt>
      <trkpt lat="44.046729421243072" lon="9.833904784172773">
        <ele>37.630000000000003</ele>
        <time>2017-04-09T09:25:00Z</time>
      </trkpt>
      <trkpt lat="44.046718524768949" lon="9.833897408097982">
        <ele>38.109999999999999</ele>
        <time>2017-04-09T09:25:02Z</time>
      </trkpt>
      <trkpt lat="44.046714417636395" lon="9.833882488310337">
        <ele>38.109999999999999</ele>
        <time>2017-04-09T09:25:03Z</time>
      </trkpt>
      <trkpt lat="44.046709220856428" lon="9.833820881322026">
        <ele>38.590000000000003</ele>
        <time>2017-04-09T09:25:07Z</time>
      </trkpt>
      <trkpt lat="44.046713830903172" lon="9.833772517740727">
        <ele>39.07</ele>
        <time>2017-04-09T09:25:15Z</time>
      </trkpt>
      <trkpt lat="44.046707628294826" lon="9.833803027868271">
        <ele>38.590000000000003</ele>
        <time>2017-04-09T09:25:33Z</time>
      </trkpt>
      <trkpt lat="44.046722464263439" lon="9.833844099193811">
        <ele>38.590000000000003</ele>
        <time>2017-04-09T09:25:45Z</time>
      </trkpt>
      <trkpt lat="44.046706957742572" lon="9.833882236853242">
        <ele>38.109999999999999</ele>
        <time>2017-04-09T09:25:53Z</time>
      </trkpt>
      <trkpt lat="44.0467176027596" lon="9.833885757252574">
        <ele>38.590000000000003</ele>
        <time>2017-04-09T09:26:03Z</time>
      </trkpt>
      <trkpt lat="44.046724811196327" lon="9.833906879648566">
        <ele>38.590000000000003</ele>
        <time>2017-04-09T09:26:13Z</time>
      </trkpt>
      <trkpt lat="44.046727912500501" lon="9.83395935036242">
        <ele>38.590000000000003</ele>
        <time>2017-04-09T09:26:21Z</time>
      </trkpt>
      <trkpt lat="44.046712489798665" lon="9.834005367010832">
        <ele>38.590000000000003</ele>
        <time>2017-04-09T09:26:30Z</time>
      </trkpt>
      <trkpt lat="44.04671517200768" lon="9.833985837176442">
        <ele>39.07</ele>
        <time>2017-04-09T09:26:41Z</time>
      </trkpt>
      <trkpt lat="44.046711903065443" lon="9.83397058211267">
        <ele>38.590000000000003</ele>
        <time>2017-04-09T09:26:59Z</time>
      </trkpt>
      <trkpt lat="44.046724559739232" lon="9.834007294848561">
        <ele>38.590000000000003</ele>
        <time>2017-04-09T09:27:08Z</time>
      </trkpt>
      <trkpt lat="44.046732522547245" lon="9.834017436951399">
        <ele>38.590000000000003</ele>
        <time>2017-04-09T09:27:10Z</time>
      </trkpt>
      <trkpt lat="44.046746604144573" lon="9.83405171893537">
        <ele>38.590000000000003</ele>
        <time>2017-04-09T09:27:17Z</time>
      </trkpt>
      <trkpt lat="44.046748951077461" lon="9.834133526310325">
        <ele>38.109999999999999</ele>
        <time>2017-04-09T09:27:27Z</time>
      </trkpt>
      <trkpt lat="44.046753142029047" lon="9.834167808294296">
        <ele>37.630000000000003</ele>
        <time>2017-04-09T09:27:31Z</time>
      </trkpt>
      <trkpt lat="44.046748531982303" lon="9.834265541285276">
        <ele>36.670000000000002</ele>
        <time>2017-04-09T09:27:40Z</time>
      </trkpt>
      <trkpt lat="44.046731600537896" lon="9.834386156871915">
        <ele>36.189999999999998</ele>
        <time>2017-04-09T09:27:50Z</time>
      </trkpt>
      <trkpt lat="44.046676866710186" lon="9.83444407582283">
        <ele>39.07</ele>
        <time>2017-04-09T09:28:01Z</time>
      </trkpt>
      <trkpt lat="44.046606039628386" lon="9.834468467161059">
        <ele>40.509999999999998</ele>
        <time>2017-04-09T09:28:13Z</time>
      </trkpt>
      <trkpt lat="44.046564716845751" lon="9.834505096077919">
        <ele>41.950000000000003</ele>
        <time>2017-04-09T09:28:24Z</time>
      </trkpt>
      <trkpt lat="44.046521214768291" lon="9.834539461880922">
        <ele>43.880000000000003</ele>
        <time>2017-04-09T09:28:35Z</time>
      </trkpt>
      <trkpt lat="44.04649187810719" lon="9.834582963958383">
        <ele>45.32</ele>
        <time>2017-04-09T09:28:46Z</time>
      </trkpt>
      <trkpt lat="44.046458266675472" lon="9.834609534591436">
        <ele>46.759999999999998</ele>
        <time>2017-04-09T09:28:56Z</time>
      </trkpt>
      <trkpt lat="44.046425325796008" lon="9.834643229842186">
        <ele>48.200000000000003</ele>
        <time>2017-04-09T09:29:06Z</time>
      </trkpt>
      <trkpt lat="44.046401269733906" lon="9.834673320874572">
        <ele>49.159999999999997</ele>
        <time>2017-04-09T09:29:16Z</time>
      </trkpt>
      <trkpt lat="44.046360030770302" lon="9.834731156006455">
        <ele>52.049999999999997</ele>
        <time>2017-04-09T09:29:29Z</time>
      </trkpt>
      <trkpt lat="44.04632474295795" lon="9.834761414676905">
        <ele>53.009999999999998</ele>
        <time>2017-04-09T09:29:40Z</time>
      </trkpt>
      <trkpt lat="44.046311331912875" lon="9.834794690832496">
        <ele>54.450000000000003</ele>
        <time>2017-04-09T09:29:46Z</time>
      </trkpt>
      <trkpt lat="44.04627738520503" lon="9.834800139069557">
        <ele>56.859999999999999</ele>
        <time>2017-04-09T09:29:59Z</time>
      </trkpt>
      <trkpt lat="44.046274032443762" lon="9.834801647812128">
        <ele>56.859999999999999</ele>
        <time>2017-04-09T09:30:00Z</time>
      </trkpt>
      <trkpt lat="44.04626271687448" lon="9.834849508479238">
        <ele>58.299999999999997</ele>
        <time>2017-04-09T09:30:10Z</time>
      </trkpt>
      <trkpt lat="44.046213431283832" lon="9.834876246750355">
        <ele>60.219999999999999</ele>
        <time>2017-04-09T09:30:19Z</time>
      </trkpt>
      <trkpt lat="44.046194236725569" lon="9.834909271448851">
        <ele>61.659999999999997</ele>
        <time>2017-04-09T09:30:29Z</time>
      </trkpt>
      <trkpt lat="44.046143358573318" lon="9.834895357489586">
        <ele>63.579999999999998</ele>
        <time>2017-04-09T09:30:40Z</time>
      </trkpt>
      <trkpt lat="44.046141766011715" lon="9.834902649745345">
        <ele>63.579999999999998</ele>
        <time>2017-04-09T09:30:51Z</time>
      </trkpt>
      <trkpt lat="44.046151405200362" lon="9.834900051355362">
        <ele>63.579999999999998</ele>
        <time>2017-04-09T09:31:16Z</time>
      </trkpt>
      <trkpt lat="44.046152243390679" lon="9.834892256185412">
        <ele>64.069999999999993</ele>
        <time>2017-04-09T09:31:27Z</time>
      </trkpt>
      <trkpt lat="44.046133803203702" lon="9.834936344996095">
        <ele>65.030000000000001</ele>
        <time>2017-04-09T09:31:40Z</time>
      </trkpt>
      <trkpt lat="44.046114105731249" lon="9.834984373301268">
        <ele>66.950000000000003</ele>
        <time>2017-04-09T09:31:49Z</time>
      </trkpt>
      <trkpt lat="44.046079153195024" lon="9.835024103522301">
        <ele>67.909999999999997</ele>
        <time>2017-04-09T09:31:57Z</time>
      </trkpt>
      <trkpt lat="44.046062557026744" lon="9.835057966411114">
        <ele>69.349999999999994</ele>
        <time>2017-04-09T09:32:06Z</time>
      </trkpt>
      <trkpt lat="44.046012097969651" lon="9.835078585892916">
        <ele>71.760000000000005</ele>
        <time>2017-04-09T09:32:17Z</time>
      </trkpt>
      <trkpt lat="44.045943450182676" lon="9.835136421024799">
        <ele>74.640000000000001</ele>
        <time>2017-04-09T09:32:29Z</time>
      </trkpt>
      <trkpt lat="44.045927943661809" lon="9.835142204537988">
        <ele>75.120000000000005</ele>
        <time>2017-04-09T09:32:40Z</time>
      </trkpt>
      <trkpt lat="44.045897601172328" lon="9.835207415744662">
        <ele>76.079999999999998</ele>
        <time>2017-04-09T09:32:50Z</time>
      </trkpt>
      <trkpt lat="44.045881843194366" lon="9.835242368280888">
        <ele>77.040000000000006</ele>
        <time>2017-04-09T09:33:00Z</time>
      </trkpt>
      <trkpt lat="44.045835323631763" lon="9.835257707163692">
        <ele>77.519999999999996</ele>
        <time>2017-04-09T09:33:10Z</time>
      </trkpt>
      <trkpt lat="44.045828366652131" lon="9.835199620574713">
        <ele>77.519999999999996</ele>
        <time>2017-04-09T09:33:25Z</time>
      </trkpt>
      <trkpt lat="44.045852925628424" lon="9.835279332473874">
        <ele>77.519999999999996</ele>
        <time>2017-04-09T09:33:36Z</time>
      </trkpt>
      <trkpt lat="44.045847896486521" lon="9.835290396586061">
        <ele>77.519999999999996</ele>
        <time>2017-04-09T09:33:37Z</time>
      </trkpt>
      <trkpt lat="44.045829456299543" lon="9.835300538688898">
        <ele>78</ele>
        <time>2017-04-09T09:33:47Z</time>
      </trkpt>
      <trkpt lat="44.045841274783015" lon="9.835292911157012">
        <ele>78</ele>
        <time>2017-04-09T09:34:02Z</time>
      </trkpt>
      <trkpt lat="44.045841861516237" lon="9.835290648043156">
        <ele>78</ele>
        <time>2017-04-09T09:34:16Z</time>
      </trkpt>
      <trkpt lat="44.045840436592698" lon="9.835298024117947">
        <ele>78</ele>
        <time>2017-04-09T09:34:29Z</time>
      </trkpt>
      <trkpt lat="44.045887039974332" lon="9.835223257541657">
        <ele>77.040000000000006</ele>
        <time>2017-04-09T09:34:39Z</time>
      </trkpt>
      <trkpt lat="44.045860469341278" lon="9.835255611687899">
        <ele>77.040000000000006</ele>
        <time>2017-04-09T09:34:49Z</time>
      </trkpt>
      <trkpt lat="44.045843789353967" lon="9.83529718592763">
        <ele>77.519999999999996</ele>
        <time>2017-04-09T09:34:59Z</time>
      </trkpt>
      <trkpt lat="44.045810177922249" lon="9.83536709100008">
        <ele>78.969999999999999</ele>
        <time>2017-04-09T09:35:09Z</time>
      </trkpt>
      <trkpt lat="44.045773381367326" lon="9.835431128740311">
        <ele>80.409999999999997</ele>
        <time>2017-04-09T09:35:23Z</time>
      </trkpt>
      <trkpt lat="44.045769358053803" lon="9.835486030206084">
        <ele>82.810000000000002</ele>
        <time>2017-04-09T09:35:36Z</time>
      </trkpt>
      <trkpt lat="44.045789474621415" lon="9.835513774305582">
        <ele>83.290000000000006</ele>
        <time>2017-04-09T09:35:50Z</time>
      </trkpt>
      <trkpt lat="44.045733483508229" lon="9.835567669942975">
        <ele>85.209999999999994</ele>
        <time>2017-04-09T09:35:59Z</time>
      </trkpt>
      <trkpt lat="44.045729208737612" lon="9.835590217262507">
        <ele>85.689999999999998</ele>
        <time>2017-04-09T09:36:01Z</time>
      </trkpt>
      <trkpt lat="44.045695513486862" lon="9.835643442347646">
        <ele>86.659999999999997</ele>
        <time>2017-04-09T09:36:12Z</time>
      </trkpt>
      <trkpt lat="44.045704733580351" lon="9.835674623027444">
        <ele>88.579999999999998</ele>
        <time>2017-04-09T09:36:23Z</time>
      </trkpt>
      <trkpt lat="44.045673133805394" lon="9.835661882534623">
        <ele>89.060000000000002</ele>
        <time>2017-04-09T09:36:28Z</time>
      </trkpt>
      <trkpt lat="44.045665338635445" lon="9.835620475932956">
        <ele>89.540000000000006</ele>
        <time>2017-04-09T09:36:39Z</time>
      </trkpt>
      <trkpt lat="44.045670451596379" lon="9.835632545873523">
        <ele>89.540000000000006</ele>
        <time>2017-04-09T09:36:47Z</time>
      </trkpt>
      <trkpt lat="44.045684449374676" lon="9.835662301629782">
        <ele>89.060000000000002</ele>
        <time>2017-04-09T09:37:00Z</time>
      </trkpt>
      <trkpt lat="44.045692076906562" lon="9.835682669654489">
        <ele>89.540000000000006</ele>
        <time>2017-04-09T09:37:14Z</time>
      </trkpt>
      <trkpt lat="44.045675480738282" lon="9.83574477955699">
        <ele>91.459999999999994</ele>
        <time>2017-04-09T09:37:24Z</time>
      </trkpt>
      <trkpt lat="44.045636840164661" lon="9.835681412369013">
        <ele>93.870000000000005</ele>
        <time>2017-04-09T09:37:33Z</time>
      </trkpt>
      <trkpt lat="44.045649580657482" lon="9.83567294664681">
        <ele>93.870000000000005</ele>
        <time>2017-04-09T09:37:47Z</time>
      </trkpt>
      <trkpt lat="44.045605324208736" lon="9.835587870329619">
        <ele>94.829999999999998</ele>
        <time>2017-04-09T09:37:58Z</time>
      </trkpt>
      <trkpt lat="44.045609263703227" lon="9.835573537275195">
        <ele>95.310000000000002</ele>
        <time>2017-04-09T09:38:09Z</time>
      </trkpt>
      <trkpt lat="44.045581687241793" lon="9.835559371858835">
        <ele>95.310000000000002</ele>
        <time>2017-04-09T09:38:23Z</time>
      </trkpt>
      <trkpt lat="44.045552853494883" lon="9.835488209500909">
        <ele>97.709999999999994</ele>
        <time>2017-04-09T09:38:34Z</time>
      </trkpt>
      <trkpt lat="44.045486971735954" lon="9.835431883111596">
        <ele>100.59999999999999</ele>
        <time>2017-04-09T09:38:46Z</time>
      </trkpt>
      <trkpt lat="44.045417988672853" lon="9.835428195074201">
        <ele>103.95999999999999</ele>
        <time>2017-04-09T09:38:57Z</time>
      </trkpt>
      <trkpt lat="44.045345652848482" lon="9.835421238094568">
        <ele>106.84</ele>
        <time>2017-04-09T09:39:10Z</time>
      </trkpt>
      <trkpt lat="44.045289913192391" lon="9.835405647754669">
        <ele>108.77</ele>
        <time>2017-04-09T09:39:21Z</time>
      </trkpt>
      <trkpt lat="44.045257139950991" lon="9.835435654968023">
        <ele>110.69</ele>
        <time>2017-04-09T09:39:29Z</time>
      </trkpt>
      <trkpt lat="44.045228725299239" lon="9.83544965274632">
        <ele>113.09</ele>
        <time>2017-04-09T09:39:41Z</time>
      </trkpt>
      <trkpt lat="44.045197125524282" lon="9.835474714636803">
        <ele>114.05</ele>
        <time>2017-04-09T09:39:52Z</time>
      </trkpt>
      <trkpt lat="44.045136356726289" lon="9.835461555048823">
        <ele>115.98</ele>
        <time>2017-04-09T09:40:02Z</time>
      </trkpt>
      <trkpt lat="44.045134177431464" lon="9.835452502593398">
        <ele>115.98</ele>
        <time>2017-04-09T09:40:15Z</time>
      </trkpt>
      <trkpt lat="44.045150019228458" lon="9.835475301370025">
        <ele>115.98</ele>
        <time>2017-04-09T09:40:18Z</time>
      </trkpt>
      <trkpt lat="44.045148510485888" lon="9.835488628596067">
        <ele>115.98</ele>
        <time>2017-04-09T09:40:19Z</time>
      </trkpt>
      <trkpt lat="44.045131746679544" lon="9.835528610274196">
        <ele>115.98</ele>
        <time>2017-04-09T09:40:28Z</time>
      </trkpt>
      <trkpt lat="44.045169549062848" lon="9.83552735298872">
        <ele>115.5</ele>
        <time>2017-04-09T09:40:41Z</time>
      </trkpt>
      <trkpt lat="44.045152869075537" lon="9.835594659671187">
        <ele>115.01000000000001</ele>
        <time>2017-04-09T09:40:53Z</time>
      </trkpt>
      <trkpt lat="44.045194610953331" lon="9.835646627470851">
        <ele>114.53</ele>
        <time>2017-04-09T09:41:05Z</time>
      </trkpt>
      <trkpt lat="44.045222271233797" lon="9.835675964131951">
        <ele>114.05</ele>
        <time>2017-04-09T09:41:10Z</time>
      </trkpt>
      <trkpt lat="44.04520726762712" lon="9.835748551413417">
        <ele>114.53</ele>
        <time>2017-04-09T09:41:19Z</time>
      </trkpt>
      <trkpt lat="44.045136440545321" lon="9.835777133703232">
        <ele>116.94</ele>
        <time>2017-04-09T09:41:29Z</time>
      </trkpt>
      <trkpt lat="44.045056477189064" lon="9.835754167288542">
        <ele>120.3</ele>
        <time>2017-04-09T09:41:41Z</time>
      </trkpt>
      <trkpt lat="44.045019932091236" lon="9.835814014077187">
        <ele>122.70999999999999</ele>
        <time>2017-04-09T09:41:52Z</time>
      </trkpt>
      <trkpt lat="44.044973580166698" lon="9.835909903049469">
        <ele>123.67</ele>
        <time>2017-04-09T09:42:03Z</time>
      </trkpt>
      <trkpt lat="44.044947596266866" lon="9.835974359884858">
        <ele>124.63</ele>
        <time>2017-04-09T09:42:13Z</time>
      </trkpt>
      <trkpt lat="44.044872326776385" lon="9.836031859740615">
        <ele>126.06999999999999</ele>
        <time>2017-04-09T09:42:25Z</time>
      </trkpt>
      <trkpt lat="44.044818347319961" lon="9.836072344332933">
        <ele>128.47</ele>
        <time>2017-04-09T09:42:36Z</time>
      </trkpt>
      <trkpt lat="44.044767636805773" lon="9.836074355989695">
        <ele>130.88</ele>
        <time>2017-04-09T09:42:50Z</time>
      </trkpt>
      <trkpt lat="44.044723799452186" lon="9.836083240807056">
        <ele>132.80000000000001</ele>
        <time>2017-04-09T09:43:01Z</time>
      </trkpt>
      <trkpt lat="44.044660516083241" lon="9.836115846410394">
        <ele>134.72</ele>
        <time>2017-04-09T09:43:12Z</time>
      </trkpt>
      <trkpt lat="44.044605530798435" lon="9.836199581623077">
        <ele>135.68000000000001</ele>
        <time>2017-04-09T09:43:23Z</time>
      </trkpt>
      <trkpt lat="44.044570745900273" lon="9.836288765072823">
        <ele>136.63999999999999</ele>
        <time>2017-04-09T09:43:36Z</time>
      </trkpt>
      <trkpt lat="44.044537637382746" lon="9.836302846670151">
        <ele>138.09</ele>
        <time>2017-04-09T09:43:49Z</time>
      </trkpt>
      <trkpt lat="44.044499332085252" lon="9.836348360404372">
        <ele>139.05000000000001</ele>
        <time>2017-04-09T09:43:59Z</time>
      </trkpt>
      <trkpt lat="44.044480556622148" lon="9.836398903280497">
        <ele>139.53</ele>
        <time>2017-04-09T09:44:08Z</time>
      </trkpt>
      <trkpt lat="44.044386930763721" lon="9.836428659036756">
        <ele>141.93000000000001</ele>
        <time>2017-04-09T09:44:19Z</time>
      </trkpt>
      <trkpt lat="44.044325072318316" lon="9.836509628221393">
        <ele>143.37</ele>
        <time>2017-04-09T09:44:32Z</time>
      </trkpt>
      <trkpt lat="44.044264471158385" lon="9.836511304602027">
        <ele>145.30000000000001</ele>
        <time>2017-04-09T09:44:43Z</time>
      </trkpt>
      <trkpt lat="44.04425592161715" lon="9.836517507210374">
        <ele>145.30000000000001</ele>
        <time>2017-04-09T09:44:57Z</time>
      </trkpt>
      <trkpt lat="44.044278133660555" lon="9.836579952389002">
        <ele>146.25999999999999</ele>
        <time>2017-04-09T09:45:07Z</time>
      </trkpt>
      <trkpt lat="44.044248964637518" lon="9.836655808612704">
        <ele>147.69999999999999</ele>
        <time>2017-04-09T09:45:17Z</time>
      </trkpt>
      <trkpt lat="44.044192973524332" lon="9.836742645129561">
        <ele>149.62</ele>
        <time>2017-04-09T09:45:28Z</time>
      </trkpt>
      <trkpt lat="44.044134048745036" lon="9.836799977347255">
        <ele>151.06</ele>
        <time>2017-04-09T09:45:37Z</time>
      </trkpt>
      <trkpt lat="44.044093731790781" lon="9.836880192160606">
        <ele>152.50999999999999</ele>
        <time>2017-04-09T09:45:47Z</time>
      </trkpt>
      <trkpt lat="44.044042350724339" lon="9.836925957351923">
        <ele>154.91</ele>
        <time>2017-04-09T09:45:58Z</time>
      </trkpt>
      <trkpt lat="44.044012343510985" lon="9.836966609582305">
        <ele>158.27000000000001</ele>
        <time>2017-04-09T09:46:10Z</time>
      </trkpt>
      <trkpt lat="44.0439856890589" lon="9.837033580988646">
        <ele>159.72</ele>
        <time>2017-04-09T09:46:23Z</time>
      </trkpt>
      <trkpt lat="44.043945455923676" lon="9.837102815508843">
        <ele>162.12</ele>
        <time>2017-04-09T09:46:35Z</time>
      </trkpt>
      <trkpt lat="44.043983090668917" lon="9.837093343958259">
        <ele>162.59999999999999</ele>
        <time>2017-04-09T09:46:47Z</time>
      </trkpt>
      <trkpt lat="44.043986275792122" lon="9.837176240980625">
        <ele>163.56</ele>
        <time>2017-04-09T09:46:55Z</time>
      </trkpt>
      <trkpt lat="44.043931122869253" lon="9.837242374196649">
        <ele>166.44999999999999</ele>
        <time>2017-04-09T09:47:07Z</time>
      </trkpt>
      <trkpt lat="44.043904300779104" lon="9.837256371974945">
        <ele>167.41</ele>
        <time>2017-04-09T09:47:18Z</time>
      </trkpt>
      <trkpt lat="44.043904133141041" lon="9.83725561760366">
        <ele>167.41</ele>
        <time>2017-04-09T09:47:26Z</time>
      </trkpt>
      <trkpt lat="44.043885692954063" lon="9.837281182408333">
        <ele>167.41</ele>
        <time>2017-04-09T09:47:33Z</time>
      </trkpt>
      <trkpt lat="44.04388309456408" lon="9.837272381410003">
        <ele>166.93000000000001</ele>
        <time>2017-04-09T09:47:41Z</time>
      </trkpt>
      <trkpt lat="44.043901534751058" lon="9.837260227650404">
        <ele>167.41</ele>
        <time>2017-04-09T09:47:51Z</time>
      </trkpt>
      <trkpt lat="44.043902708217502" lon="9.837272465229034">
        <ele>167.41</ele>
        <time>2017-04-09T09:48:03Z</time>
      </trkpt>
      <trkpt lat="44.043899271637201" lon="9.837263412773609">
        <ele>167.88999999999999</ele>
        <time>2017-04-09T09:48:15Z</time>
      </trkpt>
      <trkpt lat="44.043910168111324" lon="9.837320074439049">
        <ele>167.88999999999999</ele>
        <time>2017-04-09T09:48:20Z</time>
      </trkpt>
      <trkpt lat="44.043912263587117" lon="9.837409676983953">
        <ele>168.37</ele>
        <time>2017-04-09T09:48:26Z</time>
      </trkpt>
      <trkpt lat="44.043918214738369" lon="9.837440606206656">
        <ele>168.37</ele>
        <time>2017-04-09T09:48:28Z</time>
      </trkpt>
      <trkpt lat="44.043921316042542" lon="9.837504224851728">
        <ele>168.84999999999999</ele>
        <time>2017-04-09T09:48:33Z</time>
      </trkpt>
      <trkpt lat="44.043902372941375" lon="9.837702289223671">
        <ele>169.33000000000001</ele>
        <time>2017-04-09T09:48:47Z</time>
      </trkpt>
      <trkpt lat="44.043856607750058" lon="9.837861629202962">
        <ele>170.77000000000001</ele>
        <time>2017-04-09T09:48:59Z</time>
      </trkpt>
      <trkpt lat="44.043807908892632" lon="9.838009234517813">
        <ele>171.72999999999999</ele>
        <time>2017-04-09T09:49:11Z</time>
      </trkpt>
      <trkpt lat="44.043792653828859" lon="9.838145943358541">
        <ele>172.21000000000001</ele>
        <time>2017-04-09T09:49:21Z</time>
      </trkpt>
      <trkpt lat="44.043753845617175" lon="9.838286759331822">
        <ele>173.16999999999999</ele>
        <time>2017-04-09T09:49:33Z</time>
      </trkpt>
      <trkpt lat="44.043724006041884" lon="9.838406620547175">
        <ele>174.13999999999999</ele>
        <time>2017-04-09T09:49:44Z</time>
      </trkpt>
      <trkpt lat="44.043706236407161" lon="9.838534696027637">
        <ele>174.62</ele>
        <time>2017-04-09T09:49:53Z</time>
      </trkpt>
      <trkpt lat="44.043689053505659" lon="9.838632931932807">
        <ele>175.09999999999999</ele>
        <time>2017-04-09T09:50:01Z</time>
      </trkpt>
      <trkpt lat="44.043680755421519" lon="9.838666124269366">
        <ele>175.09999999999999</ele>
        <time>2017-04-09T09:50:03Z</time>
      </trkpt>
      <trkpt lat="44.043661393225193" lon="9.838707447052002">
        <ele>175.09999999999999</ele>
        <time>2017-04-09T09:50:06Z</time>
      </trkpt>
      <trkpt lat="44.043648736551404" lon="9.838756565004587">
        <ele>175.58000000000001</ele>
        <time>2017-04-09T09:50:11Z</time>
      </trkpt>
      <trkpt lat="44.043637840077281" lon="9.838787829503417">
        <ele>175.58000000000001</ele>
        <time>2017-04-09T09:50:13Z</time>
      </trkpt>
      <trkpt lat="44.043571874499321" lon="9.838916826993227">
        <ele>176.06</ele>
        <time>2017-04-09T09:50:24Z</time>
      </trkpt>
      <trkpt lat="44.04354203492403" lon="9.838959323242307">
        <ele>176.06</ele>
        <time>2017-04-09T09:50:27Z</time>
      </trkpt>
      <trkpt lat="44.043452097103" lon="9.839140456169844">
        <ele>176.53999999999999</ele>
        <time>2017-04-09T09:50:40Z</time>
      </trkpt>
      <trkpt lat="44.043367523699999" lon="9.839293425902724">
        <ele>177.02000000000001</ele>
        <time>2017-04-09T09:50:52Z</time>
      </trkpt>
      <trkpt lat="44.043353861197829" lon="9.839319242164493">
        <ele>177.02000000000001</ele>
        <time>2017-04-09T09:51:02Z</time>
      </trkpt>
      <trkpt lat="44.043332319706678" lon="9.839355116710067">
        <ele>177.02000000000001</ele>
        <time>2017-04-09T09:51:05Z</time>
      </trkpt>
      <trkpt lat="44.04332309961319" lon="9.8393689468503">
        <ele>177.02000000000001</ele>
        <time>2017-04-09T09:51:06Z</time>
      </trkpt>
      <trkpt lat="44.043315472081304" lon="9.839382274076343">
        <ele>177.02000000000001</ele>
        <time>2017-04-09T09:51:07Z</time>
      </trkpt>
      <trkpt lat="44.043306922540069" lon="9.839393338188529">
        <ele>177.02000000000001</ele>
        <time>2017-04-09T09:51:08Z</time>
      </trkpt>
      <trkpt lat="44.043325027450919" lon="9.839373221620917">
        <ele>176.06</ele>
        <time>2017-04-09T09:51:15Z</time>
      </trkpt>
      <trkpt lat="44.043267862871289" lon="9.839392583817244">
        <ele>177.02000000000001</ele>
        <time>2017-04-09T09:51:27Z</time>
      </trkpt>
      <trkpt lat="44.043161915615201" lon="9.839542955160141">
        <ele>176.53999999999999</ele>
        <time>2017-04-09T09:51:39Z</time>
      </trkpt>
      <trkpt lat="44.0431222692132" lon="9.839660804718733">
        <ele>176.53999999999999</ele>
        <time>2017-04-09T09:51:49Z</time>
      </trkpt>
      <trkpt lat="44.043071223422885" lon="9.839764572679997">
        <ele>175.58000000000001</ele>
        <time>2017-04-09T09:51:58Z</time>
      </trkpt>
      <trkpt lat="44.043010622262955" lon="9.839854259043932">
        <ele>175.58000000000001</ele>
        <time>2017-04-09T09:52:09Z</time>
      </trkpt>
      <trkpt lat="44.042998133227229" lon="9.839865574613214">
        <ele>175.58000000000001</ele>
        <time>2017-04-09T09:52:10Z</time>
      </trkpt>
      <trkpt lat="44.042979525402188" lon="9.839870855212212">
        <ele>175.58000000000001</ele>
        <time>2017-04-09T09:52:11Z</time>
      </trkpt>
      <trkpt lat="44.042914398014545" lon="9.83988250605762">
        <ele>177.5</ele>
        <time>2017-04-09T09:52:18Z</time>
      </trkpt>
      <trkpt lat="44.04285597614944" lon="9.839954758062959">
        <ele>180.38</ele>
        <time>2017-04-09T09:52:29Z</time>
      </trkpt>
      <trkpt lat="44.042813647538424" lon="9.840021729469299">
        <ele>181.83000000000001</ele>
        <time>2017-04-09T09:52:38Z</time>
      </trkpt>
      <trkpt lat="44.042776934802532" lon="9.840026255697012">
        <ele>182.78999999999999</ele>
        <time>2017-04-09T09:52:49Z</time>
      </trkpt>
      <trkpt lat="44.042769055813551" lon="9.840073361992836">
        <ele>182.78999999999999</ele>
        <time>2017-04-09T09:53:01Z</time>
      </trkpt>
      <trkpt lat="44.042725553736091" lon="9.840144775807858">
        <ele>182.31</ele>
        <time>2017-04-09T09:53:12Z</time>
      </trkpt>
      <trkpt lat="44.042770313099027" lon="9.840182159096003">
        <ele>181.83000000000001</ele>
        <time>2017-04-09T09:53:17Z</time>
      </trkpt>
      <trkpt lat="44.042780036106706" lon="9.840179057791829">
        <ele>181.83000000000001</ele>
        <time>2017-04-09T09:53:25Z</time>
      </trkpt>
      <trkpt lat="44.04274214990437" lon="9.84014100395143">
        <ele>181.83000000000001</ele>
        <time>2017-04-09T09:53:36Z</time>
      </trkpt>
      <trkpt lat="44.042713902890682" lon="9.840127509087324">
        <ele>182.31</ele>
        <time>2017-04-09T09:53:51Z</time>
      </trkpt>
      <trkpt lat="44.042719015851617" lon="9.8401063028723">
        <ele>181.83000000000001</ele>
        <time>2017-04-09T09:54:02Z</time>
      </trkpt>
      <trkpt lat="44.042719937860966" lon="9.840093394741416">
        <ele>182.31</ele>
        <time>2017-04-09T09:54:18Z</time>
      </trkpt>
      <trkpt lat="44.042719015851617" lon="9.840089287608862">
        <ele>182.31</ele>
        <time>2017-04-09T09:54:35Z</time>
      </trkpt>
      <trkpt lat="44.042717171832919" lon="9.840102866292">
        <ele>182.31</ele>
        <time>2017-04-09T09:54:51Z</time>
      </trkpt>
      <trkpt lat="44.042716920375824" lon="9.840116780251265">
        <ele>182.31</ele>
        <time>2017-04-09T09:55:01Z</time>
      </trkpt>
      <trkpt lat="44.042693786323071" lon="9.840158186852932">
        <ele>182.78999999999999</ele>
        <time>2017-04-09T09:55:15Z</time>
      </trkpt>
      <trkpt lat="44.042642572894692" lon="9.84020009636879">
        <ele>182.78999999999999</ele>
        <time>2017-04-09T09:55:29Z</time>
      </trkpt>
      <trkpt lat="44.042585743591189" lon="9.840250723063946">
        <ele>183.27000000000001</ele>
        <time>2017-04-09T09:55:41Z</time>
      </trkpt>
      <trkpt lat="44.042526315897703" lon="9.840222056955099">
        <ele>183.27000000000001</ele>
        <time>2017-04-09T09:55:55Z</time>
      </trkpt>
      <trkpt lat="44.042551377788186" lon="9.840152570977807">
        <ele>183.27000000000001</ele>
        <time>2017-04-09T09:56:02Z</time>
      </trkpt>
      <trkpt lat="44.042578702792525" lon="9.840095574036241">
        <ele>183.27000000000001</ele>
        <time>2017-04-09T09:56:07Z</time>
      </trkpt>
      <trkpt lat="44.042642740532756" lon="9.839963475242257">
        <ele>183.27000000000001</ele>
        <time>2017-04-09T09:56:17Z</time>
      </trkpt>
      <trkpt lat="44.042660258710384" lon="9.839914944022894">
        <ele>183.27000000000001</ele>
        <time>2017-04-09T09:56:23Z</time>
      </trkpt>
      <trkpt lat="44.04268448241055" lon="9.839961631223559">
        <ele>183.27000000000001</ele>
        <time>2017-04-09T09:56:33Z</time>
      </trkpt>
      <trkpt lat="44.042688421905041" lon="9.839967079460621">
        <ele>183.27000000000001</ele>
        <time>2017-04-09T09:56:44Z</time>
      </trkpt>
      <trkpt lat="44.042689092457294" lon="9.839961128309369">
        <ele>183.27000000000001</ele>
        <time>2017-04-09T09:57:00Z</time>
      </trkpt>
      <trkpt lat="44.042673585936427" lon="9.840001864358783">
        <ele>183.27000000000001</ele>
        <time>2017-04-09T09:57:16Z</time>
      </trkpt>
      <trkpt lat="44.042670736089349" lon="9.840034637600184">
        <ele>183.27000000000001</ele>
        <time>2017-04-09T09:57:36Z</time>
      </trkpt>
      <trkpt lat="44.042668975889683" lon="9.840073110535741">
        <ele>183.27000000000001</ele>
        <time>2017-04-09T09:57:56Z</time>
      </trkpt>
      <trkpt lat="44.042690936475992" lon="9.839944615960121">
        <ele>183.27000000000001</ele>
        <time>2017-04-09T09:58:42Z</time>
      </trkpt>
      <trkpt lat="44.04260435141623" lon="9.840105380862951">
        <ele>183.27000000000001</ele>
        <time>2017-04-09T09:58:55Z</time>
      </trkpt>
      <trkpt lat="44.042707616463304" lon="9.840013347566128">
        <ele>185.19</ele>
        <time>2017-04-09T09:59:08Z</time>
      </trkpt>
      <trkpt lat="44.042736953124404" lon="9.840037068352103">
        <ele>185.66999999999999</ele>
        <time>2017-04-09T09:59:19Z</time>
      </trkpt>
      <trkpt lat="44.042721195146441" lon="9.839969510212541">
        <ele>186.15000000000001</ele>
        <time>2017-04-09T09:59:25Z</time>
      </trkpt>
      <trkpt lat="44.042707281187177" lon="9.839929947629571">
        <ele>186.15000000000001</ele>
        <time>2017-04-09T09:59:29Z</time>
      </trkpt>
      <trkpt lat="44.042697306722403" lon="9.839890636503696">
        <ele>187.11000000000001</ele>
        <time>2017-04-09T09:59:41Z</time>
      </trkpt>
      <trkpt lat="44.042687583714724" lon="9.839884852990508">
        <ele>186.15000000000001</ele>
        <time>2017-04-09T09:59:50Z</time>
      </trkpt>
      <trkpt lat="44.042646680027246" lon="9.839810421690345">
        <ele>187.59</ele>
        <time>2017-04-09T10:00:00Z</time>
      </trkpt>
      <trkpt lat="44.042602088302374" lon="9.83977597206831">
        <ele>187.59</ele>
        <time>2017-04-09T10:00:10Z</time>
      </trkpt>
      <trkpt lat="44.042609045282006" lon="9.839824670925736">
        <ele>188.08000000000001</ele>
        <time>2017-04-09T10:00:15Z</time>
      </trkpt>
      <trkpt lat="44.042710633948445" lon="9.839963056147099">
        <ele>186.63</ele>
        <time>2017-04-09T10:00:29Z</time>
      </trkpt>
      <trkpt lat="44.042654307559133" lon="9.840081073343754">
        <ele>184.71000000000001</ele>
        <time>2017-04-09T10:00:40Z</time>
      </trkpt>
      <trkpt lat="44.042536877095699" lon="9.840173190459609">
        <ele>183.27000000000001</ele>
        <time>2017-04-09T10:00:53Z</time>
      </trkpt>
      <trkpt lat="44.042529836297035" lon="9.840185344219208">
        <ele>182.78999999999999</ele>
        <time>2017-04-09T10:00:54Z</time>
      </trkpt>
      <trkpt lat="44.042552802711725" lon="9.840271510183811">
        <ele>182.78999999999999</ele>
        <time>2017-04-09T10:01:03Z</time>
      </trkpt>
      <trkpt lat="44.04255498200655" lon="9.840258937329054">
        <ele>182.78999999999999</ele>
        <time>2017-04-09T10:01:08Z</time>
      </trkpt>
      <trkpt lat="44.042595215141773" lon="9.840246196836233">
        <ele>182.78999999999999</ele>
        <time>2017-04-09T10:01:12Z</time>
      </trkpt>
      <trkpt lat="44.042647182941437" lon="9.840182242915034">
        <ele>182.31</ele>
        <time>2017-04-09T10:01:18Z</time>
      </trkpt>
      <trkpt lat="44.042755560949445" lon="9.8400545027107">
        <ele>182.31</ele>
        <time>2017-04-09T10:01:32Z</time>
      </trkpt>
      <trkpt lat="44.042772240936756" lon="9.840047797188163">
        <ele>182.31</ele>
        <time>2017-04-09T10:01:43Z</time>
      </trkpt>
      <trkpt lat="44.042781880125403" lon="9.840046288445592">
        <ele>182.31</ele>
        <time>2017-04-09T10:02:00Z</time>
      </trkpt>
      <trkpt lat="44.042770648375154" lon="9.840063638985157">
        <ele>182.31</ele>
        <time>2017-04-09T10:02:15Z</time>
      </trkpt>
      <trkpt lat="44.042769307270646" lon="9.840076547116041">
        <ele>182.31</ele>
        <time>2017-04-09T10:02:33Z</time>
      </trkpt>
      <trkpt lat="44.042782466858625" lon="9.840064644813538">
        <ele>182.31</ele>
        <time>2017-04-09T10:02:46Z</time>
      </trkpt>
      <trkpt lat="44.042777186259627" lon="9.840063136070967">
        <ele>182.31</ele>
        <time>2017-04-09T10:03:00Z</time>
      </trkpt>
      <trkpt lat="44.042770061641932" lon="9.840044360607863">
        <ele>182.31</ele>
        <time>2017-04-09T10:03:08Z</time>
      </trkpt>
      <trkpt lat="44.042762601748109" lon="9.840038996189833">
        <ele>182.78999999999999</ele>
        <time>2017-04-09T10:03:19Z</time>
      </trkpt>
      <trkpt lat="44.042763607576489" lon="9.840067913755775">
        <ele>182.31</ele>
        <time>2017-04-09T10:03:35Z</time>
      </trkpt>
      <trkpt lat="44.042769894003868" lon="9.840073697268963">
        <ele>182.78999999999999</ele>
        <time>2017-04-09T10:03:46Z</time>
      </trkpt>
      <trkpt lat="44.042760338634253" lon="9.840074200183153">
        <ele>182.78999999999999</ele>
        <time>2017-04-09T10:04:02Z</time>
      </trkpt>
      <trkpt lat="44.042740222066641" lon="9.840115187689662">
        <ele>183.75</ele>
        <time>2017-04-09T10:04:18Z</time>
      </trkpt>
      <trkpt lat="44.042771402746439" lon="9.840062884613872">
        <ele>182.78999999999999</ele>
        <time>2017-04-09T10:04:29Z</time>
      </trkpt>
      <trkpt lat="44.042788250371814" lon="9.84008526429534">
        <ele>182.78999999999999</ele>
        <time>2017-04-09T10:04:46Z</time>
      </trkpt>
      <trkpt lat="44.042782466858625" lon="9.840108901262283">
        <ele>182.31</ele>
        <time>2017-04-09T10:04:57Z</time>
      </trkpt>
      <trkpt lat="44.042777102440596" lon="9.840079061686993">
        <ele>181.83000000000001</ele>
        <time>2017-04-09T10:05:04Z</time>
      </trkpt>
      <trkpt lat="44.042768720537424" lon="9.840060621500015">
        <ele>182.31</ele>
        <time>2017-04-09T10:05:25Z</time>
      </trkpt>
      <trkpt lat="44.042779449373484" lon="9.840118875727058">
        <ele>182.78999999999999</ele>
        <time>2017-04-09T10:05:34Z</time>
      </trkpt>
      <trkpt lat="44.042764697223902" lon="9.840129520744085">
        <ele>182.78999999999999</ele>
        <time>2017-04-09T10:05:46Z</time>
      </trkpt>
      <trkpt lat="44.042757907882333" lon="9.840090712532401">
        <ele>182.78999999999999</ele>
        <time>2017-04-09T10:05:54Z</time>
      </trkpt>
      <trkpt lat="44.042731169611216" lon="9.840066405013204">
        <ele>182.31</ele>
        <time>2017-04-09T10:06:06Z</time>
      </trkpt>
      <trkpt lat="44.042816832661629" lon="9.840084761381149">
        <ele>183.27000000000001</ele>
        <time>2017-04-09T10:06:26Z</time>
      </trkpt>
      <trkpt lat="44.042818257585168" lon="9.84011116437614">
        <ele>183.27000000000001</ele>
        <time>2017-04-09T10:06:36Z</time>
      </trkpt>
      <trkpt lat="44.042801912873983" lon="9.840144021436572">
        <ele>182.78999999999999</ele>
        <time>2017-04-09T10:06:46Z</time>
      </trkpt>
      <trkpt lat="44.042768888175488" lon="9.840047797188163">
        <ele>182.78999999999999</ele>
        <time>2017-04-09T10:06:56Z</time>
      </trkpt>
      <trkpt lat="44.042787244543433" lon="9.840088030323386">
        <ele>182.78999999999999</ele>
        <time>2017-04-09T10:07:11Z</time>
      </trkpt>
      <trkpt lat="44.042781796306372" lon="9.84012289904058">
        <ele>182.78999999999999</ele>
        <time>2017-04-09T10:07:21Z</time>
      </trkpt>
      <trkpt lat="44.042774587869644" lon="9.840102866292">
        <ele>182.78999999999999</ele>
        <time>2017-04-09T10:07:45Z</time>
      </trkpt>
      <trkpt lat="44.042783556506038" lon="9.840045617893338">
        <ele>182.78999999999999</ele>
        <time>2017-04-09T10:07:54Z</time>
      </trkpt>
      <trkpt lat="44.042746005579829" lon="9.840105380862951">
        <ele>183.27000000000001</ele>
        <time>2017-04-09T10:08:04Z</time>
      </trkpt>
      <trkpt lat="44.042761093005538" lon="9.840196743607521">
        <ele>183.27000000000001</ele>
        <time>2017-04-09T10:08:14Z</time>
      </trkpt>
      <trkpt lat="44.042731253430247" lon="9.84029833227396">
        <ele>182.31</ele>
        <time>2017-04-09T10:08:26Z</time>
      </trkpt>
      <trkpt lat="44.042712645605206" lon="9.84037796035409">
        <ele>182.31</ele>
        <time>2017-04-09T10:08:36Z</time>
      </trkpt>
      <trkpt lat="44.04270401224494" lon="9.840358011424542">
        <ele>181.34999999999999</ele>
        <time>2017-04-09T10:08:47Z</time>
      </trkpt>
      <trkpt lat="44.04271038249135" lon="9.840345438569784">
        <ele>181.34999999999999</ele>
        <time>2017-04-09T10:09:06Z</time>
      </trkpt>
      <trkpt lat="44.042696719989181" lon="9.840391371399164">
        <ele>181.34999999999999</ele>
        <time>2017-04-09T10:09:23Z</time>
      </trkpt>
      <trkpt lat="44.04268104583025" lon="9.840364549309015">
        <ele>181.83000000000001</ele>
        <time>2017-04-09T10:09:40Z</time>
      </trkpt>
      <trkpt lat="44.042663360014558" lon="9.840351305902004">
        <ele>181.83000000000001</ele>
        <time>2017-04-09T10:10:00Z</time>
      </trkpt>
      <trkpt lat="44.042665120214224" lon="9.840330183506012">
        <ele>181.83000000000001</ele>
        <time>2017-04-09T10:10:18Z</time>
      </trkpt>
      <trkpt lat="44.042678279802203" lon="9.840291626751423">
        <ele>181.83000000000001</ele>
        <time>2017-04-09T10:10:44Z</time>
      </trkpt>
      <trkpt lat="44.042713651433587" lon="9.840286346152425">
        <ele>181.83000000000001</ele>
        <time>2017-04-09T10:11:06Z</time>
      </trkpt>
      <trkpt lat="44.042714405804873" lon="9.840340996161103">
        <ele>181.83000000000001</ele>
        <time>2017-04-09T10:11:26Z</time>
      </trkpt>
      <trkpt lat="44.042722200974822" lon="9.840336386114359">
        <ele>181.83000000000001</ele>
        <time>2017-04-09T10:11:49Z</time>
      </trkpt>
      <trkpt lat="44.042703928425908" lon="9.840426910668612">
        <ele>181.83000000000001</ele>
        <time>2017-04-09T10:12:10Z</time>
      </trkpt>
      <trkpt lat="44.04269034974277" lon="9.840446021407843">
        <ele>181.83000000000001</ele>
        <time>2017-04-09T10:12:36Z</time>
      </trkpt>
      <trkpt lat="44.042700072750449" lon="9.840422300621867">
        <ele>181.83000000000001</ele>
        <time>2017-04-09T10:12:51Z</time>
      </trkpt>
      <trkpt lat="44.042702000588179" lon="9.840359520167112">
        <ele>181.83000000000001</ele>
        <time>2017-04-09T10:13:10Z</time>
      </trkpt>
      <trkpt lat="44.042675346136093" lon="9.840383073315024">
        <ele>182.31</ele>
        <time>2017-04-09T10:13:34Z</time>
      </trkpt>
      <trkpt lat="44.042667215690017" lon="9.840353233739734">
        <ele>182.31</ele>
        <time>2017-04-09T10:14:01Z</time>
      </trkpt>
      <trkpt lat="44.042654642835259" lon="9.840382654219866">
        <ele>182.31</ele>
        <time>2017-04-09T10:14:24Z</time>
      </trkpt>
      <trkpt lat="44.042683560401201" lon="9.840367902070284">
        <ele>182.78999999999999</ele>
        <time>2017-04-09T10:14:39Z</time>
      </trkpt>
      <trkpt lat="44.042718010023236" lon="9.840280646458268">
        <ele>183.27000000000001</ele>
        <time>2017-04-09T10:14:52Z</time>
      </trkpt>
      <trkpt lat="44.0427475143224" lon="9.840231779962778">
        <ele>183.75</ele>
        <time>2017-04-09T10:15:03Z</time>
      </trkpt>
      <trkpt lat="44.042720859870315" lon="9.840293051674962">
        <ele>183.75</ele>
        <time>2017-04-09T10:15:12Z</time>
      </trkpt>
      <trkpt lat="44.042666964232922" lon="9.840382570400834">
        <ele>183.27000000000001</ele>
        <time>2017-04-09T10:15:24Z</time>
      </trkpt>
      <trkpt lat="44.042600579559803" lon="9.840458426624537">
        <ele>182.78999999999999</ele>
        <time>2017-04-09T10:15:37Z</time>
      </trkpt>
      <trkpt lat="44.042542409151793" lon="9.840541910380125">
        <ele>181.83000000000001</ele>
        <time>2017-04-09T10:15:50Z</time>
      </trkpt>
      <trkpt lat="44.042494799941778" lon="9.840619694441557">
        <ele>181.83000000000001</ele>
        <time>2017-04-09T10:16:02Z</time>
      </trkpt>
      <trkpt lat="44.042463032528758" lon="9.840657245367765">
        <ele>181.34999999999999</ele>
        <time>2017-04-09T10:16:09Z</time>
      </trkpt>
      <trkpt lat="44.042344093322754" lon="9.840766545385122">
        <ele>180.87</ele>
        <time>2017-04-09T10:16:24Z</time>
      </trkpt>
      <trkpt lat="44.042252982035279" lon="9.84087735414505">
        <ele>180.87</ele>
        <time>2017-04-09T10:16:36Z</time>
      </trkpt>
      <trkpt lat="44.042221801355481" lon="9.840930830687285">
        <ele>180.38</ele>
        <time>2017-04-09T10:16:41Z</time>
      </trkpt>
      <trkpt lat="44.042142508551478" lon="9.841108107939363">
        <ele>179.90000000000001</ele>
        <time>2017-04-09T10:16:56Z</time>
      </trkpt>
      <trkpt lat="44.042092049494386" lon="9.841274572536349">
        <ele>179.41999999999999</ele>
        <time>2017-04-09T10:17:09Z</time>
      </trkpt>
      <trkpt lat="44.042040752246976" lon="9.841443635523319">
        <ele>178.46000000000001</ele>
        <time>2017-04-09T10:17:22Z</time>
      </trkpt>
      <trkpt lat="44.04198182746768" lon="9.841609010472894">
        <ele>178.46000000000001</ele>
        <time>2017-04-09T10:17:34Z</time>
      </trkpt>
      <trkpt lat="44.041945869103074" lon="9.841701211407781">
        <ele>177.97999999999999</ele>
        <time>2017-04-09T10:17:41Z</time>
      </trkpt>
      <trkpt lat="44.041946874931455" lon="9.841930372640491">
        <ele>177.5</ele>
        <time>2017-04-09T10:17:57Z</time>
      </trkpt>
      <trkpt lat="44.041939247399569" lon="9.842079821974039">
        <ele>177.97999999999999</ele>
        <time>2017-04-09T10:18:11Z</time>
      </trkpt>
      <trkpt lat="44.041869342327118" lon="9.842099770903587">
        <ele>177.5</ele>
        <time>2017-04-09T10:18:21Z</time>
      </trkpt>
      <trkpt lat="44.041780829429626" lon="9.842052161693573">
        <ele>177.02000000000001</ele>
        <time>2017-04-09T10:18:31Z</time>
      </trkpt>
      <trkpt lat="44.041705308482051" lon="9.841968426480889">
        <ele>177.02000000000001</ele>
        <time>2017-04-09T10:18:42Z</time>
      </trkpt>
      <trkpt lat="44.041681420058012" lon="9.841963145881891">
        <ele>177.02000000000001</ele>
        <time>2017-04-09T10:18:54Z</time>
      </trkpt>
      <trkpt lat="44.041655603796244" lon="9.842002624645829">
        <ele>175.09999999999999</ele>
        <time>2017-04-09T10:19:05Z</time>
      </trkpt>
      <trkpt lat="44.041628446429968" lon="9.842076133936644">
        <ele>172.69</ele>
        <time>2017-04-09T10:19:16Z</time>
      </trkpt>
      <trkpt lat="44.041601121425629" lon="9.842169173061848">
        <ele>171.25</ele>
        <time>2017-04-09T10:19:25Z</time>
      </trkpt>
      <trkpt lat="44.04154546558857" lon="9.842274365946651">
        <ele>168.84999999999999</ele>
        <time>2017-04-09T10:19:35Z</time>
      </trkpt>
      <trkpt lat="44.041486708447337" lon="9.84238819219172">
        <ele>166.93000000000001</ele>
        <time>2017-04-09T10:19:47Z</time>
      </trkpt>
      <trkpt lat="44.041510596871376" lon="9.842373775318265">
        <ele>166.93000000000001</ele>
        <time>2017-04-09T10:20:06Z</time>
      </trkpt>
      <trkpt lat="44.041506489738822" lon="9.842401938512921">
        <ele>166.44999999999999</ele>
        <time>2017-04-09T10:20:19Z</time>
      </trkpt>
      <trkpt lat="44.041444882750511" lon="9.842543341219425">
        <ele>165</ele>
        <time>2017-04-09T10:20:31Z</time>
      </trkpt>
      <trkpt lat="44.041381850838661" lon="9.842648450285196">
        <ele>162.59999999999999</ele>
        <time>2017-04-09T10:20:42Z</time>
      </trkpt>
      <trkpt lat="44.041316723451018" lon="9.842759342864156">
        <ele>159.72</ele>
        <time>2017-04-09T10:20:54Z</time>
      </trkpt>
      <trkpt lat="44.041287302970886" lon="9.842785578221083">
        <ele>158.75</ele>
        <time>2017-04-09T10:20:58Z</time>
      </trkpt>
      <trkpt lat="44.04123667627573" lon="9.842885406687856">
        <ele>156.83000000000001</ele>
        <time>2017-04-09T10:21:10Z</time>
      </trkpt>
      <trkpt lat="44.041204825043678" lon="9.842938296496868">
        <ele>154.91</ele>
        <time>2017-04-09T10:21:22Z</time>
      </trkpt>
      <trkpt lat="44.041203903034329" lon="9.84295648522675">
        <ele>154.91</ele>
        <time>2017-04-09T10:21:38Z</time>
      </trkpt>
      <trkpt lat="44.041182193905115" lon="9.842990431934595">
        <ele>154.43000000000001</ele>
        <time>2017-04-09T10:21:48Z</time>
      </trkpt>
      <trkpt lat="44.041166687384248" lon="9.842997388914228">
        <ele>153.47</ele>
        <time>2017-04-09T10:21:59Z</time>
      </trkpt>
      <trkpt lat="44.041129555553198" lon="9.843036700040102">
        <ele>151.53999999999999</ele>
        <time>2017-04-09T10:22:09Z</time>
      </trkpt>
      <trkpt lat="44.041060069575906" lon="9.843116076663137">
        <ele>148.18000000000001</ele>
        <time>2017-04-09T10:22:23Z</time>
      </trkpt>
      <trkpt lat="44.041046239435673" lon="9.843136947602034">
        <ele>148.66</ele>
        <time>2017-04-09T10:22:26Z</time>
      </trkpt>
      <trkpt lat="44.041041880846024" lon="9.843124626204372">
        <ele>148.18000000000001</ele>
        <time>2017-04-09T10:22:38Z</time>
      </trkpt>
      <trkpt lat="44.041037354618311" lon="9.843158321455121">
        <ele>148.18000000000001</ele>
        <time>2017-04-09T10:22:42Z</time>
      </trkpt>
      <trkpt lat="44.040956972166896" lon="9.843285391107202">
        <ele>144.81999999999999</ele>
        <time>2017-04-09T10:22:55Z</time>
      </trkpt>
      <trkpt lat="44.040923360735178" lon="9.843320595100522">
        <ele>143.37</ele>
        <time>2017-04-09T10:23:02Z</time>
      </trkpt>
      <trkpt lat="44.0408946108073" lon="9.843352530151606">
        <ele>142.41</ele>
        <time>2017-04-09T10:23:13Z</time>
      </trkpt>
      <trkpt lat="44.040858065709472" lon="9.843370383605361">
        <ele>141.44999999999999</ele>
        <time>2017-04-09T10:23:23Z</time>
      </trkpt>
      <trkpt lat="44.040829315781593" lon="9.843372059985995">
        <ele>139.53</ele>
        <time>2017-04-09T10:23:32Z</time>
      </trkpt>
      <trkpt lat="44.040833590552211" lon="9.843366695567966">
        <ele>140.00999999999999</ele>
        <time>2017-04-09T10:23:40Z</time>
      </trkpt>
      <trkpt lat="44.040793357416987" lon="9.843445988371968">
        <ele>138.09</ele>
        <time>2017-04-09T10:23:51Z</time>
      </trkpt>
      <trkpt lat="44.040731163695455" lon="9.843536764383316">
        <ele>136.63999999999999</ele>
        <time>2017-04-09T10:24:00Z</time>
      </trkpt>
      <trkpt lat="44.040642566978931" lon="9.843677245080471">
        <ele>135.68000000000001</ele>
        <time>2017-04-09T10:24:13Z</time>
      </trkpt>
      <trkpt lat="44.040569812059402" lon="9.843766931444407">
        <ele>134.72</ele>
        <time>2017-04-09T10:24:25Z</time>
      </trkpt>
      <trkpt lat="44.040518263354897" lon="9.843814456835389">
        <ele>132.80000000000001</ele>
        <time>2017-04-09T10:24:35Z</time>
      </trkpt>
      <trkpt lat="44.040497392416" lon="9.843854354694486">
        <ele>131.84</ele>
        <time>2017-04-09T10:24:45Z</time>
      </trkpt>
      <trkpt lat="44.040405275300145" lon="9.843976395204663">
        <ele>130.40000000000001</ele>
        <time>2017-04-09T10:24:56Z</time>
      </trkpt>
      <trkpt lat="44.040349703282118" lon="9.844041271135211">
        <ele>128.94999999999999</ele>
        <time>2017-04-09T10:25:05Z</time>
      </trkpt>
      <trkpt lat="44.04029119759798" lon="9.844040349125862">
        <ele>127.03</ele>
        <time>2017-04-09T10:25:14Z</time>
      </trkpt>
      <trkpt lat="44.040262196213007" lon="9.844075050204992">
        <ele>125.59</ele>
        <time>2017-04-09T10:25:23Z</time>
      </trkpt>
      <trkpt lat="44.040217017754912" lon="9.844110840931535">
        <ele>124.63</ele>
        <time>2017-04-09T10:25:31Z</time>
      </trkpt>
      <trkpt lat="44.04020469635725" lon="9.844129113480449">
        <ele>124.15000000000001</ele>
        <time>2017-04-09T10:25:34Z</time>
      </trkpt>
      <trkpt lat="44.040182065218687" lon="9.8441506549716">
        <ele>123.67</ele>
        <time>2017-04-09T10:25:37Z</time>
      </trkpt>
      <trkpt lat="44.040122637525201" lon="9.84421125613153">
        <ele>121.26000000000001</ele>
        <time>2017-04-09T10:25:48Z</time>
      </trkpt>
      <trkpt lat="44.040066981688142" lon="9.844252578914166">
        <ele>119.81999999999999</ele>
        <time>2017-04-09T10:25:58Z</time>
      </trkpt>
      <trkpt lat="44.040036974474788" lon="9.844276383519173">
        <ele>118.38</ele>
        <time>2017-04-09T10:26:03Z</time>
      </trkpt>
      <trkpt lat="44.04002582654357" lon="9.844278143718839">
        <ele>117.90000000000001</ele>
        <time>2017-04-09T10:26:13Z</time>
      </trkpt>
      <trkpt lat="44.040007721632719" lon="9.844277808442712">
        <ele>117.90000000000001</ele>
        <time>2017-04-09T10:26:23Z</time>
      </trkpt>
      <trkpt lat="44.039927255362272" lon="9.844413679093123">
        <ele>116.94</ele>
        <time>2017-04-09T10:26:36Z</time>
      </trkpt>
      <trkpt lat="44.039897583425045" lon="9.844435472041369">
        <ele>116.45999999999999</ele>
        <time>2017-04-09T10:26:41Z</time>
      </trkpt>
      <trkpt lat="44.039837149903178" lon="9.844452571123838">
        <ele>114.05</ele>
        <time>2017-04-09T10:26:50Z</time>
      </trkpt>
      <trkpt lat="44.039755342528224" lon="9.844530103728175">
        <ele>111.65000000000001</ele>
        <time>2017-04-09T10:27:04Z</time>
      </trkpt>
      <trkpt lat="44.03971360065043" lon="9.844556758180261">
        <ele>110.69</ele>
        <time>2017-04-09T10:27:09Z</time>
      </trkpt>
      <trkpt lat="44.03963053599" lon="9.844616018235683">
        <ele>108.77</ele>
        <time>2017-04-09T10:27:18Z</time>
      </trkpt>
      <trkpt lat="44.03948150575161" lon="9.844743926078081">
        <ele>107.31999999999999</ele>
        <time>2017-04-09T10:27:34Z</time>
      </trkpt>
      <trkpt lat="44.03942534700036" lon="9.844782399013639">
        <ele>106.36</ele>
        <time>2017-04-09T10:27:40Z</time>
      </trkpt>
      <trkpt lat="44.03936667367816" lon="9.844899997115135">
        <ele>105.40000000000001</ele>
        <time>2017-04-09T10:27:53Z</time>
      </trkpt>
      <trkpt lat="44.039287632331252" lon="9.844885747879744">
        <ele>104.44</ele>
        <time>2017-04-09T10:28:03Z</time>
      </trkpt>
      <trkpt lat="44.039234993979335" lon="9.844927489757538">
        <ele>103.48</ele>
        <time>2017-04-09T10:28:12Z</time>
      </trkpt>
      <trkpt lat="44.03915268369019" lon="9.844984067603946">
        <ele>102.04000000000001</ele>
        <time>2017-04-09T10:28:24Z</time>
      </trkpt>
      <trkpt lat="44.039070541039109" lon="9.845010805875063">
        <ele>101.56</ele>
        <time>2017-04-09T10:28:37Z</time>
      </trkpt>
      <trkpt lat="44.038962833583355" lon="9.844992449507117">
        <ele>100.11</ele>
        <time>2017-04-09T10:28:50Z</time>
      </trkpt>
      <trkpt lat="44.038926707580686" lon="9.84499697573483">
        <ele>99.629999999999995</ele>
        <time>2017-04-09T10:28:54Z</time>
      </trkpt>
      <trkpt lat="44.038765439763665" lon="9.845006112009287">
        <ele>101.08</ele>
        <time>2017-04-09T10:29:11Z</time>
      </trkpt>
      <trkpt lat="44.038663180544972" lon="9.845033437013626">
        <ele>101.08</ele>
        <time>2017-04-09T10:29:25Z</time>
      </trkpt>
      <trkpt lat="44.038571398705244" lon="9.845074256882072">
        <ele>102.04000000000001</ele>
        <time>2017-04-09T10:29:36Z</time>
      </trkpt>
      <trkpt lat="44.038511384278536" lon="9.845119519159198">
        <ele>102.04000000000001</ele>
        <time>2017-04-09T10:29:43Z</time>
      </trkpt>
      <trkpt lat="44.038429241627455" lon="9.845186239108443">
        <ele>101.08</ele>
        <time>2017-04-09T10:29:52Z</time>
      </trkpt>
      <trkpt lat="44.038373837247491" lon="9.845231082290411">
        <ele>99.629999999999995</ele>
        <time>2017-04-09T10:30:03Z</time>
      </trkpt>
      <trkpt lat="44.038311978802085" lon="9.845267543569207">
        <ele>98.189999999999998</ele>
        <time>2017-04-09T10:30:14Z</time>
      </trkpt>
      <trkpt lat="44.03825799934566" lon="9.845302663743496">
        <ele>95.790000000000006</ele>
        <time>2017-04-09T10:30:25Z</time>
      </trkpt>
      <trkpt lat="44.038200750946999" lon="9.845339125022292">
        <ele>93.390000000000001</ele>
        <time>2017-04-09T10:30:36Z</time>
      </trkpt>
      <trkpt lat="44.038139563053846" lon="9.845400983467698">
        <ele>90.5</ele>
        <time>2017-04-09T10:30:48Z</time>
      </trkpt>
      <trkpt lat="44.038033364340663" lon="9.845422860234976">
        <ele>88.099999999999994</ele>
        <time>2017-04-09T10:31:00Z</time>
      </trkpt>
      <trkpt lat="44.037926830351353" lon="9.845481533557177">
        <ele>85.209999999999994</ele>
        <time>2017-04-09T10:31:14Z</time>
      </trkpt>
      <trkpt lat="44.037892716005445" lon="9.845519168302417">
        <ele>84.25</ele>
        <time>2017-04-09T10:31:19Z</time>
      </trkpt>
      <trkpt lat="44.037830689921975" lon="9.845604412257671">
        <ele>82.329999999999998</ele>
        <time>2017-04-09T10:31:30Z</time>
      </trkpt>
      <trkpt lat="44.037723485380411" lon="9.845684627071023">
        <ele>79.450000000000003</ele>
        <time>2017-04-09T10:31:45Z</time>
      </trkpt>
      <trkpt lat="44.037629859521985" lon="9.845769451931119">
        <ele>78</ele>
        <time>2017-04-09T10:31:59Z</time>
      </trkpt>
      <trkpt lat="44.037597170099616" lon="9.84578613191843">
        <ele>77.519999999999996</ele>
        <time>2017-04-09T10:32:03Z</time>
      </trkpt>
      <trkpt lat="44.037466160953045" lon="9.845803482457995">
        <ele>76.560000000000002</ele>
        <time>2017-04-09T10:32:17Z</time>
      </trkpt>
      <trkpt lat="44.037370607256889" lon="9.845788143575192">
        <ele>74.640000000000001</ele>
        <time>2017-04-09T10:32:29Z</time>
      </trkpt>
      <trkpt lat="44.037258708849549" lon="9.845761321485043">
        <ele>72.239999999999995</ele>
        <time>2017-04-09T10:32:41Z</time>
      </trkpt>
      <trkpt lat="44.037125604227185" lon="9.845764506608248">
        <ele>70.790000000000006</ele>
        <time>2017-04-09T10:32:54Z</time>
      </trkpt>
      <trkpt lat="44.036999121308327" lon="9.845739360898733">
        <ele>69.829999999999998</ele>
        <time>2017-04-09T10:33:06Z</time>
      </trkpt>
      <trkpt lat="44.03690448962152" lon="9.845707258209586">
        <ele>68.390000000000001</ele>
        <time>2017-04-09T10:33:18Z</time>
      </trkpt>
      <trkpt lat="44.03690692037344" lon="9.845709269866347">
        <ele>68.390000000000001</ele>
        <time>2017-04-09T10:33:23Z</time>
      </trkpt>
      <trkpt lat="44.036890240386128" lon="9.845709521323443">
        <ele>68.390000000000001</ele>
        <time>2017-04-09T10:33:25Z</time>
      </trkpt>
      <trkpt lat="44.036772307008505" lon="9.845683956518769">
        <ele>67.909999999999997</ele>
        <time>2017-04-09T10:33:36Z</time>
      </trkpt>
      <trkpt lat="44.0367466583848" lon="9.845670629292727">
        <ele>67.909999999999997</ele>
        <time>2017-04-09T10:33:39Z</time>
      </trkpt>
      <trkpt lat="44.036618331447244" lon="9.845571052283049">
        <ele>67.909999999999997</ele>
        <time>2017-04-09T10:33:52Z</time>
      </trkpt>
      <trkpt lat="44.036545241251588" lon="9.845444401726127">
        <ele>66.950000000000003</ele>
        <time>2017-04-09T10:34:06Z</time>
      </trkpt>
      <trkpt lat="44.03647106140852" lon="9.845362929627299">
        <ele>66.950000000000003</ele>
        <time>2017-04-09T10:34:17Z</time>
      </trkpt>
      <trkpt lat="44.036397049203515" lon="9.845351446419954">
        <ele>68.390000000000001</ele>
        <time>2017-04-09T10:34:29Z</time>
      </trkpt>
      <trkpt lat="44.036373998969793" lon="9.845339711755514">
        <ele>69.349999999999994</ele>
        <time>2017-04-09T10:34:42Z</time>
      </trkpt>
      <trkpt lat="44.036435270681977" lon="9.845326384529471">
        <ele>66.950000000000003</ele>
        <time>2017-04-09T10:34:54Z</time>
      </trkpt>
      <trkpt lat="44.036445831879973" lon="9.845346165820956">
        <ele>66.469999999999999</ele>
        <time>2017-04-09T10:35:05Z</time>
      </trkpt>
      <trkpt lat="44.036451112478971" lon="9.845355805009604">
        <ele>66.469999999999999</ele>
        <time>2017-04-09T10:35:19Z</time>
      </trkpt>
      <trkpt lat="44.036438539624214" lon="9.84535513445735">
        <ele>66.950000000000003</ele>
        <time>2017-04-09T10:35:34Z</time>
      </trkpt>
      <trkpt lat="44.03643149882555" lon="9.845365779474378">
        <ele>66.950000000000003</ele>
        <time>2017-04-09T10:35:48Z</time>
      </trkpt>
      <trkpt lat="44.036429403349757" lon="9.84535270370543">
        <ele>66.469999999999999</ele>
        <time>2017-04-09T10:36:03Z</time>
      </trkpt>
      <trkpt lat="44.036424960941076" lon="9.845349350944161">
        <ele>66.950000000000003</ele>
        <time>2017-04-09T10:36:17Z</time>
      </trkpt>
      <trkpt lat="44.036420853808522" lon="9.845351194962859">
        <ele>66.950000000000003</ele>
        <time>2017-04-09T10:36:34Z</time>
      </trkpt>
      <trkpt lat="44.036414315924048" lon="9.845365360379219">
        <ele>66.950000000000003</ele>
        <time>2017-04-09T10:36:47Z</time>
      </trkpt>
      <trkpt lat="44.036427056416869" lon="9.845359493046999">
        <ele>66.950000000000003</ele>
        <time>2017-04-09T10:37:01Z</time>
      </trkpt>
      <trkpt lat="44.03642269782722" lon="9.845369467511773">
        <ele>66.950000000000003</ele>
        <time>2017-04-09T10:37:10Z</time>
      </trkpt>
      <trkpt lat="44.036420602351427" lon="9.845357313752174">
        <ele>66.950000000000003</ele>
        <time>2017-04-09T10:37:20Z</time>
      </trkpt>
      <trkpt lat="44.036417920142412" lon="9.845353793352842">
        <ele>67.430000000000007</ele>
        <time>2017-04-09T10:37:32Z</time>
      </trkpt>
      <trkpt lat="44.036421524360776" lon="9.845345495268703">
        <ele>66.950000000000003</ele>
        <time>2017-04-09T10:37:46Z</time>
      </trkpt>
      <trkpt lat="44.036440635100007" lon="9.84535614028573">
        <ele>66.950000000000003</ele>
        <time>2017-04-09T10:38:03Z</time>
      </trkpt>
      <trkpt lat="44.036429906263947" lon="9.845349099487066">
        <ele>66.950000000000003</ele>
        <time>2017-04-09T10:38:17Z</time>
      </trkpt>
      <trkpt lat="44.036428648978472" lon="9.84536049887538">
        <ele>66.950000000000003</ele>
        <time>2017-04-09T10:38:32Z</time>
      </trkpt>
      <trkpt lat="44.03643493540585" lon="9.845362510532141">
        <ele>67.430000000000007</ele>
        <time>2017-04-09T10:38:47Z</time>
      </trkpt>
      <trkpt lat="44.036433342844248" lon="9.84537273645401">
        <ele>67.430000000000007</ele>
        <time>2017-04-09T10:39:04Z</time>
      </trkpt>
      <trkpt lat="44.036423452198505" lon="9.845367036759853">
        <ele>67.430000000000007</ele>
        <time>2017-04-09T10:39:13Z</time>
      </trkpt>
      <trkpt lat="44.036432169377804" lon="9.845362091436982">
        <ele>67.430000000000007</ele>
        <time>2017-04-09T10:39:27Z</time>
      </trkpt>
      <trkpt lat="44.036430492997169" lon="9.845347758382559">
        <ele>67.430000000000007</ele>
        <time>2017-04-09T10:39:41Z</time>
      </trkpt>
      <trkpt lat="44.036427643150091" lon="9.845342561602593">
        <ele>67.430000000000007</ele>
        <time>2017-04-09T10:39:57Z</time>
      </trkpt>
      <trkpt lat="44.036420434713364" lon="9.845338789746165">
        <ele>67.430000000000007</ele>
        <time>2017-04-09T10:40:17Z</time>
      </trkpt>
      <trkpt lat="44.036419177427888" lon="9.84534926712513">
        <ele>66.950000000000003</ele>
        <time>2017-04-09T10:40:30Z</time>
      </trkpt>
      <trkpt lat="44.036415070295334" lon="9.845350356772542">
        <ele>67.430000000000007</ele>
        <time>2017-04-09T10:40:46Z</time>
      </trkpt>
      <trkpt lat="44.036421608179808" lon="9.845342645421624">
        <ele>67.430000000000007</ele>
        <time>2017-04-09T10:41:01Z</time>
      </trkpt>
      <trkpt lat="44.036432504653931" lon="9.845325630158186">
        <ele>67.430000000000007</ele>
        <time>2017-04-09T10:41:23Z</time>
      </trkpt>
      <trkpt lat="44.036474246531725" lon="9.845328144729137">
        <ele>67.430000000000007</ele>
        <time>2017-04-09T10:41:44Z</time>
      </trkpt>
      <trkpt lat="44.036433259025216" lon="9.84535270370543">
        <ele>67.909999999999997</ele>
        <time>2017-04-09T10:42:01Z</time>
      </trkpt>
      <trkpt lat="44.03644029982388" lon="9.845362175256014">
        <ele>67.430000000000007</ele>
        <time>2017-04-09T10:42:20Z</time>
      </trkpt>
      <trkpt lat="44.036447172984481" lon="9.845364186912775">
        <ele>67.909999999999997</ele>
        <time>2017-04-09T10:42:40Z</time>
      </trkpt>
      <trkpt lat="44.036433678120375" lon="9.845332000404596">
        <ele>67.430000000000007</ele>
        <time>2017-04-09T10:43:00Z</time>
      </trkpt>
      <trkpt lat="44.036430241540074" lon="9.845327809453011">
        <ele>67.430000000000007</ele>
        <time>2017-04-09T10:43:13Z</time>
      </trkpt>
      <trkpt lat="44.036443568766117" lon="9.84533216804266">
        <ele>67.909999999999997</ele>
        <time>2017-04-09T10:43:35Z</time>
      </trkpt>
      <trkpt lat="44.036437030881643" lon="9.845345327630639">
        <ele>67.909999999999997</ele>
        <time>2017-04-09T10:43:54Z</time>
      </trkpt>
      <trkpt lat="44.036421775817871" lon="9.845292270183563">
        <ele>67.909999999999997</ele>
        <time>2017-04-09T10:43:58Z</time>
      </trkpt>
      <trkpt lat="44.03639486990869" lon="9.845178024843335">
        <ele>67.909999999999997</ele>
        <time>2017-04-09T10:44:05Z</time>
      </trkpt>
      <trkpt lat="44.036410208791494" lon="9.845136953517795">
        <ele>67.909999999999997</ele>
        <time>2017-04-09T10:44:14Z</time>
      </trkpt>
      <trkpt lat="44.036392606794834" lon="9.845238123089075">
        <ele>68.390000000000001</ele>
        <time>2017-04-09T10:44:20Z</time>
      </trkpt>
      <trkpt lat="44.036341058090329" lon="9.845362091436982">
        <ele>70.310000000000002</ele>
        <time>2017-04-09T10:44:31Z</time>
      </trkpt>
      <trkpt lat="44.036262100562453" lon="9.845524867996573">
        <ele>67.909999999999997</ele>
        <time>2017-04-09T10:44:45Z</time>
      </trkpt>
      <trkpt lat="44.036224968731403" lon="9.84561069868505">
        <ele>65.510000000000005</ele>
        <time>2017-04-09T10:44:51Z</time>
      </trkpt>
      <trkpt lat="44.036182723939419" lon="9.845709269866347">
        <ele>62.619999999999997</ele>
        <time>2017-04-09T10:45:01Z</time>
      </trkpt>
      <trkpt lat="44.036130337044597" lon="9.845771295949817">
        <ele>59.740000000000002</ele>
        <time>2017-04-09T10:45:10Z</time>
      </trkpt>
      <trkpt lat="44.036091864109039" lon="9.845809349790216">
        <ele>57.82</ele>
        <time>2017-04-09T10:45:19Z</time>
      </trkpt>
      <trkpt lat="44.036080632358789" lon="9.845892079174519">
        <ele>54.93</ele>
        <time>2017-04-09T10:45:29Z</time>
      </trkpt>
      <trkpt lat="44.036041656509042" lon="9.845948070287705">
        <ele>53.009999999999998</ele>
        <time>2017-04-09T10:45:38Z</time>
      </trkpt>
      <trkpt lat="44.036076776683331" lon="9.846008084714413">
        <ele>50.609999999999999</ele>
        <time>2017-04-09T10:45:49Z</time>
      </trkpt>
      <trkpt lat="44.036082811653614" lon="9.846022501587868">
        <ele>50.130000000000003</ele>
        <time>2017-04-09T10:45:51Z</time>
      </trkpt>
      <trkpt lat="44.036074597388506" lon="9.846110176295042">
        <ele>48.200000000000003</ele>
        <time>2017-04-09T10:46:00Z</time>
      </trkpt>
      <trkpt lat="44.036087673157454" lon="9.846200365573168">
        <ele>46.280000000000001</ele>
        <time>2017-04-09T10:46:09Z</time>
      </trkpt>
      <trkpt lat="44.03611684218049" lon="9.846253423020244">
        <ele>44.840000000000003</ele>
        <time>2017-04-09T10:46:20Z</time>
      </trkpt>
      <trkpt lat="44.036126481369138" lon="9.846321400254965">
        <ele>42.439999999999998</ele>
        <time>2017-04-09T10:46:26Z</time>
      </trkpt>
      <trkpt lat="44.03615397401154" lon="9.846334643661976">
        <ele>41.950000000000003</ele>
        <time>2017-04-09T10:46:29Z</time>
      </trkpt>
      <trkpt lat="44.036161936819553" lon="9.84634805470705">
        <ele>41.469999999999999</ele>
        <time>2017-04-09T10:46:38Z</time>
      </trkpt>
      <trkpt lat="44.03623410500586" lon="9.846487864851952">
        <ele>40.990000000000002</ele>
        <time>2017-04-09T10:46:50Z</time>
      </trkpt>
      <trkpt lat="44.036298394203186" lon="9.846629686653614">
        <ele>40.030000000000001</ele>
        <time>2017-04-09T10:47:05Z</time>
      </trkpt>
      <trkpt lat="44.036280205473304" lon="9.846654664725065">
        <ele>38.109999999999999</ele>
        <time>2017-04-09T10:47:16Z</time>
      </trkpt>
      <trkpt lat="44.036214491352439" lon="9.846647959202528">
        <ele>35.710000000000001</ele>
        <time>2017-04-09T10:47:30Z</time>
      </trkpt>
      <trkpt lat="44.036163864657283" lon="9.846639074385166">
        <ele>33.780000000000001</ele>
        <time>2017-04-09T10:47:41Z</time>
      </trkpt>
      <trkpt lat="44.036119943484664" lon="9.846611078828573">
        <ele>32.340000000000003</ele>
        <time>2017-04-09T10:47:51Z</time>
      </trkpt>
      <trkpt lat="44.036098988726735" lon="9.846622478216887">
        <ele>31.379999999999999</ele>
        <time>2017-04-09T10:48:01Z</time>
      </trkpt>
      <trkpt lat="44.03608649969101" lon="9.846694646403194">
        <ele>30.420000000000002</ele>
        <time>2017-04-09T10:48:16Z</time>
      </trkpt>
      <trkpt lat="44.036083901301026" lon="9.846750469878316">
        <ele>28.5</ele>
        <time>2017-04-09T10:48:26Z</time>
      </trkpt>
      <trkpt lat="44.036102006211877" lon="9.846820794045925">
        <ele>26.57</ele>
        <time>2017-04-09T10:48:37Z</time>
      </trkpt>
      <trkpt lat="44.036105023697019" lon="9.846862452104688">
        <ele>25.129999999999999</ele>
        <time>2017-04-09T10:48:48Z</time>
      </trkpt>
      <trkpt lat="44.036111226305366" lon="9.846932189539075">
        <ele>23.210000000000001</ele>
        <time>2017-04-09T10:48:59Z</time>
      </trkpt>
      <trkpt lat="44.036095719784498" lon="9.84700377099216">
        <ele>20.809999999999999</ele>
        <time>2017-04-09T10:49:11Z</time>
      </trkpt>
      <trkpt lat="44.036097899079323" lon="9.847049284726381">
        <ele>19.359999999999999</ele>
        <time>2017-04-09T10:49:21Z</time>
      </trkpt>
      <trkpt lat="44.036114327609539" lon="9.847091026604176">
        <ele>17.920000000000002</ele>
        <time>2017-04-09T10:49:30Z</time>
      </trkpt>
      <trkpt lat="44.036124972626567" lon="9.847174510359764">
        <ele>16.48</ele>
        <time>2017-04-09T10:49:38Z</time>
      </trkpt>
      <trkpt lat="44.03613050468266" lon="9.847223293036223">
        <ele>13.6</ele>
        <time>2017-04-09T10:49:42Z</time>
      </trkpt>
      <trkpt lat="44.036149531602859" lon="9.847269561141729">
        <ele>11.67</ele>
        <time>2017-04-09T10:49:49Z</time>
      </trkpt>
      <trkpt lat="44.036183645948768" lon="9.847337370738387">
        <ele>9.27</ele>
        <time>2017-04-09T10:49:54Z</time>
      </trkpt>
      <trkpt lat="44.036216167733073" lon="9.847377268597484">
        <ele>7.83</ele>
        <time>2017-04-09T10:49:58Z</time>
      </trkpt>
      <trkpt lat="44.036262854933739" lon="9.847414903342724">
        <ele>7.35</ele>
        <time>2017-04-09T10:50:03Z</time>
      </trkpt>
      <trkpt lat="44.036411885172129" lon="9.847513642162085">
        <ele>7.83</ele>
        <time>2017-04-09T10:50:17Z</time>
      </trkpt>
      <trkpt lat="44.036538703367114" lon="9.847676251083612">
        <ele>8.310000000000001</ele>
        <time>2017-04-09T10:50:31Z</time>
      </trkpt>
      <trkpt lat="44.036674071103334" lon="9.847785970196128">
        <ele>7.83</ele>
        <time>2017-04-09T10:50:44Z</time>
      </trkpt>
      <trkpt lat="44.036796530708671" lon="9.847903065383434">
        <ele>7.83</ele>
        <time>2017-04-09T10:50:56Z</time>
      </trkpt>
      <trkpt lat="44.036871297284961" lon="9.847990572452545">
        <ele>7.83</ele>
        <time>2017-04-09T10:51:04Z</time>
      </trkpt>
      <trkpt lat="44.037002893164754" lon="9.848143709823489">
        <ele>8.310000000000001</ele>
        <time>2017-04-09T10:51:19Z</time>
      </trkpt>
      <trkpt lat="44.037010939791799" lon="9.84817698597908">
        <ele>7.83</ele>
        <time>2017-04-09T10:51:29Z</time>
      </trkpt>
      <trkpt lat="44.037033068016171" lon="9.848219230771065">
        <ele>8.310000000000001</ele>
        <time>2017-04-09T10:51:42Z</time>
      </trkpt>
      <trkpt lat="44.03717421926558" lon="9.848348814994097">
        <ele>7.83</ele>
        <time>2017-04-09T10:51:57Z</time>
      </trkpt>
      <trkpt lat="44.037273544818163" lon="9.84851561486721">
        <ele>8.310000000000001</ele>
        <time>2017-04-09T10:52:10Z</time>
      </trkpt>
      <trkpt lat="44.037335654720664" lon="9.848700687289238">
        <ele>8.310000000000001</ele>
        <time>2017-04-09T10:52:23Z</time>
      </trkpt>
      <trkpt lat="44.037354849278927" lon="9.848797414451838">
        <ele>7.35</ele>
        <time>2017-04-09T10:52:30Z</time>
      </trkpt>
      <trkpt lat="44.037295924499631" lon="9.848885172978044">
        <ele>6.39</ele>
        <time>2017-04-09T10:52:43Z</time>
      </trkpt>
      <trkpt lat="44.037287374958396" lon="9.848868157714605">
        <ele>5.91</ele>
        <time>2017-04-09T10:52:56Z</time>
      </trkpt>
      <trkpt lat="44.037254014983773" lon="9.848803449422121">
        <ele>4.46</ele>
        <time>2017-04-09T10:53:04Z</time>
      </trkpt>
      <trkpt lat="44.037264660000801" lon="9.848797162994742">
        <ele>4.94</ele>
        <time>2017-04-09T10:53:12Z</time>
      </trkpt>
      <trkpt lat="44.037270359694958" lon="9.848859775811434">
        <ele>5.42</ele>
        <time>2017-04-09T10:53:21Z</time>
      </trkpt>
      <trkpt lat="44.037284525111318" lon="9.848923562094569">
        <ele>5.42</ele>
        <time>2017-04-09T10:53:31Z</time>
      </trkpt>
      <trkpt lat="44.037285698577762" lon="9.848983827978373">
        <ele>5.91</ele>
        <time>2017-04-09T10:53:39Z</time>
      </trkpt>
      <trkpt lat="44.037273460999131" lon="9.849008470773697">
        <ele>6.39</ele>
        <time>2017-04-09T10:53:49Z</time>
      </trkpt>
      <trkpt lat="44.037286452949047" lon="9.848997574299574">
        <ele>4.94</ele>
        <time>2017-04-09T10:53:58Z</time>
      </trkpt>
      <trkpt lat="44.037287626415491" lon="9.848984833806753">
        <ele>4.46</ele>
        <time>2017-04-09T10:54:15Z</time>
      </trkpt>
      <trkpt lat="44.037286033853889" lon="9.848988857120276">
        <ele>3.5</ele>
        <time>2017-04-09T10:54:35Z</time>
      </trkpt>
      <trkpt lat="44.037283267825842" lon="9.848990449681878">
        <ele>3.98</ele>
        <time>2017-04-09T10:55:06Z</time>
      </trkpt>
      <trkpt lat="44.037283770740032" lon="9.848983660340309">
        <ele>3.98</ele>
        <time>2017-04-09T10:55:37Z</time>
      </trkpt>
      <trkpt lat="44.037282429635525" lon="9.848978882655501">
        <ele>3.98</ele>
        <time>2017-04-09T10:56:12Z</time>
      </trkpt>
      <trkpt lat="44.037277651950717" lon="9.848978379741311">
        <ele>3.98</ele>
        <time>2017-04-09T10:56:48Z</time>
      </trkpt>
      <trkpt lat="44.037286788225174" lon="9.848994724452496">
        <ele>3.98</ele>
        <time>2017-04-09T10:57:08Z</time>
      </trkpt>
      <trkpt lat="44.037289973348379" lon="9.848980978131294">
        <ele>3.98</ele>
        <time>2017-04-09T10:57:29Z</time>
      </trkpt>
      <trkpt lat="44.037286872044206" lon="9.848988438025117">
        <ele>4.46</ele>
        <time>2017-04-09T10:58:08Z</time>
      </trkpt>
      <trkpt lat="44.037287877872586" lon="9.848979553207755">
        <ele>3.98</ele>
        <time>2017-04-09T10:58:40Z</time>
      </trkpt>
      <trkpt lat="44.037289386615157" lon="9.848978715017438">
        <ele>4.46</ele>
        <time>2017-04-09T10:59:09Z</time>
      </trkpt>
      <trkpt lat="44.037296678870916" lon="9.848971171304584">
        <ele>4.46</ele>
        <time>2017-04-09T10:59:38Z</time>
      </trkpt>
      <trkpt lat="44.037282848730683" lon="9.848983241245151">
        <ele>3.98</ele>
        <time>2017-04-09T11:00:12Z</time>
      </trkpt>
      <trkpt lat="44.037284106016159" lon="9.848979050293565">
        <ele>3.98</ele>
        <time>2017-04-09T11:00:34Z</time>
      </trkpt>
      <trkpt lat="44.037284525111318" lon="9.848981983959675">
        <ele>3.98</ele>
        <time>2017-04-09T11:00:58Z</time>
      </trkpt>
      <trkpt lat="44.037275137379766" lon="9.848976619541645">
        <ele>3.98</ele>
        <time>2017-04-09T11:01:32Z</time>
      </trkpt>
      <trkpt lat="44.037279915064573" lon="9.848976535722613">
        <ele>3.98</ele>
        <time>2017-04-09T11:02:00Z</time>
      </trkpt>
      <trkpt lat="44.037281004711986" lon="9.848977541550994">
        <ele>4.46</ele>
        <time>2017-04-09T11:02:36Z</time>
      </trkpt>
      <trkpt lat="44.037295337766409" lon="9.848977960646153">
        <ele>3.98</ele>
        <time>2017-04-09T11:03:08Z</time>
      </trkpt>
      <trkpt lat="44.037283603101969" lon="9.848969243466854">
        <ele>3.98</ele>
        <time>2017-04-09T11:03:39Z</time>
      </trkpt>
      <trkpt lat="44.037264911457896" lon="9.848982319235802">
        <ele>3.98</ele>
        <time>2017-04-09T11:04:12Z</time>
      </trkpt>
      <trkpt lat="44.037271365523338" lon="9.848983660340309">
        <ele>3.98</ele>
        <time>2017-04-09T11:04:43Z</time>
      </trkpt>
      <trkpt lat="44.037266001105309" lon="9.848978882655501">
        <ele>3.98</ele>
        <time>2017-04-09T11:05:18Z</time>
      </trkpt>
      <trkpt lat="44.037276981398463" lon="9.848969746381044">
        <ele>4.46</ele>
        <time>2017-04-09T11:05:51Z</time>
      </trkpt>
      <trkpt lat="44.037270778790116" lon="9.848975529894233">
        <ele>4.46</ele>
        <time>2017-04-09T11:06:24Z</time>
      </trkpt>
      <trkpt lat="44.037283770740032" lon="9.848972763866186">
        <ele>4.46</ele>
        <time>2017-04-09T11:06:59Z</time>
      </trkpt>
      <trkpt lat="44.037289805710316" lon="9.848985839635134">
        <ele>3.98</ele>
        <time>2017-04-09T11:07:22Z</time>
      </trkpt>
      <trkpt lat="44.037290392443538" lon="9.848979050293565">
        <ele>4.46</ele>
        <time>2017-04-09T11:07:49Z</time>
      </trkpt>
      <trkpt lat="44.037285950034857" lon="9.848974691703916">
        <ele>4.94</ele>
        <time>2017-04-09T11:08:11Z</time>
      </trkpt>
      <trkpt lat="44.037299109622836" lon="9.848964046686888">
        <ele>4.46</ele>
        <time>2017-04-09T11:08:38Z</time>
      </trkpt>
      <trkpt lat="44.037275137379766" lon="9.848961615934968">
        <ele>4.46</ele>
        <time>2017-04-09T11:09:20Z</time>
      </trkpt>
      <trkpt lat="44.037273712456226" lon="9.84894996508956">
        <ele>4.94</ele>
        <time>2017-04-09T11:09:46Z</time>
      </trkpt>
      <trkpt lat="44.037279579788446" lon="9.848951892927289">
        <ele>3.98</ele>
        <time>2017-04-09T11:10:15Z</time>
      </trkpt>
      <trkpt lat="44.03728318400681" lon="9.848955245688558">
        <ele>4.46</ele>
        <time>2017-04-09T11:10:50Z</time>
      </trkpt>
      <trkpt lat="44.037280501797795" lon="9.848976619541645">
        <ele>3.98</ele>
        <time>2017-04-09T11:11:09Z</time>
      </trkpt>
      <trkpt lat="44.037277065217495" lon="9.848979637026787">
        <ele>4.46</ele>
        <time>2017-04-09T11:11:38Z</time>
      </trkpt>
      <trkpt lat="44.037295002490282" lon="9.848985336720944">
        <ele>4.46</ele>
        <time>2017-04-09T11:12:12Z</time>
      </trkpt>
      <trkpt lat="44.037283854559064" lon="9.848974775522947">
        <ele>4.46</ele>
        <time>2017-04-09T11:12:37Z</time>
      </trkpt>
      <trkpt lat="44.037283938378096" lon="9.848969159647822">
        <ele>4.46</ele>
        <time>2017-04-09T11:13:06Z</time>
      </trkpt>
      <trkpt lat="44.037295589223504" lon="9.848976535722613">
        <ele>4.46</ele>
        <time>2017-04-09T11:13:40Z</time>
      </trkpt>
      <trkpt lat="44.037286369130015" lon="9.848977038636804">
        <ele>4.46</ele>
        <time>2017-04-09T11:14:03Z</time>
      </trkpt>
      <trkpt lat="44.03729785233736" lon="9.848983325064182">
        <ele>5.42</ele>
        <time>2017-04-09T11:14:40Z</time>
      </trkpt>
      <trkpt lat="44.037291649729013" lon="9.848970249295235">
        <ele>4.46</ele>
        <time>2017-04-09T11:15:11Z</time>
      </trkpt>
      <trkpt lat="44.037294834852219" lon="9.848970919847488">
        <ele>4.94</ele>
        <time>2017-04-09T11:15:48Z</time>
      </trkpt>
      <trkpt lat="44.037273628637195" lon="9.848954239860177">
        <ele>4.94</ele>
        <time>2017-04-09T11:16:28Z</time>
      </trkpt>
      <trkpt lat="44.037268096581101" lon="9.848929261788726">
        <ele>4.94</ele>
        <time>2017-04-09T11:17:06Z</time>
      </trkpt>
      <trkpt lat="44.03726507909596" lon="9.848942589014769">
        <ele>4.94</ele>
        <time>2017-04-09T11:17:43Z</time>
      </trkpt>
      <trkpt lat="44.037271868437529" lon="9.848941164091229">
        <ele>5.42</ele>
        <time>2017-04-09T11:18:09Z</time>
      </trkpt>
      <trkpt lat="44.03727388009429" lon="9.848946360871196">
        <ele>5.42</ele>
        <time>2017-04-09T11:18:37Z</time>
      </trkpt>
      <trkpt lat="44.037275221198797" lon="9.848946528509259">
        <ele>5.42</ele>
        <time>2017-04-09T11:19:14Z</time>
      </trkpt>
      <trkpt lat="44.037291733548045" lon="9.84896563924849">
        <ele>4.94</ele>
        <time>2017-04-09T11:19:47Z</time>
      </trkpt>
      <trkpt lat="44.037288883700967" lon="9.848947953432798">
        <ele>4.94</ele>
        <time>2017-04-09T11:20:12Z</time>
      </trkpt>
      <trkpt lat="44.037282597273588" lon="9.848955329507589">
        <ele>5.42</ele>
        <time>2017-04-09T11:20:48Z</time>
      </trkpt>
      <trkpt lat="44.037297433242202" lon="9.848982319235802">
        <ele>4.94</ele>
        <time>2017-04-09T11:21:19Z</time>
      </trkpt>
      <trkpt lat="44.037297936156392" lon="9.848964801058173">
        <ele>5.42</ele>
        <time>2017-04-09T11:21:46Z</time>
      </trkpt>
      <trkpt lat="44.037288883700967" lon="9.848957257345319">
        <ele>5.42</ele>
        <time>2017-04-09T11:22:10Z</time>
      </trkpt>
      <trkpt lat="44.037298103794456" lon="9.848961196839809">
        <ele>5.91</ele>
        <time>2017-04-09T11:22:33Z</time>
      </trkpt>
      <trkpt lat="44.037302797660232" lon="9.848966477438808">
        <ele>5.91</ele>
        <time>2017-04-09T11:22:58Z</time>
      </trkpt>
      <trkpt lat="44.037287123501301" lon="9.848969662562013">
        <ele>5.42</ele>
        <time>2017-04-09T11:23:15Z</time>
      </trkpt>
      <trkpt lat="44.037278909236193" lon="9.848975362256169">
        <ele>4.94</ele>
        <time>2017-04-09T11:23:37Z</time>
      </trkpt>
      <trkpt lat="44.037269437685609" lon="9.848982570692897">
        <ele>5.42</ele>
        <time>2017-04-09T11:24:00Z</time>
      </trkpt>
      <trkpt lat="44.037281004711986" lon="9.848984498530626">
        <ele>4.94</ele>
        <time>2017-04-09T11:24:27Z</time>
      </trkpt>
      <trkpt lat="44.03729391284287" lon="9.84897343441844">
        <ele>5.42</ele>
        <time>2017-04-09T11:24:52Z</time>
      </trkpt>
      <trkpt lat="44.037291398271918" lon="9.848982486873865">
        <ele>5.42</ele>
        <time>2017-04-09T11:25:16Z</time>
      </trkpt>
      <trkpt lat="44.0373061504215" lon="9.848981900140643">
        <ele>5.42</ele>
        <time>2017-04-09T11:25:38Z</time>
      </trkpt>
      <trkpt lat="44.03731738217175" lon="9.848981229588389">
        <ele>5.42</ele>
        <time>2017-04-09T11:26:06Z</time>
      </trkpt>
      <trkpt lat="44.037310341373086" lon="9.848989611491561">
        <ele>5.42</ele>
        <time>2017-04-09T11:26:30Z</time>
      </trkpt>
      <trkpt lat="44.037322159856558" lon="9.848994137719274">
        <ele>5.42</ele>
        <time>2017-04-09T11:26:53Z</time>
      </trkpt>
      <trkpt lat="44.037335989996791" lon="9.849007800221443">
        <ele>5.91</ele>
        <time>2017-04-09T11:27:22Z</time>
      </trkpt>
      <trkpt lat="44.037322998046875" lon="9.849005788564682">
        <ele>5.91</ele>
        <time>2017-04-09T11:27:49Z</time>
      </trkpt>
      <trkpt lat="44.037308664992452" lon="9.84898860566318">
        <ele>6.39</ele>
        <time>2017-04-09T11:28:19Z</time>
      </trkpt>
      <trkpt lat="44.037294248118997" lon="9.848964801058173">
        <ele>6.39</ele>
        <time>2017-04-09T11:28:37Z</time>
      </trkpt>
      <trkpt lat="44.03729491867125" lon="9.84897100366652">
        <ele>6.39</ele>
        <time>2017-04-09T11:28:57Z</time>
      </trkpt>
      <trkpt lat="44.037294499576092" lon="9.848962621763349">
        <ele>6.39</ele>
        <time>2017-04-09T11:29:22Z</time>
      </trkpt>
      <trkpt lat="44.037292907014489" lon="9.848966980352998">
        <ele>6.39</ele>
        <time>2017-04-09T11:29:44Z</time>
      </trkpt>
      <trkpt lat="44.037299863994122" lon="9.848973685875535">
        <ele>5.91</ele>
        <time>2017-04-09T11:30:13Z</time>
      </trkpt>
      <trkpt lat="44.037298522889614" lon="9.848975697532296">
        <ele>6.39</ele>
        <time>2017-04-09T11:30:28Z</time>
      </trkpt>
      <trkpt lat="44.037284022197127" lon="9.848964801058173">
        <ele>5.91</ele>
        <time>2017-04-09T11:30:50Z</time>
      </trkpt>
      <trkpt lat="44.037289302796125" lon="9.848969914019108">
        <ele>6.39</ele>
        <time>2017-04-09T11:31:13Z</time>
      </trkpt>
      <trkpt lat="44.037287710234523" lon="9.848963627591729">
        <ele>6.39</ele>
        <time>2017-04-09T11:31:37Z</time>
      </trkpt>
      <trkpt lat="44.03728804551065" lon="9.848964717239142">
        <ele>5.91</ele>
        <time>2017-04-09T11:32:02Z</time>
      </trkpt>
      <trkpt lat="44.037291230633855" lon="9.848939571529627">
        <ele>5.91</ele>
        <time>2017-04-09T11:32:22Z</time>
      </trkpt>
      <trkpt lat="44.037282764911652" lon="9.84895633533597">
        <ele>5.91</ele>
        <time>2017-04-09T11:32:53Z</time>
      </trkpt>
      <trkpt lat="44.037292404100299" lon="9.848967650905252">
        <ele>5.42</ele>
        <time>2017-04-09T11:33:21Z</time>
      </trkpt>
      <trkpt lat="44.037283603101969" lon="9.848961783573031">
        <ele>5.91</ele>
        <time>2017-04-09T11:33:46Z</time>
      </trkpt>
      <trkpt lat="44.037290560081601" lon="9.848958598449826">
        <ele>5.91</ele>
        <time>2017-04-09T11:34:10Z</time>
      </trkpt>
      <trkpt lat="44.03729978017509" lon="9.848967986181378">
        <ele>5.91</ele>
        <time>2017-04-09T11:34:38Z</time>
      </trkpt>
      <trkpt lat="44.037291062995791" lon="9.848946696147323">
        <ele>6.39</ele>
        <time>2017-04-09T11:35:01Z</time>
      </trkpt>
      <trkpt lat="44.037290727719665" lon="9.848943762481213">
        <ele>5.91</ele>
        <time>2017-04-09T11:35:24Z</time>
      </trkpt>
      <trkpt lat="44.037295756861567" lon="9.848956670612097">
        <ele>5.91</ele>
        <time>2017-04-09T11:35:53Z</time>
      </trkpt>
      <trkpt lat="44.037280669435859" lon="9.848961867392063">
        <ele>5.91</ele>
        <time>2017-04-09T11:36:19Z</time>
      </trkpt>
      <trkpt lat="44.037277987226844" lon="9.848963543772697">
        <ele>5.91</ele>
        <time>2017-04-09T11:36:36Z</time>
      </trkpt>
      <trkpt lat="44.037293242290616" lon="9.848938649520278">
        <ele>5.91</ele>
        <time>2017-04-09T11:37:05Z</time>
      </trkpt>
      <trkpt lat="44.037282429635525" lon="9.848968656733632">
        <ele>6.39</ele>
        <time>2017-04-09T11:37:38Z</time>
      </trkpt>
      <trkpt lat="44.037293745204806" lon="9.84895633533597">
        <ele>5.91</ele>
        <time>2017-04-09T11:38:11Z</time>
      </trkpt>
      <trkpt lat="44.037270443513989" lon="9.848963124677539">
        <ele>6.39</ele>
        <time>2017-04-09T11:38:30Z</time>
      </trkpt>
      <trkpt lat="44.037273377180099" lon="9.848967399448156">
        <ele>7.35</ele>
        <time>2017-04-09T11:38:39Z</time>
      </trkpt>
      <trkpt lat="44.03728268109262" lon="9.848959855735302">
        <ele>6.87</ele>
        <time>2017-04-09T11:38:53Z</time>
      </trkpt>
      <trkpt lat="44.037273209542036" lon="9.84895390458405">
        <ele>6.87</ele>
        <time>2017-04-09T11:39:07Z</time>
      </trkpt>
      <trkpt lat="44.037275305017829" lon="9.848982319235802">
        <ele>6.87</ele>
        <time>2017-04-09T11:39:19Z</time>
      </trkpt>
      <trkpt lat="44.037301959469914" lon="9.84898860566318">
        <ele>7.83</ele>
        <time>2017-04-09T11:39:30Z</time>
      </trkpt>
      <trkpt lat="44.037320986390114" lon="9.849040489643812">
        <ele>7.83</ele>
        <time>2017-04-09T11:39:40Z</time>
      </trkpt>
      <trkpt lat="44.03734085150063" lon="9.849072676151991">
        <ele>7.35</ele>
        <time>2017-04-09T11:39:46Z</time>
      </trkpt>
      <trkpt lat="44.037340683862567" lon="9.849053313955665">
        <ele>7.35</ele>
        <time>2017-04-09T11:39:55Z</time>
      </trkpt>
      <trkpt lat="44.037344539538026" lon="9.849073262885213">
        <ele>6.39</ele>
        <time>2017-04-09T11:40:04Z</time>
      </trkpt>
      <trkpt lat="44.037344120442867" lon="9.84903110191226">
        <ele>7.35</ele>
        <time>2017-04-09T11:40:09Z</time>
      </trkpt>
      <trkpt lat="44.037355436012149" lon="9.849001178517938">
        <ele>7.83</ele>
        <time>2017-04-09T11:40:17Z</time>
      </trkpt>
      <trkpt lat="44.037360046058893" lon="9.848971171304584">
        <ele>7.83</ele>
        <time>2017-04-09T11:40:20Z</time>
      </trkpt>
      <trkpt lat="44.037380246445537" lon="9.848943930119276">
        <ele>7.83</ele>
        <time>2017-04-09T11:40:29Z</time>
      </trkpt>
      <trkpt lat="44.037345545366406" lon="9.848883161321282">
        <ele>8.789999999999999</ele>
        <time>2017-04-09T11:40:39Z</time>
      </trkpt>
      <trkpt lat="44.03734671883285" lon="9.848854243755341">
        <ele>8.789999999999999</ele>
        <time>2017-04-09T11:40:55Z</time>
      </trkpt>
      <trkpt lat="44.037301205098629" lon="9.848770927637816">
        <ele>8.310000000000001</ele>
        <time>2017-04-09T11:41:06Z</time>
      </trkpt>
      <trkpt lat="44.037315705791116" lon="9.848778890445828">
        <ele>8.310000000000001</ele>
        <time>2017-04-09T11:41:12Z</time>
      </trkpt>
      <trkpt lat="44.037369266152382" lon="9.848867487162352">
        <ele>8.789999999999999</ele>
        <time>2017-04-09T11:41:22Z</time>
      </trkpt>
      <trkpt lat="44.037413354963064" lon="9.848914090543985">
        <ele>8.789999999999999</ele>
        <time>2017-04-09T11:41:29Z</time>
      </trkpt>
      <trkpt lat="44.037455264478922" lon="9.848943846300244">
        <ele>9.27</ele>
        <time>2017-04-09T11:41:39Z</time>
      </trkpt>
      <trkpt lat="44.037464903667569" lon="9.848973518237472">
        <ele>9.27</ele>
        <time>2017-04-09T11:41:49Z</time>
      </trkpt>
      <trkpt lat="44.037444703280926" lon="9.848954072222114">
        <ele>9.27</ele>
        <time>2017-04-09T11:42:00Z</time>
      </trkpt>
      <trkpt lat="44.037420395761728" lon="9.848935715854168">
        <ele>8.789999999999999</ele>
        <time>2017-04-09T11:42:24Z</time>
      </trkpt>
      <trkpt lat="44.037433052435517" lon="9.848951306194067">
        <ele>8.789999999999999</ele>
        <time>2017-04-09T11:42:31Z</time>
      </trkpt>
      <trkpt lat="44.037478817626834" lon="9.848938649520278">
        <ele>8.789999999999999</ele>
        <time>2017-04-09T11:42:38Z</time>
      </trkpt>
      <trkpt lat="44.037512429058552" lon="9.848945857957006">
        <ele>9.27</ele>
        <time>2017-04-09T11:42:49Z</time>
      </trkpt>
      <trkpt lat="44.037537826225162" lon="9.848942505195737">
        <ele>9.27</ele>
        <time>2017-04-09T11:43:01Z</time>
      </trkpt>
      <trkpt lat="44.037533970549703" lon="9.848953988403082">
        <ele>7.83</ele>
        <time>2017-04-09T11:43:20Z</time>
      </trkpt>
      <trkpt lat="44.037521732971072" lon="9.848956586793065">
        <ele>7.35</ele>
        <time>2017-04-09T11:43:33Z</time>
      </trkpt>
      <trkpt lat="44.037521984428167" lon="9.848935464397073">
        <ele>7.83</ele>
        <time>2017-04-09T11:43:51Z</time>
      </trkpt>
      <trkpt lat="44.037524750456214" lon="9.848936889320612">
        <ele>7.83</ele>
        <time>2017-04-09T11:44:08Z</time>
      </trkpt>
      <trkpt lat="44.037529025226831" lon="9.848943008109927">
        <ele>7.83</ele>
        <time>2017-04-09T11:44:24Z</time>
      </trkpt>
      <trkpt lat="44.037530198693275" lon="9.848943175747991">
        <ele>7.83</ele>
        <time>2017-04-09T11:44:45Z</time>
      </trkpt>
      <trkpt lat="44.037530450150371" lon="9.848945690318942">
        <ele>8.310000000000001</ele>
        <time>2017-04-09T11:45:03Z</time>
      </trkpt>
      <trkpt lat="44.037559702992439" lon="9.848945857957006">
        <ele>8.789999999999999</ele>
        <time>2017-04-09T11:45:11Z</time>
      </trkpt>
      <trkpt lat="44.037647377699614" lon="9.848954491317272">
        <ele>9.27</ele>
        <time>2017-04-09T11:45:24Z</time>
      </trkpt>
      <trkpt lat="44.037701273337007" lon="9.848948707804084">
        <ele>8.310000000000001</ele>
        <time>2017-04-09T11:45:35Z</time>
      </trkpt>
      <trkpt lat="44.037718288600445" lon="9.848951306194067">
        <ele>8.789999999999999</ele>
        <time>2017-04-09T11:45:37Z</time>
      </trkpt>
      <trkpt lat="44.037828594446182" lon="9.848976451903582">
        <ele>8.789999999999999</ele>
        <time>2017-04-09T11:45:49Z</time>
      </trkpt>
      <trkpt lat="44.037855751812458" lon="9.848972763866186">
        <ele>8.789999999999999</ele>
        <time>2017-04-09T11:46:01Z</time>
      </trkpt>
      <trkpt lat="44.037923142313957" lon="9.848962118849158">
        <ele>8.310000000000001</ele>
        <time>2017-04-09T11:46:19Z</time>
      </trkpt>
      <trkpt lat="44.03801123611629" lon="9.848945522680879">
        <ele>7.35</ele>
        <time>2017-04-09T11:46:29Z</time>
      </trkpt>
      <trkpt lat="44.03816663660109" lon="9.84887964092195">
        <ele>6.87</ele>
        <time>2017-04-09T11:46:44Z</time>
      </trkpt>
      <trkpt lat="44.038184741511941" lon="9.848897578194737">
        <ele>6.87</ele>
        <time>2017-04-09T11:46:46Z</time>
      </trkpt>
      <trkpt lat="44.038209551945329" lon="9.848978044465184">
        <ele>6.39</ele>
        <time>2017-04-09T11:46:51Z</time>
      </trkpt>
      <trkpt lat="44.038244085386395" lon="9.849009225144982">
        <ele>5.91</ele>
        <time>2017-04-09T11:47:03Z</time>
      </trkpt>
      <trkpt lat="44.038226148113608" lon="9.848962370306253">
        <ele>6.87</ele>
        <time>2017-04-09T11:47:17Z</time>
      </trkpt>
      <trkpt lat="44.038221286609769" lon="9.848900679498911">
        <ele>7.35</ele>
        <time>2017-04-09T11:47:21Z</time>
      </trkpt>
      <trkpt lat="44.03820376843214" lon="9.848757432773709">
        <ele>7.35</ele>
        <time>2017-04-09T11:47:31Z</time>
      </trkpt>
      <trkpt lat="44.038205444812775" lon="9.848730945959687">
        <ele>7.35</ele>
        <time>2017-04-09T11:47:33Z</time>
      </trkpt>
      <trkpt lat="44.038223465904593" lon="9.8486387450248">
        <ele>6.87</ele>
        <time>2017-04-09T11:47:39Z</time>
      </trkpt>
      <trkpt lat="44.038245175033808" lon="9.848513687029481">
        <ele>6.87</ele>
        <time>2017-04-09T11:47:49Z</time>
      </trkpt>
      <trkpt lat="44.038309380412102" lon="9.848450571298599">
        <ele>6.39</ele>
        <time>2017-04-09T11:47:57Z</time>
      </trkpt>
      <trkpt lat="44.038421865552664" lon="9.848400363698602">
        <ele>5.91</ele>
        <time>2017-04-09T11:48:08Z</time>
      </trkpt>
      <trkpt lat="44.038495374843478" lon="9.848320567980409">
        <ele>6.87</ele>
        <time>2017-04-09T11:48:18Z</time>
      </trkpt>
      <trkpt lat="44.038584139198065" lon="9.848263068124652">
        <ele>8.789999999999999</ele>
        <time>2017-04-09T11:48:29Z</time>
      </trkpt>
      <trkpt lat="44.038593862205744" lon="9.848232641816139">
        <ele>8.789999999999999</ele>
        <time>2017-04-09T11:48:41Z</time>
      </trkpt>
      <trkpt lat="44.038586737588048" lon="9.848166340962052">
        <ele>9.27</ele>
        <time>2017-04-09T11:48:53Z</time>
      </trkpt>
      <trkpt lat="44.038603585213423" lon="9.848159551620483">
        <ele>9.27</ele>
        <time>2017-04-09T11:49:03Z</time>
      </trkpt>
      <trkpt lat="44.038599142804742" lon="9.848172627389431">
        <ele>8.789999999999999</ele>
        <time>2017-04-09T11:49:19Z</time>
      </trkpt>
      <trkpt lat="44.038645410910249" lon="9.848078163340688">
        <ele>10.23</ele>
        <time>2017-04-09T11:49:35Z</time>
      </trkpt>
      <trkpt lat="44.038583636283875" lon="9.848087970167399">
        <ele>11.67</ele>
        <time>2017-04-09T11:49:56Z</time>
      </trkpt>
      <trkpt lat="44.038638370111585" lon="9.848014125600457">
        <ele>13.119999999999999</ele>
        <time>2017-04-09T11:50:12Z</time>
      </trkpt>
      <trkpt lat="44.038666700944304" lon="9.847988309338689">
        <ele>14.56</ele>
        <time>2017-04-09T11:50:25Z</time>
      </trkpt>
      <trkpt lat="44.038697881624103" lon="9.847988979890943">
        <ele>16</ele>
        <time>2017-04-09T11:50:37Z</time>
      </trkpt>
      <trkpt lat="44.038692433387041" lon="9.847886553034186">
        <ele>18.399999999999999</ele>
        <time>2017-04-09T11:50:49Z</time>
      </trkpt>
      <trkpt lat="44.038710203021765" lon="9.847854617983103">
        <ele>19.84</ele>
        <time>2017-04-09T11:51:04Z</time>
      </trkpt>
      <trkpt lat="44.038755381479859" lon="9.847870795056224">
        <ele>21.77</ele>
        <time>2017-04-09T11:51:17Z</time>
      </trkpt>
      <trkpt lat="44.038758985698223" lon="9.847783455625176">
        <ele>23.210000000000001</ele>
        <time>2017-04-09T11:51:30Z</time>
      </trkpt>
      <trkpt lat="44.038804667070508" lon="9.847756046801806">
        <ele>25.609999999999999</ele>
        <time>2017-04-09T11:51:41Z</time>
      </trkpt>
      <trkpt lat="44.03881112113595" lon="9.847736936062574">
        <ele>26.57</ele>
        <time>2017-04-09T11:51:56Z</time>
      </trkpt>
      <trkpt lat="44.038819586858153" lon="9.847730901092291">
        <ele>26.57</ele>
        <time>2017-04-09T11:52:13Z</time>
      </trkpt>
      <trkpt lat="44.0388516895473" lon="9.847739618271589">
        <ele>27.050000000000001</ele>
        <time>2017-04-09T11:52:28Z</time>
      </trkpt>
      <trkpt lat="44.038870465010405" lon="9.847736684605479">
        <ele>28.02</ele>
        <time>2017-04-09T11:52:38Z</time>
      </trkpt>
      <trkpt lat="44.038926959037781" lon="9.847727715969086">
        <ele>28.5</ele>
        <time>2017-04-09T11:52:59Z</time>
      </trkpt>
      <trkpt lat="44.03893182054162" lon="9.847722100093961">
        <ele>29.460000000000001</ele>
        <time>2017-04-09T11:53:12Z</time>
      </trkpt>
      <trkpt lat="44.038958726450801" lon="9.847707767039537">
        <ele>29.940000000000001</ele>
        <time>2017-04-09T11:53:26Z</time>
      </trkpt>
      <trkpt lat="44.038965096697211" lon="9.847718244418502">
        <ele>30.420000000000002</ele>
        <time>2017-04-09T11:53:42Z</time>
      </trkpt>
      <trkpt lat="44.038999965414405" lon="9.847709191963077">
        <ele>30.899999999999999</ele>
        <time>2017-04-09T11:54:02Z</time>
      </trkpt>
      <trkpt lat="44.039008934050798" lon="9.847735846415162">
        <ele>30.899999999999999</ele>
        <time>2017-04-09T11:54:21Z</time>
      </trkpt>
      <trkpt lat="44.039024775847793" lon="9.847721429541707">
        <ele>31.379999999999999</ele>
        <time>2017-04-09T11:54:40Z</time>
      </trkpt>
      <trkpt lat="44.039033241569996" lon="9.84770885668695">
        <ele>32.340000000000003</ele>
        <time>2017-04-09T11:54:54Z</time>
      </trkpt>
      <trkpt lat="44.039075234904885" lon="9.847691087052226">
        <ele>34.259999999999998</ele>
        <time>2017-04-09T11:55:06Z</time>
      </trkpt>
      <trkpt lat="44.039076156914234" lon="9.847685052081943">
        <ele>35.229999999999997</ele>
        <time>2017-04-09T11:55:19Z</time>
      </trkpt>
      <trkpt lat="44.039076492190361" lon="9.847675580531359">
        <ele>35.229999999999997</ele>
        <time>2017-04-09T11:55:34Z</time>
      </trkpt>
      <trkpt lat="44.039063835516572" lon="9.847664348781109">
        <ele>36.189999999999998</ele>
        <time>2017-04-09T11:55:47Z</time>
      </trkpt>
      <trkpt lat="44.039033073931932" lon="9.847670719027519">
        <ele>38.109999999999999</ele>
        <time>2017-04-09T11:55:57Z</time>
      </trkpt>
      <trkpt lat="44.03898948803544" lon="9.847653284668922">
        <ele>39.07</ele>
        <time>2017-04-09T11:56:06Z</time>
      </trkpt>
      <trkpt lat="44.038981022313237" lon="9.847576590254903">
        <ele>41.469999999999999</ele>
        <time>2017-04-09T11:56:18Z</time>
      </trkpt>
      <trkpt lat="44.039009856060147" lon="9.847544068470597">
        <ele>41.950000000000003</ele>
        <time>2017-04-09T11:56:31Z</time>
      </trkpt>
      <trkpt lat="44.039047574624419" lon="9.847493609413505">
        <ele>43.880000000000003</ele>
        <time>2017-04-09T11:56:42Z</time>
      </trkpt>
      <trkpt lat="44.039052687585354" lon="9.847397636622191">
        <ele>46.280000000000001</ele>
        <time>2017-04-09T11:56:54Z</time>
      </trkpt>
      <trkpt lat="44.03903441503644" lon="9.847306273877621">
        <ele>47.719999999999999</ele>
        <time>2017-04-09T11:57:05Z</time>
      </trkpt>
      <trkpt lat="44.039058722555637" lon="9.847280289977789">
        <ele>48.68</ele>
        <time>2017-04-09T11:57:15Z</time>
      </trkpt>
      <trkpt lat="44.039066769182682" lon="9.847260927781463">
        <ele>50.130000000000003</ele>
        <time>2017-04-09T11:57:25Z</time>
      </trkpt>
      <trkpt lat="44.039084957912564" lon="9.847233602777124">
        <ele>51.090000000000003</ele>
        <time>2017-04-09T11:57:35Z</time>
      </trkpt>
      <trkpt lat="44.03909744694829" lon="9.847224466502667">
        <ele>52.049999999999997</ele>
        <time>2017-04-09T11:57:46Z</time>
      </trkpt>
      <trkpt lat="44.039124436676502" lon="9.847248941659927">
        <ele>52.530000000000001</ele>
        <time>2017-04-09T11:57:58Z</time>
      </trkpt>
      <trkpt lat="44.039132986217737" lon="9.847222873941064">
        <ele>54.450000000000003</ele>
        <time>2017-04-09T11:58:11Z</time>
      </trkpt>
      <trkpt lat="44.039180930703878" lon="9.847234692424536">
        <ele>56.859999999999999</ele>
        <time>2017-04-09T11:58:25Z</time>
      </trkpt>
      <trkpt lat="44.039206495508552" lon="9.847211306914687">
        <ele>58.780000000000001</ele>
        <time>2017-04-09T11:58:34Z</time>
      </trkpt>
      <trkpt lat="44.039238933473825" lon="9.847182305529714">
        <ele>61.18</ele>
        <time>2017-04-09T11:58:43Z</time>
      </trkpt>
      <trkpt lat="44.039244884625077" lon="9.847183311358094">
        <ele>62.619999999999997</ele>
        <time>2017-04-09T11:58:53Z</time>
      </trkpt>
      <trkpt lat="44.039227869361639" lon="9.847167553380132">
        <ele>62.619999999999997</ele>
        <time>2017-04-09T11:59:00Z</time>
      </trkpt>
      <trkpt lat="44.039274388924241" lon="9.847120866179466">
        <ele>64.069999999999993</ele>
        <time>2017-04-09T11:59:10Z</time>
      </trkpt>
      <trkpt lat="44.039292577654123" lon="9.847076442092657">
        <ele>66.469999999999999</ele>
        <time>2017-04-09T11:59:17Z</time>
      </trkpt>
      <trkpt lat="44.039326859638095" lon="9.847124889492989">
        <ele>68.870000000000005</ele>
        <time>2017-04-09T11:59:26Z</time>
      </trkpt>
      <trkpt lat="44.039390813559294" lon="9.847177695482969">
        <ele>70.310000000000002</ele>
        <time>2017-04-09T11:59:38Z</time>
      </trkpt>
      <trkpt lat="44.039444290101528" lon="9.847137546166778">
        <ele>73.200000000000003</ele>
        <time>2017-04-09T11:59:48Z</time>
      </trkpt>
      <trkpt lat="44.03948837891221" lon="9.847180545330048">
        <ele>76.079999999999998</ele>
        <time>2017-04-09T11:59:59Z</time>
      </trkpt>
      <trkpt lat="44.039502879604697" lon="9.847183478996158">
        <ele>77.040000000000006</ele>
        <time>2017-04-09T12:00:11Z</time>
      </trkpt>
      <trkpt lat="44.039487456902862" lon="9.847186747938395">
        <ele>77.040000000000006</ele>
        <time>2017-04-09T12:00:26Z</time>
      </trkpt>
      <trkpt lat="44.039497515186667" lon="9.847210887819529">
        <ele>77.040000000000006</ele>
        <time>2017-04-09T12:00:39Z</time>
      </trkpt>
      <trkpt lat="44.039484020322561" lon="9.847236452624202">
        <ele>77.040000000000006</ele>
        <time>2017-04-09T12:00:59Z</time>
      </trkpt>
      <trkpt lat="44.039507489651442" lon="9.847221951931715">
        <ele>77.040000000000006</ele>
        <time>2017-04-09T12:01:12Z</time>
      </trkpt>
      <trkpt lat="44.039500365033746" lon="9.84721977263689">
        <ele>76.560000000000002</ele>
        <time>2017-04-09T12:01:28Z</time>
      </trkpt>
      <trkpt lat="44.0395113453269" lon="9.847202254459262">
        <ele>77.040000000000006</ele>
        <time>2017-04-09T12:01:47Z</time>
      </trkpt>
      <trkpt lat="44.039519727230072" lon="9.847209881991148">
        <ele>77.519999999999996</ele>
        <time>2017-04-09T12:02:04Z</time>
      </trkpt>
      <trkpt lat="44.039506400004029" lon="9.847212648019195">
        <ele>77.040000000000006</ele>
        <time>2017-04-09T12:02:22Z</time>
      </trkpt>
      <trkpt lat="44.039505394175649" lon="9.847221784293652">
        <ele>77.040000000000006</ele>
        <time>2017-04-09T12:02:39Z</time>
      </trkpt>
      <trkpt lat="44.039500700309873" lon="9.847219102084637">
        <ele>77.040000000000006</ele>
        <time>2017-04-09T12:03:02Z</time>
      </trkpt>
      <trkpt lat="44.039500029757619" lon="9.847207954153419">
        <ele>77.040000000000006</ele>
        <time>2017-04-09T12:03:19Z</time>
      </trkpt>
      <trkpt lat="44.039501370862126" lon="9.847208373248577">
        <ele>77.040000000000006</ele>
        <time>2017-04-09T12:03:32Z</time>
      </trkpt>
      <trkpt lat="44.039500784128904" lon="9.847205439582467">
        <ele>77.040000000000006</ele>
        <time>2017-04-09T12:03:43Z</time>
      </trkpt>
      <trkpt lat="44.0395044721663" lon="9.847211893647909">
        <ele>76.560000000000002</ele>
        <time>2017-04-09T12:04:02Z</time>
      </trkpt>
      <trkpt lat="44.039507322013378" lon="9.847215916961432">
        <ele>77.040000000000006</ele>
        <time>2017-04-09T12:04:20Z</time>
      </trkpt>
      <trkpt lat="44.039504555985332" lon="9.847225556150079">
        <ele>77.040000000000006</ele>
        <time>2017-04-09T12:04:36Z</time>
      </trkpt>
      <trkpt lat="44.039507573470473" lon="9.847237793728709">
        <ele>77.040000000000006</ele>
        <time>2017-04-09T12:05:00Z</time>
      </trkpt>
      <trkpt lat="44.03951377607882" lon="9.847232010215521">
        <ele>77.040000000000006</ele>
        <time>2017-04-09T12:05:19Z</time>
      </trkpt>
      <trkpt lat="44.039562810212374" lon="9.847266208380461">
        <ele>77.519999999999996</ele>
        <time>2017-04-09T12:05:28Z</time>
      </trkpt>
      <trkpt lat="44.039611928164959" lon="9.847281714901328">
        <ele>79.930000000000007</ele>
        <time>2017-04-09T12:05:35Z</time>
      </trkpt>
      <trkpt lat="44.039695160463452" lon="9.847326138988137">
        <ele>81.370000000000005</ele>
        <time>2017-04-09T12:05:46Z</time>
      </trkpt>
      <trkpt lat="44.039785852655768" lon="9.847361091524363">
        <ele>82.329999999999998</ele>
        <time>2017-04-09T12:05:58Z</time>
      </trkpt>
      <trkpt lat="44.039895655587316" lon="9.847394954413176">
        <ele>83.290000000000006</ele>
        <time>2017-04-09T12:06:10Z</time>
      </trkpt>
      <trkpt lat="44.040019791573286" lon="9.847438707947731">
        <ele>83.769999999999996</ele>
        <time>2017-04-09T12:06:23Z</time>
      </trkpt>
      <trkpt lat="44.040113668888807" lon="9.847475923597813">
        <ele>81.849999999999994</ele>
        <time>2017-04-09T12:06:33Z</time>
      </trkpt>
      <trkpt lat="44.04022422619164" lon="9.847469301894307">
        <ele>81.370000000000005</ele>
        <time>2017-04-09T12:06:44Z</time>
      </trkpt>
      <trkpt lat="44.040273260325193" lon="9.847469804808497">
        <ele>80.890000000000001</ele>
        <time>2017-04-09T12:06:49Z</time>
      </trkpt>
      <trkpt lat="44.040345763787627" lon="9.847498890012503">
        <ele>80.890000000000001</ele>
        <time>2017-04-09T12:06:55Z</time>
      </trkpt>
      <trkpt lat="44.040409466251731" lon="9.847660912200809">
        <ele>80.890000000000001</ele>
        <time>2017-04-09T12:07:08Z</time>
      </trkpt>
      <trkpt lat="44.040427152067423" lon="9.847722351551056">
        <ele>80.890000000000001</ele>
        <time>2017-04-09T12:07:12Z</time>
      </trkpt>
      <trkpt lat="44.040451291948557" lon="9.847932318225503">
        <ele>80.409999999999997</ele>
        <time>2017-04-09T12:07:25Z</time>
      </trkpt>
      <trkpt lat="44.04048029333353" lon="9.848118983209133">
        <ele>80.409999999999997</ele>
        <time>2017-04-09T12:07:39Z</time>
      </trkpt>
      <trkpt lat="44.040516335517168" lon="9.848298942670226">
        <ele>81.370000000000005</ele>
        <time>2017-04-09T12:07:52Z</time>
      </trkpt>
      <trkpt lat="44.040569979697466" lon="9.848478315398097">
        <ele>81.849999999999994</ele>
        <time>2017-04-09T12:08:03Z</time>
      </trkpt>
      <trkpt lat="44.040677435696125" lon="9.848660202696919">
        <ele>82.329999999999998</ele>
        <time>2017-04-09T12:08:16Z</time>
      </trkpt>
      <trkpt lat="44.040794111788273" lon="9.848771430552006">
        <ele>82.810000000000002</ele>
        <time>2017-04-09T12:08:29Z</time>
      </trkpt>
      <trkpt lat="44.04087164439261" lon="9.848839910700917">
        <ele>82.810000000000002</ele>
        <time>2017-04-09T12:08:36Z</time>
      </trkpt>
      <trkpt lat="44.040908440947533" lon="9.848865894600749">
        <ele>82.810000000000002</ele>
        <time>2017-04-09T12:08:39Z</time>
      </trkpt>
      <trkpt lat="44.041035259142518" lon="9.848962957039475">
        <ele>82.810000000000002</ele>
        <time>2017-04-09T12:08:50Z</time>
      </trkpt>
      <trkpt lat="44.041115725412965" lon="9.849008386954665">
        <ele>83.769999999999996</ele>
        <time>2017-04-09T12:09:00Z</time>
      </trkpt>
      <trkpt lat="44.04119124636054" lon="9.849058678373694">
        <ele>84.730000000000004</ele>
        <time>2017-04-09T12:09:12Z</time>
      </trkpt>
      <trkpt lat="44.041267773136497" lon="9.849130427464843">
        <ele>85.689999999999998</ele>
        <time>2017-04-09T12:09:23Z</time>
      </trkpt>
      <trkpt lat="44.041314208880067" lon="9.849199745804071">
        <ele>86.659999999999997</ele>
        <time>2017-04-09T12:09:32Z</time>
      </trkpt>
      <trkpt lat="44.041370451450348" lon="9.849251294508576">
        <ele>88.099999999999994</ele>
        <time>2017-04-09T12:09:40Z</time>
      </trkpt>
      <trkpt lat="44.041427783668041" lon="9.849315080791712">
        <ele>90.019999999999996</ele>
        <time>2017-04-09T12:09:49Z</time>
      </trkpt>
      <trkpt lat="44.041486205533147" lon="9.84940099529922">
        <ele>90.980000000000004</ele>
        <time>2017-04-09T12:10:00Z</time>
      </trkpt>
      <trkpt lat="44.04154839925468" lon="9.849515743553639">
        <ele>91.939999999999998</ele>
        <time>2017-04-09T12:10:09Z</time>
      </trkpt>
      <trkpt lat="44.041616460308433" lon="9.849631329998374">
        <ele>92.420000000000002</ele>
        <time>2017-04-09T12:10:20Z</time>
      </trkpt>
      <trkpt lat="44.041673960164189" lon="9.849737109616399">
        <ele>94.349999999999994</ele>
        <time>2017-04-09T12:10:32Z</time>
      </trkpt>
      <trkpt lat="44.041751408949494" lon="9.849841631948948">
        <ele>95.790000000000006</ele>
        <time>2017-04-09T12:10:44Z</time>
      </trkpt>
      <trkpt lat="44.041760629042983" lon="9.849858982488513">
        <ele>96.269999999999996</ele>
        <time>2017-04-09T12:10:46Z</time>
      </trkpt>
      <trkpt lat="44.041802873834968" lon="9.850000301375985">
        <ele>96.75</ele>
        <time>2017-04-09T12:10:57Z</time>
      </trkpt>
      <trkpt lat="44.041847884654999" lon="9.850192833691835">
        <ele>95.790000000000006</ele>
        <time>2017-04-09T12:11:09Z</time>
      </trkpt>
      <trkpt lat="44.041898176074028" lon="9.85039483755827">
        <ele>95.790000000000006</ele>
        <time>2017-04-09T12:11:21Z</time>
      </trkpt>
      <trkpt lat="44.041916113346815" lon="9.850423000752926">
        <ele>95.790000000000006</ele>
        <time>2017-04-09T12:11:23Z</time>
      </trkpt>
      <trkpt lat="44.041962465271354" lon="9.850515956059098">
        <ele>96.269999999999996</ele>
        <time>2017-04-09T12:11:33Z</time>
      </trkpt>
      <trkpt lat="44.041968835517764" lon="9.850528528913856">
        <ele>96.269999999999996</ele>
        <time>2017-04-09T12:11:34Z</time>
      </trkpt>
      <trkpt lat="44.041995322331786" lon="9.850554848089814">
        <ele>96.269999999999996</ele>
        <time>2017-04-09T12:11:37Z</time>
      </trkpt>
      <trkpt lat="44.042045613750815" lon="9.850637074559927">
        <ele>95.790000000000006</ele>
        <time>2017-04-09T12:11:43Z</time>
      </trkpt>
      <trkpt lat="44.042161284014583" lon="9.850752577185631">
        <ele>96.269999999999996</ele>
        <time>2017-04-09T12:11:56Z</time>
      </trkpt>
      <trkpt lat="44.042209312319756" lon="9.850801108404994">
        <ele>95.790000000000006</ele>
        <time>2017-04-09T12:12:03Z</time>
      </trkpt>
      <trkpt lat="44.042337303981185" lon="9.850922226905823">
        <ele>95.310000000000002</ele>
        <time>2017-04-09T12:12:16Z</time>
      </trkpt>
      <trkpt lat="44.042462361976504" lon="9.85108089633286">
        <ele>94.829999999999998</ele>
        <time>2017-04-09T12:12:31Z</time>
      </trkpt>
      <trkpt lat="44.042536877095699" lon="9.851188603788614">
        <ele>94.349999999999994</ele>
        <time>2017-04-09T12:12:42Z</time>
      </trkpt>
      <trkpt lat="44.042600328102708" lon="9.851293796673417">
        <ele>94.349999999999994</ele>
        <time>2017-04-09T12:12:53Z</time>
      </trkpt>
      <trkpt lat="44.042636202648282" lon="9.851352386176586">
        <ele>94.829999999999998</ele>
        <time>2017-04-09T12:13:04Z</time>
      </trkpt>
      <trkpt lat="44.042657576501369" lon="9.851372418925166">
        <ele>94.829999999999998</ele>
        <time>2017-04-09T12:13:13Z</time>
      </trkpt>
      <trkpt lat="44.042708287015557" lon="9.851453639566898">
        <ele>94.829999999999998</ele>
        <time>2017-04-09T12:13:24Z</time>
      </trkpt>
      <trkpt lat="44.042771318927407" lon="9.851536201313138">
        <ele>95.310000000000002</ele>
        <time>2017-04-09T12:13:36Z</time>
      </trkpt>
      <trkpt lat="44.042860921472311" lon="9.851633431389928">
        <ele>95.310000000000002</ele>
        <time>2017-04-09T12:13:50Z</time>
      </trkpt>
      <trkpt lat="44.042926132678986" lon="9.851718842983246">
        <ele>95.790000000000006</ele>
        <time>2017-04-09T12:14:02Z</time>
      </trkpt>
      <trkpt lat="44.042937951162457" lon="9.85173367895186">
        <ele>96.269999999999996</ele>
        <time>2017-04-09T12:14:04Z</time>
      </trkpt>
      <trkpt lat="44.043040797114372" lon="9.851885223761201">
        <ele>96.75</ele>
        <time>2017-04-09T12:14:17Z</time>
      </trkpt>
      <trkpt lat="44.043093100190163" lon="9.851938616484404">
        <ele>97.709999999999994</ele>
        <time>2017-04-09T12:14:28Z</time>
      </trkpt>
      <trkpt lat="44.043125621974468" lon="9.851969042792916">
        <ele>97.709999999999994</ele>
        <time>2017-04-09T12:14:38Z</time>
      </trkpt>
      <trkpt lat="44.043153785169125" lon="9.852000726386905">
        <ele>98.189999999999998</ele>
        <time>2017-04-09T12:14:48Z</time>
      </trkpt>
      <trkpt lat="44.043165352195501" lon="9.852020340040326">
        <ele>98.189999999999998</ele>
        <time>2017-04-09T12:14:59Z</time>
      </trkpt>
      <trkpt lat="44.043158814311028" lon="9.852055879309773">
        <ele>98.189999999999998</ele>
        <time>2017-04-09T12:15:10Z</time>
      </trkpt>
      <trkpt lat="44.043167112395167" lon="9.85208990983665">
        <ele>98.189999999999998</ele>
        <time>2017-04-09T12:15:20Z</time>
      </trkpt>
      <trkpt lat="44.043175661936402" lon="9.852102063596249">
        <ele>97.709999999999994</ele>
        <time>2017-04-09T12:15:34Z</time>
      </trkpt>
      <trkpt lat="44.043214889243245" lon="9.852150762453675">
        <ele>97.709999999999994</ele>
        <time>2017-04-09T12:15:46Z</time>
      </trkpt>
      <trkpt lat="44.043223522603512" lon="9.852167023345828">
        <ele>97.230000000000004</ele>
        <time>2017-04-09T12:16:01Z</time>
      </trkpt>
      <trkpt lat="44.043257301673293" lon="9.852172555401921">
        <ele>98.189999999999998</ele>
        <time>2017-04-09T12:16:10Z</time>
      </trkpt>
      <trkpt lat="44.043251099064946" lon="9.852190492674708">
        <ele>98.189999999999998</ele>
        <time>2017-04-09T12:16:22Z</time>
      </trkpt>
      <trkpt lat="44.043226540088654" lon="9.852212704718113">
        <ele>96.75</ele>
        <time>2017-04-09T12:16:33Z</time>
      </trkpt>
      <trkpt lat="44.043192844837904" lon="9.852248160168529">
        <ele>94.829999999999998</ele>
        <time>2017-04-09T12:16:42Z</time>
      </trkpt>
      <trkpt lat="44.043198879808187" lon="9.852220080792904">
        <ele>94.829999999999998</ele>
        <time>2017-04-09T12:16:51Z</time>
      </trkpt>
      <trkpt lat="44.043231066316366" lon="9.852167023345828">
        <ele>98.189999999999998</ele>
        <time>2017-04-09T12:17:02Z</time>
      </trkpt>
      <trkpt lat="44.043258894234896" lon="9.852171549573541">
        <ele>98.670000000000002</ele>
        <time>2017-04-09T12:17:10Z</time>
      </trkpt>
      <trkpt lat="44.043259732425213" lon="9.852172136306763">
        <ele>97.230000000000004</ele>
        <time>2017-04-09T12:17:12Z</time>
      </trkpt>
      <trkpt lat="44.043236346915364" lon="9.852185044437647">
        <ele>97.709999999999994</ele>
        <time>2017-04-09T12:17:33Z</time>
      </trkpt>
      <trkpt lat="44.043224360793829" lon="9.852197365835309">
        <ele>97.709999999999994</ele>
        <time>2017-04-09T12:17:45Z</time>
      </trkpt>
      <trkpt lat="44.043241459876299" lon="9.852205915376544">
        <ele>97.709999999999994</ele>
        <time>2017-04-09T12:18:02Z</time>
      </trkpt>
      <trkpt lat="44.04325420036912" lon="9.852187894284725">
        <ele>98.189999999999998</ele>
        <time>2017-04-09T12:18:18Z</time>
      </trkpt>
      <trkpt lat="44.043245986104012" lon="9.852197784930468">
        <ele>98.189999999999998</ele>
        <time>2017-04-09T12:18:36Z</time>
      </trkpt>
      <trkpt lat="44.043246656656265" lon="9.852211447432637">
        <ele>98.189999999999998</ele>
        <time>2017-04-09T12:18:54Z</time>
      </trkpt>
      <trkpt lat="44.043275322765112" lon="9.852197617292404">
        <ele>98.189999999999998</ele>
        <time>2017-04-09T12:19:04Z</time>
      </trkpt>
      <trkpt lat="44.043262666091323" lon="9.852198958396912">
        <ele>97.709999999999994</ele>
        <time>2017-04-09T12:19:20Z</time>
      </trkpt>
      <trkpt lat="44.043218409642577" lon="9.852234330028296">
        <ele>95.790000000000006</ele>
        <time>2017-04-09T12:19:32Z</time>
      </trkpt>
      <trkpt lat="44.043203573673964" lon="9.852262074127793">
        <ele>94.829999999999998</ele>
        <time>2017-04-09T12:19:41Z</time>
      </trkpt>
      <trkpt lat="44.043194437399507" lon="9.852316807955504">
        <ele>92.900000000000006</ele>
        <time>2017-04-09T12:19:52Z</time>
      </trkpt>
      <trkpt lat="44.04320533387363" lon="9.852375397458673">
        <ele>92.420000000000002</ele>
        <time>2017-04-09T12:20:03Z</time>
      </trkpt>
      <trkpt lat="44.043200053274632" lon="9.852439602836967">
        <ele>90.5</ele>
        <time>2017-04-09T12:20:15Z</time>
      </trkpt>
      <trkpt lat="44.04319703578949" lon="9.85255460254848">
        <ele>89.060000000000002</ele>
        <time>2017-04-09T12:20:30Z</time>
      </trkpt>
      <trkpt lat="44.043162167072296" lon="9.852634314447641">
        <ele>87.140000000000001</ele>
        <time>2017-04-09T12:20:43Z</time>
      </trkpt>
      <trkpt lat="44.043153701350093" lon="9.852689299732447">
        <ele>86.180000000000007</ele>
        <time>2017-04-09T12:20:53Z</time>
      </trkpt>
      <trkpt lat="44.043128723278642" lon="9.852730538696051">
        <ele>85.209999999999994</ele>
        <time>2017-04-09T12:21:03Z</time>
      </trkpt>
      <trkpt lat="44.043128807097673" lon="9.852749733254314">
        <ele>85.209999999999994</ele>
        <time>2017-04-09T12:21:22Z</time>
      </trkpt>
      <trkpt lat="44.043124699965119" lon="9.852766748517752">
        <ele>84.25</ele>
        <time>2017-04-09T12:21:24Z</time>
      </trkpt>
      <trkpt lat="44.043112713843584" lon="9.852783847600222">
        <ele>83.769999999999996</ele>
        <time>2017-04-09T12:21:26Z</time>
      </trkpt>
      <trkpt lat="44.043096704408526" lon="9.852819638326764">
        <ele>83.290000000000006</ele>
        <time>2017-04-09T12:21:29Z</time>
      </trkpt>
      <trkpt lat="44.043110953643918" lon="9.852893985807896">
        <ele>82.810000000000002</ele>
        <time>2017-04-09T12:21:38Z</time>
      </trkpt>
      <trkpt lat="44.043107852339745" lon="9.852952575311065">
        <ele>81.849999999999994</ele>
        <time>2017-04-09T12:21:47Z</time>
      </trkpt>
      <trkpt lat="44.043140038847923" lon="9.852966321632266">
        <ele>79.930000000000007</ele>
        <time>2017-04-09T12:21:57Z</time>
      </trkpt>
      <trkpt lat="44.043176751583815" lon="9.853006387129426">
        <ele>79.450000000000003</ele>
        <time>2017-04-09T12:22:07Z</time>
      </trkpt>
      <trkpt lat="44.043175745755434" lon="9.852989874780178">
        <ele>78.969999999999999</ele>
        <time>2017-04-09T12:22:19Z</time>
      </trkpt>
      <trkpt lat="44.043198376893997" lon="9.85301686450839">
        <ele>78.969999999999999</ele>
        <time>2017-04-09T12:22:32Z</time>
      </trkpt>
      <trkpt lat="44.043208183720708" lon="9.85306229442358">
        <ele>77.519999999999996</ele>
        <time>2017-04-09T12:22:46Z</time>
      </trkpt>
      <trkpt lat="44.043186642229557" lon="9.853093307465315">
        <ele>76.560000000000002</ele>
        <time>2017-04-09T12:23:01Z</time>
      </trkpt>
      <trkpt lat="44.043185217306018" lon="9.853110574185848">
        <ele>76.560000000000002</ele>
        <time>2017-04-09T12:23:14Z</time>
      </trkpt>
      <trkpt lat="44.043204328045249" lon="9.853136306628585">
        <ele>75.599999999999994</ele>
        <time>2017-04-09T12:23:26Z</time>
      </trkpt>
      <trkpt lat="44.043197873979807" lon="9.853164637461305">
        <ele>75.120000000000005</ele>
        <time>2017-04-09T12:23:38Z</time>
      </trkpt>
      <trkpt lat="44.043163759633899" lon="9.853208055719733">
        <ele>74.640000000000001</ele>
        <time>2017-04-09T12:23:49Z</time>
      </trkpt>
      <trkpt lat="44.043160993605852" lon="9.853219203650951">
        <ele>73.680000000000007</ele>
        <time>2017-04-09T12:24:00Z</time>
      </trkpt>
      <trkpt lat="44.043180523440242" lon="9.853227753192186">
        <ele>73.200000000000003</ele>
        <time>2017-04-09T12:24:12Z</time>
      </trkpt>
      <trkpt lat="44.04319753870368" lon="9.853246863931418">
        <ele>73.200000000000003</ele>
        <time>2017-04-09T12:24:24Z</time>
      </trkpt>
      <trkpt lat="44.043208099901676" lon="9.853252815082669">
        <ele>73.200000000000003</ele>
        <time>2017-04-09T12:24:42Z</time>
      </trkpt>
      <trkpt lat="44.043215727433562" lon="9.853275278583169">
        <ele>71.760000000000005</ele>
        <time>2017-04-09T12:24:51Z</time>
      </trkpt>
      <trkpt lat="44.043232910335064" lon="9.853292545303702">
        <ele>70.790000000000006</ele>
        <time>2017-04-09T12:25:01Z</time>
      </trkpt>
      <trkpt lat="44.043225031346083" lon="9.853323809802532">
        <ele>69.349999999999994</ele>
        <time>2017-04-09T12:25:10Z</time>
      </trkpt>
      <trkpt lat="44.043192090466619" lon="9.853376112878323">
        <ele>67.909999999999997</ele>
        <time>2017-04-09T12:25:19Z</time>
      </trkpt>
      <trkpt lat="44.043181529268622" lon="9.853417603299022">
        <ele>66.950000000000003</ele>
        <time>2017-04-09T12:25:29Z</time>
      </trkpt>
      <trkpt lat="44.043147163465619" lon="9.853456495329738">
        <ele>65.989999999999995</ele>
        <time>2017-04-09T12:25:40Z</time>
      </trkpt>
      <trkpt lat="44.043132159858942" lon="9.853477366268635">
        <ele>65.510000000000005</ele>
        <time>2017-04-09T12:25:51Z</time>
      </trkpt>
      <trkpt lat="44.043133417144418" lon="9.853531010448933">
        <ele>63.579999999999998</ele>
        <time>2017-04-09T12:26:02Z</time>
      </trkpt>
      <trkpt lat="44.043161831796169" lon="9.853599071502686">
        <ele>61.659999999999997</ele>
        <time>2017-04-09T12:26:15Z</time>
      </trkpt>
      <trkpt lat="44.043216817080975" lon="9.853605441749096">
        <ele>60.700000000000003</ele>
        <time>2017-04-09T12:26:28Z</time>
      </trkpt>
      <trkpt lat="44.043276999145746" lon="9.853588510304689">
        <ele>59.259999999999998</ele>
        <time>2017-04-09T12:26:42Z</time>
      </trkpt>
      <trkpt lat="44.043348161503673" lon="9.853569064289331">
        <ele>57.82</ele>
        <time>2017-04-09T12:26:57Z</time>
      </trkpt>
      <trkpt lat="44.043423347175121" lon="9.853510307148099">
        <ele>55.409999999999997</ele>
        <time>2017-04-09T12:27:13Z</time>
      </trkpt>
      <trkpt lat="44.043523594737053" lon="9.853451550006867">
        <ele>53.969999999999999</ele>
        <time>2017-04-09T12:27:28Z</time>
      </trkpt>
      <trkpt lat="44.043549746274948" lon="9.853389859199524">
        <ele>53.969999999999999</ele>
        <time>2017-04-09T12:27:38Z</time>
      </trkpt>
      <trkpt lat="44.043589727953076" lon="9.853352727368474">
        <ele>54.93</ele>
        <time>2017-04-09T12:27:45Z</time>
      </trkpt>
      <trkpt lat="44.043603725731373" lon="9.853361444547772">
        <ele>53.490000000000002</ele>
        <time>2017-04-09T12:27:52Z</time>
      </trkpt>
      <trkpt lat="44.043616214767098" lon="9.853356080129743">
        <ele>54.450000000000003</ele>
        <time>2017-04-09T12:28:12Z</time>
      </trkpt>
      <trkpt lat="44.043641863390803" lon="9.853327497839928">
        <ele>54.450000000000003</ele>
        <time>2017-04-09T12:28:19Z</time>
      </trkpt>
      <trkpt lat="44.043705901131034" lon="9.853271758183837">
        <ele>54.450000000000003</ele>
        <time>2017-04-09T12:28:30Z</time>
      </trkpt>
      <trkpt lat="44.043723838403821" lon="9.853279888629913">
        <ele>54.450000000000003</ele>
        <time>2017-04-09T12:28:39Z</time>
      </trkpt>
      <trkpt lat="44.043733142316341" lon="9.853276703506708">
        <ele>54.450000000000003</ele>
        <time>2017-04-09T12:28:58Z</time>
      </trkpt>
      <trkpt lat="44.043748648837209" lon="9.85328022390604">
        <ele>54.450000000000003</ele>
        <time>2017-04-09T12:29:17Z</time>
      </trkpt>
      <trkpt lat="44.043757449835539" lon="9.853275362402201">
        <ele>54.450000000000003</ele>
        <time>2017-04-09T12:29:40Z</time>
      </trkpt>
      <trkpt lat="44.043746804818511" lon="9.853265723213553">
        <ele>54.450000000000003</ele>
        <time>2017-04-09T12:29:55Z</time>
      </trkpt>
      <trkpt lat="44.043735824525356" lon="9.853282906115055">
        <ele>54.93</ele>
        <time>2017-04-09T12:30:16Z</time>
      </trkpt>
      <trkpt lat="44.043711936101317" lon="9.853244600817561">
        <ele>54.450000000000003</ele>
        <time>2017-04-09T12:30:35Z</time>
      </trkpt>
      <trkpt lat="44.043723670765758" lon="9.853224819526076">
        <ele>54.450000000000003</ele>
        <time>2017-04-09T12:30:44Z</time>
      </trkpt>
      <trkpt lat="44.04373062774539" lon="9.853204870596528">
        <ele>53.969999999999999</ele>
        <time>2017-04-09T12:30:55Z</time>
      </trkpt>
      <trkpt lat="44.043737249448895" lon="9.853157512843609">
        <ele>54.93</ele>
        <time>2017-04-09T12:31:05Z</time>
      </trkpt>
      <trkpt lat="44.043765496462584" lon="9.853137563914061">
        <ele>54.93</ele>
        <time>2017-04-09T12:31:16Z</time>
      </trkpt>
      <trkpt lat="44.043810004368424" lon="9.853095319122076">
        <ele>54.450000000000003</ele>
        <time>2017-04-09T12:31:27Z</time>
      </trkpt>
      <trkpt lat="44.043796258047223" lon="9.853095570579171">
        <ele>54.93</ele>
        <time>2017-04-09T12:31:37Z</time>
      </trkpt>
      <trkpt lat="44.043792402371764" lon="9.853095738217235">
        <ele>54.450000000000003</ele>
        <time>2017-04-09T12:31:54Z</time>
      </trkpt>
      <trkpt lat="44.043798521161079" lon="9.853084674105048">
        <ele>54.450000000000003</ele>
        <time>2017-04-09T12:32:07Z</time>
      </trkpt>
      <trkpt lat="44.043800448998809" lon="9.853089703246951">
        <ele>54.450000000000003</ele>
        <time>2017-04-09T12:32:22Z</time>
      </trkpt>
      <trkpt lat="44.043805059045553" lon="9.853095905855298">
        <ele>54.450000000000003</ele>
        <time>2017-04-09T12:32:33Z</time>
      </trkpt>
      <trkpt lat="44.043802293017507" lon="9.853093642741442">
        <ele>54.93</ele>
        <time>2017-04-09T12:32:51Z</time>
      </trkpt>
      <trkpt lat="44.043801454827189" lon="9.853091211989522">
        <ele>54.450000000000003</ele>
        <time>2017-04-09T12:33:06Z</time>
      </trkpt>
      <trkpt lat="44.043813440948725" lon="9.853099593892694">
        <ele>54.93</ele>
        <time>2017-04-09T12:33:21Z</time>
      </trkpt>
      <trkpt lat="44.043807573616505" lon="9.853092133998871">
        <ele>54.93</ele>
        <time>2017-04-09T12:33:30Z</time>
      </trkpt>
      <trkpt lat="44.043801035732031" lon="9.853097163140774">
        <ele>54.93</ele>
        <time>2017-04-09T12:33:43Z</time>
      </trkpt>
      <trkpt lat="44.04379952698946" lon="9.853103281930089">
        <ele>54.93</ele>
        <time>2017-04-09T12:33:59Z</time>
      </trkpt>
      <trkpt lat="44.043797850608826" lon="9.853093391284347">
        <ele>54.93</ele>
        <time>2017-04-09T12:34:12Z</time>
      </trkpt>
      <trkpt lat="44.043798353523016" lon="9.853095235303044">
        <ele>55.409999999999997</ele>
        <time>2017-04-09T12:34:23Z</time>
      </trkpt>
      <trkpt lat="44.043809333816171" lon="9.853104455396533">
        <ele>55.409999999999997</ele>
        <time>2017-04-09T12:34:35Z</time>
      </trkpt>
      <trkpt lat="44.04381905682385" lon="9.853074783459306">
        <ele>55.409999999999997</ele>
        <time>2017-04-09T12:34:49Z</time>
      </trkpt>
      <trkpt lat="44.043816793709993" lon="9.853063384070993">
        <ele>55.409999999999997</ele>
        <time>2017-04-09T12:35:05Z</time>
      </trkpt>
      <trkpt lat="44.043863648548722" lon="9.8530129250139">
        <ele>55.890000000000001</ele>
        <time>2017-04-09T12:35:16Z</time>
      </trkpt>
      <trkpt lat="44.043898433446884" lon="9.85295525752008">
        <ele>55.409999999999997</ele>
        <time>2017-04-09T12:35:21Z</time>
      </trkpt>
      <trkpt lat="44.043981581926346" lon="9.852851573377848">
        <ele>55.409999999999997</ele>
        <time>2017-04-09T12:35:31Z</time>
      </trkpt>
      <trkpt lat="44.04406389221549" lon="9.852764820680022">
        <ele>54.93</ele>
        <time>2017-04-09T12:35:42Z</time>
      </trkpt>
      <trkpt lat="44.044134300202131" lon="9.852678319439292">
        <ele>54.93</ele>
        <time>2017-04-09T12:35:54Z</time>
      </trkpt>
      <trkpt lat="44.044194398447871" lon="9.852606570348144">
        <ele>55.409999999999997</ele>
        <time>2017-04-09T12:36:03Z</time>
      </trkpt>
      <trkpt lat="44.044259358197451" lon="9.8525086697191">
        <ele>55.409999999999997</ele>
        <time>2017-04-09T12:36:13Z</time>
      </trkpt>
      <trkpt lat="44.044365976005793" lon="9.852373050525785">
        <ele>54.93</ele>
        <time>2017-04-09T12:36:27Z</time>
      </trkpt>
      <trkpt lat="44.044466810300946" lon="9.852192839607596">
        <ele>54.93</ele>
        <time>2017-04-09T12:36:40Z</time>
      </trkpt>
      <trkpt lat="44.044491285458207" lon="9.852103823795915">
        <ele>54.93</ele>
        <time>2017-04-09T12:36:50Z</time>
      </trkpt>
      <trkpt lat="44.044506875798106" lon="9.851992763578892">
        <ele>54.93</ele>
        <time>2017-04-09T12:36:59Z</time>
      </trkpt>
      <trkpt lat="44.044600669294596" lon="9.851752957329154">
        <ele>54.93</ele>
        <time>2017-04-09T12:37:10Z</time>
      </trkpt>
      <trkpt lat="44.044607626274228" lon="9.851737366989255">
        <ele>54.93</ele>
        <time>2017-04-09T12:37:11Z</time>
      </trkpt>
      <trkpt lat="44.044695049524307" lon="9.851513737812638">
        <ele>54.93</ele>
        <time>2017-04-09T12:37:23Z</time>
      </trkpt>
      <trkpt lat="44.044703934341669" lon="9.851481718942523">
        <ele>54.93</ele>
        <time>2017-04-09T12:37:25Z</time>
      </trkpt>
      <trkpt lat="44.044742658734322" lon="9.85137945972383">
        <ele>54.93</ele>
        <time>2017-04-09T12:37:32Z</time>
      </trkpt>
      <trkpt lat="44.044818766415119" lon="9.851221963763237">
        <ele>54.93</ele>
        <time>2017-04-09T12:37:44Z</time>
      </trkpt>
      <trkpt lat="44.044913230463862" lon="9.851142335683107">
        <ele>54.93</ele>
        <time>2017-04-09T12:37:54Z</time>
      </trkpt>
      <trkpt lat="44.045058069750667" lon="9.851055582985282">
        <ele>54.93</ele>
        <time>2017-04-09T12:38:07Z</time>
      </trkpt>
      <trkpt lat="44.04515597037971" lon="9.851027335971594">
        <ele>54.93</ele>
        <time>2017-04-09T12:38:18Z</time>
      </trkpt>
      <trkpt lat="44.045292679220438" lon="9.851018786430359">
        <ele>54.93</ele>
        <time>2017-04-09T12:38:30Z</time>
      </trkpt>
      <trkpt lat="44.045421509072185" lon="9.851005962118506">
        <ele>54.93</ele>
        <time>2017-04-09T12:38:40Z</time>
      </trkpt>
      <trkpt lat="44.045586297288537" lon="9.850987102836371">
        <ele>54.450000000000003</ele>
        <time>2017-04-09T12:38:52Z</time>
      </trkpt>
      <trkpt lat="44.045739015564322" lon="9.850969081744552">
        <ele>53.969999999999999</ele>
        <time>2017-04-09T12:39:04Z</time>
      </trkpt>
      <trkpt lat="44.045882849022746" lon="9.850941086187959">
        <ele>53.969999999999999</ele>
        <time>2017-04-09T12:39:15Z</time>
      </trkpt>
      <trkpt lat="44.046050235629082" lon="9.850920299068093">
        <ele>53.969999999999999</ele>
        <time>2017-04-09T12:39:28Z</time>
      </trkpt>
      <trkpt lat="44.046199349686503" lon="9.850905127823353">
        <ele>53.969999999999999</ele>
        <time>2017-04-09T12:39:41Z</time>
      </trkpt>
      <trkpt lat="44.046364305540919" lon="9.850922394543886">
        <ele>53.969999999999999</ele>
        <time>2017-04-09T12:39:54Z</time>
      </trkpt>
      <trkpt lat="44.04647670686245" lon="9.850939828902483">
        <ele>53.490000000000002</ele>
        <time>2017-04-09T12:40:04Z</time>
      </trkpt>
      <trkpt lat="44.046611990779638" lon="9.850969081744552">
        <ele>53.490000000000002</ele>
        <time>2017-04-09T12:40:16Z</time>
      </trkpt>
      <trkpt lat="44.046645937487483" lon="9.850970422849059">
        <ele>53.490000000000002</ele>
        <time>2017-04-09T12:40:20Z</time>
      </trkpt>
      <trkpt lat="44.046708717942238" lon="9.850969836115837">
        <ele>53.009999999999998</ele>
        <time>2017-04-09T12:40:26Z</time>
      </trkpt>
      <trkpt lat="44.046774264425039" lon="9.850992551073432">
        <ele>53.009999999999998</ele>
        <time>2017-04-09T12:40:31Z</time>
      </trkpt>
      <trkpt lat="44.046847438439727" lon="9.85099196434021">
        <ele>53.009999999999998</ele>
        <time>2017-04-09T12:40:37Z</time>
      </trkpt>
      <trkpt lat="44.047023877501488" lon="9.851019540801644">
        <ele>53.009999999999998</ele>
        <time>2017-04-09T12:40:51Z</time>
      </trkpt>
      <trkpt lat="44.047168884426355" lon="9.851057343184948">
        <ele>52.530000000000001</ele>
        <time>2017-04-09T12:41:03Z</time>
      </trkpt>
      <trkpt lat="44.047319423407316" lon="9.851080225780606">
        <ele>52.530000000000001</ele>
        <time>2017-04-09T12:41:15Z</time>
      </trkpt>
      <trkpt lat="44.047465100884438" lon="9.851102102547884">
        <ele>52.530000000000001</ele>
        <time>2017-04-09T12:41:28Z</time>
      </trkpt>
      <trkpt lat="44.047605497762561" lon="9.851116603240371">
        <ele>52.530000000000001</ele>
        <time>2017-04-09T12:41:40Z</time>
      </trkpt>
      <trkpt lat="44.047780679538846" lon="9.851116016507149">
        <ele>52.530000000000001</ele>
        <time>2017-04-09T12:41:54Z</time>
      </trkpt>
      <trkpt lat="44.047925770282745" lon="9.851105287671089">
        <ele>52.049999999999997</ele>
        <time>2017-04-09T12:42:07Z</time>
      </trkpt>
      <trkpt lat="44.047985868528485" lon="9.851079974323511">
        <ele>52.049999999999997</ele>
        <time>2017-04-09T12:42:18Z</time>
      </trkpt>
      <trkpt lat="44.048004979267716" lon="9.851077627390623">
        <ele>52.049999999999997</ele>
        <time>2017-04-09T12:42:20Z</time>
      </trkpt>
      <trkpt lat="44.048142861574888" lon="9.851060276851058">
        <ele>52.049999999999997</ele>
        <time>2017-04-09T12:42:32Z</time>
      </trkpt>
      <trkpt lat="44.048300106078386" lon="9.851051056757569">
        <ele>51.57</ele>
        <time>2017-04-09T12:42:44Z</time>
      </trkpt>
      <trkpt lat="44.048469169065356" lon="9.851019876077771">
        <ele>51.57</ele>
        <time>2017-04-09T12:42:57Z</time>
      </trkpt>
      <trkpt lat="44.048619959503412" lon="9.85104133374989">
        <ele>51.090000000000003</ele>
        <time>2017-04-09T12:43:11Z</time>
      </trkpt>
      <trkpt lat="44.048656672239304" lon="9.851085338741541">
        <ele>51.57</ele>
        <time>2017-04-09T12:43:18Z</time>
      </trkpt>
      <trkpt lat="44.048680644482374" lon="9.85109313391149">
        <ele>51.090000000000003</ele>
        <time>2017-04-09T12:43:20Z</time>
      </trkpt>
      <trkpt lat="44.048702185973525" lon="9.851118614897132">
        <ele>51.57</ele>
        <time>2017-04-09T12:43:30Z</time>
      </trkpt>
      <trkpt lat="44.048700174316764" lon="9.85112096183002">
        <ele>51.57</ele>
        <time>2017-04-09T12:43:41Z</time>
      </trkpt>
      <trkpt lat="44.048705035820603" lon="9.85112632624805">
        <ele>51.57</ele>
        <time>2017-04-09T12:43:54Z</time>
      </trkpt>
      <trkpt lat="44.048696402460337" lon="9.851134372875094">
        <ele>51.57</ele>
        <time>2017-04-09T12:44:05Z</time>
      </trkpt>
      <trkpt lat="44.048706460744143" lon="9.851127834990621">
        <ele>51.090000000000003</ele>
        <time>2017-04-09T12:44:15Z</time>
      </trkpt>
      <trkpt lat="44.048692798241973" lon="9.851147197186947">
        <ele>51.57</ele>
        <time>2017-04-09T12:44:25Z</time>
      </trkpt>
      <trkpt lat="44.048700593411922" lon="9.851142084226012">
        <ele>51.57</ele>
        <time>2017-04-09T12:44:35Z</time>
      </trkpt>
      <trkpt lat="44.048685841262341" lon="9.851151555776596">
        <ele>51.57</ele>
        <time>2017-04-09T12:44:50Z</time>
      </trkpt>
      <trkpt lat="44.048691457137465" lon="9.851154573261738">
        <ele>51.57</ele>
        <time>2017-04-09T12:45:04Z</time>
      </trkpt>
      <trkpt lat="44.048692546784878" lon="9.851160189136863">
        <ele>51.57</ele>
        <time>2017-04-09T12:45:16Z</time>
      </trkpt>
      <trkpt lat="44.048687685281038" lon="9.85116932541132">
        <ele>51.57</ele>
        <time>2017-04-09T12:45:35Z</time>
      </trkpt>
      <trkpt lat="44.048683997243643" lon="9.851181730628014">
        <ele>51.57</ele>
        <time>2017-04-09T12:45:45Z</time>
      </trkpt>
      <trkpt lat="44.048681817948818" lon="9.851179383695126">
        <ele>52.049999999999997</ele>
        <time>2017-04-09T12:45:56Z</time>
      </trkpt>
      <trkpt lat="44.048683997243643" lon="9.851181311532855">
        <ele>52.530000000000001</ele>
        <time>2017-04-09T12:46:12Z</time>
      </trkpt>
      <trkpt lat="44.04868190176785" lon="9.851187262684107">
        <ele>52.049999999999997</ele>
        <time>2017-04-09T12:46:23Z</time>
      </trkpt>
      <trkpt lat="44.048682153224945" lon="9.851186173036695">
        <ele>52.049999999999997</ele>
        <time>2017-04-09T12:46:32Z</time>
      </trkpt>
      <trkpt lat="44.048683913424611" lon="9.851188603788614">
        <ele>51.57</ele>
        <time>2017-04-09T12:46:44Z</time>
      </trkpt>
      <trkpt lat="44.048680812120438" lon="9.851181227713823">
        <ele>52.049999999999997</ele>
        <time>2017-04-09T12:46:57Z</time>
      </trkpt>
      <trkpt lat="44.04868240468204" lon="9.851183323189616">
        <ele>51.57</ele>
        <time>2017-04-09T12:47:06Z</time>
      </trkpt>
      <trkpt lat="44.048724062740803" lon="9.851242583245039">
        <ele>51.57</ele>
        <time>2017-04-09T12:47:17Z</time>
      </trkpt>
      <trkpt lat="44.048893041908741" lon="9.851314583793283">
        <ele>51.57</ele>
        <time>2017-04-09T12:47:31Z</time>
      </trkpt>
      <trkpt lat="44.048911146819592" lon="9.851332604885101">
        <ele>51.57</ele>
        <time>2017-04-09T12:47:33Z</time>
      </trkpt>
      <trkpt lat="44.048961354419589" lon="9.851396307349205">
        <ele>51.090000000000003</ele>
        <time>2017-04-09T12:47:39Z</time>
      </trkpt>
      <trkpt lat="44.04895456507802" lon="9.851440815255046">
        <ele>50.609999999999999</ele>
        <time>2017-04-09T12:47:41Z</time>
      </trkpt>
      <trkpt lat="44.048989601433277" lon="9.851541817188263">
        <ele>49.649999999999999</ele>
        <time>2017-04-09T12:47:49Z</time>
      </trkpt>
      <trkpt lat="44.049045592546463" lon="9.851567465811968">
        <ele>49.159999999999997</ele>
        <time>2017-04-09T12:47:53Z</time>
      </trkpt>
      <trkpt lat="44.049152797088027" lon="9.851679028943181">
        <ele>48.68</ele>
        <time>2017-04-09T12:48:02Z</time>
      </trkpt>
      <trkpt lat="44.049269556999207" lon="9.851847924292088">
        <ele>47.240000000000002</ele>
        <time>2017-04-09T12:48:14Z</time>
      </trkpt>
      <trkpt lat="44.049298139289021" lon="9.851917074993253">
        <ele>47.240000000000002</ele>
        <time>2017-04-09T12:48:19Z</time>
      </trkpt>
      <trkpt lat="44.049399895593524" lon="9.852105919271708">
        <ele>45.799999999999997</ele>
        <time>2017-04-09T12:48:33Z</time>
      </trkpt>
      <trkpt lat="44.049396039918065" lon="9.85216761007905">
        <ele>45.32</ele>
        <time>2017-04-09T12:48:36Z</time>
      </trkpt>
      <trkpt lat="44.049432752653956" lon="9.8522824421525">
        <ele>45.799999999999997</ele>
        <time>2017-04-09T12:48:43Z</time>
      </trkpt>
      <trkpt lat="44.049462340772152" lon="9.852404063567519">
        <ele>43.880000000000003</ele>
        <time>2017-04-09T12:48:50Z</time>
      </trkpt>
      <trkpt lat="44.04949838295579" lon="9.852586956694722">
        <ele>42.920000000000002</ele>
        <time>2017-04-09T12:49:02Z</time>
      </trkpt>
      <trkpt lat="44.049551859498024" lon="9.852835731580854">
        <ele>41.469999999999999</ele>
        <time>2017-04-09T12:49:17Z</time>
      </trkpt>
      <trkpt lat="44.049581363797188" lon="9.852923573926091">
        <ele>40.990000000000002</ele>
        <time>2017-04-09T12:49:23Z</time>
      </trkpt>
      <trkpt lat="44.049709942191839" lon="9.853105712682009">
        <ele>39.549999999999997</ele>
        <time>2017-04-09T12:49:37Z</time>
      </trkpt>
      <trkpt lat="44.049735674634576" lon="9.853126583620906">
        <ele>39.07</ele>
        <time>2017-04-09T12:49:39Z</time>
      </trkpt>
      <trkpt lat="44.049839274957776" lon="9.853162122890353">
        <ele>38.109999999999999</ele>
        <time>2017-04-09T12:49:50Z</time>
      </trkpt>
      <trkpt lat="44.049893422052264" lon="9.853167571127415">
        <ele>36.189999999999998</ele>
        <time>2017-04-09T12:49:58Z</time>
      </trkpt>
      <trkpt lat="44.050015797838569" lon="9.853194812312722">
        <ele>36.670000000000002</ele>
        <time>2017-04-09T12:50:12Z</time>
      </trkpt>
      <trkpt lat="44.050089726224542" lon="9.85321719199419">
        <ele>35.229999999999997</ele>
        <time>2017-04-09T12:50:22Z</time>
      </trkpt>
      <trkpt lat="44.050177987664938" lon="9.853257844224572">
        <ele>34.740000000000002</ele>
        <time>2017-04-09T12:50:33Z</time>
      </trkpt>
      <trkpt lat="44.050211682915688" lon="9.853272261098027">
        <ele>34.740000000000002</ele>
        <time>2017-04-09T12:50:37Z</time>
      </trkpt>
      <trkpt lat="44.050253508612514" lon="9.85330025665462">
        <ele>34.259999999999998</ele>
        <time>2017-04-09T12:50:42Z</time>
      </trkpt>
      <trkpt lat="44.050339423120022" lon="9.853280056267977">
        <ele>32.82</ele>
        <time>2017-04-09T12:50:54Z</time>
      </trkpt>
      <trkpt lat="44.050429947674274" lon="9.853130104020238">
        <ele>31.859999999999999</ele>
        <time>2017-04-09T12:51:06Z</time>
      </trkpt>
      <trkpt lat="44.050461212173104" lon="9.853055085986853">
        <ele>31.379999999999999</ele>
        <time>2017-04-09T12:51:10Z</time>
      </trkpt>
      <trkpt lat="44.050484765321016" lon="9.852853752672672">
        <ele>30.420000000000002</ele>
        <time>2017-04-09T12:51:24Z</time>
      </trkpt>
      <trkpt lat="44.050467247143388" lon="9.852658789604902">
        <ele>30.420000000000002</ele>
        <time>2017-04-09T12:51:37Z</time>
      </trkpt>
      <trkpt lat="44.05043120495975" lon="9.852380342781544">
        <ele>29.460000000000001</ele>
        <time>2017-04-09T12:51:53Z</time>
      </trkpt>
      <trkpt lat="44.050427097827196" lon="9.852369194850326">
        <ele>29.460000000000001</ele>
        <time>2017-04-09T12:51:59Z</time>
      </trkpt>
      <trkpt lat="44.050364568829536" lon="9.852219326421619">
        <ele>28.5</ele>
        <time>2017-04-09T12:52:11Z</time>
      </trkpt>
      <trkpt lat="44.050250994041562" lon="9.852008018642664">
        <ele>27.050000000000001</ele>
        <time>2017-04-09T12:52:27Z</time>
      </trkpt>
      <trkpt lat="44.050122583284974" lon="9.851830322295427">
        <ele>26.09</ele>
        <time>2017-04-09T12:52:42Z</time>
      </trkpt>
      <trkpt lat="44.05000121332705" lon="9.851624881848693">
        <ele>25.129999999999999</ele>
        <time>2017-04-09T12:52:56Z</time>
      </trkpt>
      <trkpt lat="44.049916975200176" lon="9.851466044783592">
        <ele>25.129999999999999</ele>
        <time>2017-04-09T12:53:07Z</time>
      </trkpt>
      <trkpt lat="44.049889231100678" lon="9.851421033963561">
        <ele>24.649999999999999</ele>
        <time>2017-04-09T12:53:10Z</time>
      </trkpt>
      <trkpt lat="44.049868108704686" lon="9.851338136941195">
        <ele>23.690000000000001</ele>
        <time>2017-04-09T12:53:21Z</time>
      </trkpt>
      <trkpt lat="44.049842040985823" lon="9.851330425590277">
        <ele>23.690000000000001</ele>
        <time>2017-04-09T12:53:27Z</time>
      </trkpt>
      <trkpt lat="44.049813542515039" lon="9.85129589214921">
        <ele>23.690000000000001</ele>
        <time>2017-04-09T12:53:30Z</time>
      </trkpt>
      <trkpt lat="44.049705751240253" lon="9.85111316666007">
        <ele>23.210000000000001</ele>
        <time>2017-04-09T12:53:43Z</time>
      </trkpt>
      <trkpt lat="44.049683958292007" lon="9.851043010130525">
        <ele>22.73</ele>
        <time>2017-04-09T12:53:47Z</time>
      </trkpt>
      <trkpt lat="44.049644311890006" lon="9.850785350427032">
        <ele>22.25</ele>
        <time>2017-04-09T12:54:01Z</time>
      </trkpt>
      <trkpt lat="44.049615059047937" lon="9.850587118417025">
        <ele>22.25</ele>
        <time>2017-04-09T12:54:12Z</time>
      </trkpt>
      <trkpt lat="44.049611706286669" lon="9.850386204198003">
        <ele>20.809999999999999</ele>
        <time>2017-04-09T12:54:23Z</time>
      </trkpt>
      <trkpt lat="44.049620926380157" lon="9.850178919732571">
        <ele>20.809999999999999</ele>
        <time>2017-04-09T12:54:35Z</time>
      </trkpt>
      <trkpt lat="44.049645066261292" lon="9.850162658840418">
        <ele>20.809999999999999</ele>
        <time>2017-04-09T12:54:44Z</time>
      </trkpt>
      <trkpt lat="44.049628050997853" lon="9.850059142336249">
        <ele>20.32</ele>
        <time>2017-04-09T12:54:56Z</time>
      </trkpt>
      <trkpt lat="44.049638863652945" lon="9.849814642220736">
        <ele>19.359999999999999</ele>
        <time>2017-04-09T12:55:10Z</time>
      </trkpt>
      <trkpt lat="44.049650095403194" lon="9.849581206217408">
        <ele>18.879999999999999</ele>
        <time>2017-04-09T12:55:22Z</time>
      </trkpt>
      <trkpt lat="44.049656298011541" lon="9.849464613944292">
        <ele>18.399999999999999</ele>
        <time>2017-04-09T12:55:28Z</time>
      </trkpt>
      <trkpt lat="44.049649089574814" lon="9.849194381386042">
        <ele>18.399999999999999</ele>
        <time>2017-04-09T12:55:43Z</time>
      </trkpt>
      <trkpt lat="44.049652358517051" lon="9.84907359816134">
        <ele>16.960000000000001</ele>
        <time>2017-04-09T12:55:49Z</time>
      </trkpt>
      <trkpt lat="44.049626206979156" lon="9.848881987854838">
        <ele>17.440000000000001</ele>
        <time>2017-04-09T12:56:00Z</time>
      </trkpt>
      <trkpt lat="44.049585219472647" lon="9.848676044493914">
        <ele>16</ele>
        <time>2017-04-09T12:56:12Z</time>
      </trkpt>
      <trkpt lat="44.049497377127409" lon="9.848394580185413">
        <ele>15.52</ele>
        <time>2017-04-09T12:56:29Z</time>
      </trkpt>
      <trkpt lat="44.049414815381169" lon="9.848158126696944">
        <ele>13.6</ele>
        <time>2017-04-09T12:56:44Z</time>
      </trkpt>
      <trkpt lat="44.04932102188468" lon="9.847953608259559">
        <ele>13.119999999999999</ele>
        <time>2017-04-09T12:56:57Z</time>
      </trkpt>
      <trkpt lat="44.049203507602215" lon="9.847768535837531">
        <ele>12.15</ele>
        <time>2017-04-09T12:57:11Z</time>
      </trkpt>
      <trkpt lat="44.049069564789534" lon="9.847564771771431">
        <ele>10.23</ele>
        <time>2017-04-09T12:57:27Z</time>
      </trkpt>
      <trkpt lat="44.048927659168839" lon="9.847409790381789">
        <ele>9.75</ele>
        <time>2017-04-09T12:57:41Z</time>
      </trkpt>
      <trkpt lat="44.048780892044306" lon="9.847266040742397">
        <ele>8.310000000000001</ele>
        <time>2017-04-09T12:57:55Z</time>
      </trkpt>
      <trkpt lat="44.048692295327783" lon="9.847185825929046">
        <ele>8.310000000000001</ele>
        <time>2017-04-09T12:58:06Z</time>
      </trkpt>
      <trkpt lat="44.048672933131456" lon="9.847166463732719">
        <ele>8.789999999999999</ele>
        <time>2017-04-09T12:58:08Z</time>
      </trkpt>
      <trkpt lat="44.048655414953828" lon="9.847096977755427">
        <ele>7.35</ele>
        <time>2017-04-09T12:58:12Z</time>
      </trkpt>
      <trkpt lat="44.048644602298737" lon="9.847067641094327">
        <ele>7.35</ele>
        <time>2017-04-09T12:58:22Z</time>
      </trkpt>
      <trkpt lat="44.048647116869688" lon="9.847054732963443">
        <ele>7.35</ele>
        <time>2017-04-09T12:58:29Z</time>
      </trkpt>
      <trkpt lat="44.048596741631627" lon="9.847026653587818">
        <ele>7.35</ele>
        <time>2017-04-09T12:58:34Z</time>
      </trkpt>
      <trkpt lat="44.048551898449659" lon="9.846996562555432">
        <ele>7.35</ele>
        <time>2017-04-09T12:58:46Z</time>
      </trkpt>
      <trkpt lat="44.048476461321115" lon="9.846983067691326">
        <ele>8.310000000000001</ele>
        <time>2017-04-09T12:58:53Z</time>
      </trkpt>
      <trkpt lat="44.048427594825625" lon="9.846933698281646">
        <ele>6.87</ele>
        <time>2017-04-09T12:58:58Z</time>
      </trkpt>
      <trkpt lat="44.048235146328807" lon="9.846811909228563">
        <ele>6.39</ele>
        <time>2017-04-09T12:59:14Z</time>
      </trkpt>
      <trkpt lat="44.048163816332817" lon="9.846766227856278">
        <ele>7.83</ele>
        <time>2017-04-09T12:59:20Z</time>
      </trkpt>
      <trkpt lat="44.047981258481741" lon="9.846709650009871">
        <ele>6.39</ele>
        <time>2017-04-09T12:59:35Z</time>
      </trkpt>
      <trkpt lat="44.047844214364886" lon="9.846652066335082">
        <ele>6.39</ele>
        <time>2017-04-09T12:59:47Z</time>
      </trkpt>
      <trkpt lat="44.047661991789937" lon="9.846594063565135">
        <ele>5.91</ele>
        <time>2017-04-09T13:00:03Z</time>
      </trkpt>
      <trkpt lat="44.047499047592282" lon="9.846584843471646">
        <ele>6.39</ele>
        <time>2017-04-09T13:00:17Z</time>
      </trkpt>
      <trkpt lat="44.047349262982607" lon="9.84651074744761">
        <ele>5.42</ele>
        <time>2017-04-09T13:00:30Z</time>
      </trkpt>
      <trkpt lat="44.047170141711831" lon="9.846389796584845">
        <ele>5.91</ele>
        <time>2017-04-09T13:00:46Z</time>
      </trkpt>
      <trkpt lat="44.047057321295142" lon="9.846314610913396">
        <ele>5.91</ele>
        <time>2017-04-09T13:00:59Z</time>
      </trkpt>
      <trkpt lat="44.047001246362925" lon="9.846288543194532">
        <ele>5.91</ele>
        <time>2017-04-09T13:01:09Z</time>
      </trkpt>
      <trkpt lat="44.047000994905829" lon="9.84628695063293">
        <ele>5.91</ele>
        <time>2017-04-09T13:01:21Z</time>
      </trkpt>
      <trkpt lat="44.046953469514847" lon="9.846270186826587">
        <ele>5.91</ele>
        <time>2017-04-09T13:01:28Z</time>
      </trkpt>
      <trkpt lat="44.046914661303163" lon="9.846241604536772">
        <ele>5.91</ele>
        <time>2017-04-09T13:01:32Z</time>
      </trkpt>
      <trkpt lat="44.04680410400033" lon="9.846127610653639">
        <ele>5.91</ele>
        <time>2017-04-09T13:01:45Z</time>
      </trkpt>
      <trkpt lat="44.046700419858098" lon="9.845980843529105">
        <ele>5.42</ele>
        <time>2017-04-09T13:01:57Z</time>
      </trkpt>
      <trkpt lat="44.046603105962276" lon="9.845803398638964">
        <ele>5.42</ele>
        <time>2017-04-09T13:02:10Z</time>
      </trkpt>
      <trkpt lat="44.046553149819374" lon="9.84563416801393">
        <ele>5.91</ele>
        <time>2017-04-09T13:02:24Z</time>
      </trkpt>
      <trkpt lat="44.046540576964617" lon="9.845466949045658">
        <ele>5.91</ele>
        <time>2017-04-09T13:02:35Z</time>
      </trkpt>
      <trkpt lat="44.046553820371628" lon="9.845310291275382">
        <ele>5.91</ele>
        <time>2017-04-09T13:02:46Z</time>
      </trkpt>
      <trkpt lat="44.046568907797337" lon="9.845142234116793">
        <ele>5.91</ele>
        <time>2017-04-09T13:02:58Z</time>
      </trkpt>
      <trkpt lat="44.046572763472795" lon="9.844964621588588">
        <ele>5.91</ele>
        <time>2017-04-09T13:03:10Z</time>
      </trkpt>
      <trkpt lat="44.046590197831392" lon="9.84477024525404">
        <ele>6.39</ele>
        <time>2017-04-09T13:03:22Z</time>
      </trkpt>
      <trkpt lat="44.046652056276798" lon="9.844613503664732">
        <ele>6.39</ele>
        <time>2017-04-09T13:03:34Z</time>
      </trkpt>
      <trkpt lat="44.046661360189319" lon="9.84462414868176">
        <ele>5.91</ele>
        <time>2017-04-09T13:03:47Z</time>
      </trkpt>
      <trkpt lat="44.046708131209016" lon="9.844557764008641">
        <ele>5.91</ele>
        <time>2017-04-09T13:04:01Z</time>
      </trkpt>
      <trkpt lat="44.046725146472454" lon="9.844531193375588">
        <ele>6.39</ele>
        <time>2017-04-09T13:04:13Z</time>
      </trkpt>
      <trkpt lat="44.046767977997661" lon="9.844436058774591">
        <ele>6.39</ele>
        <time>2017-04-09T13:04:22Z</time>
      </trkpt>
      <trkpt lat="44.046824723482132" lon="9.84428308904171">
        <ele>6.87</ele>
        <time>2017-04-09T13:04:34Z</time>
      </trkpt>
      <trkpt lat="44.046860681846738" lon="9.844219973310828">
        <ele>7.35</ele>
        <time>2017-04-09T13:04:44Z</time>
      </trkpt>
      <trkpt lat="44.0469282399863" lon="9.844161048531532">
        <ele>7.35</ele>
        <time>2017-04-09T13:04:53Z</time>
      </trkpt>
      <trkpt lat="44.047015327960253" lon="9.844042863696814">
        <ele>7.35</ele>
        <time>2017-04-09T13:05:05Z</time>
      </trkpt>
      <trkpt lat="44.047122029587626" lon="9.843910178169608">
        <ele>7.83</ele>
        <time>2017-04-09T13:05:18Z</time>
      </trkpt>
      <trkpt lat="44.047206100076437" lon="9.843794843181968">
        <ele>7.83</ele>
        <time>2017-04-09T13:05:32Z</time>
      </trkpt>
      <trkpt lat="44.047259408980608" lon="9.843702223151922">
        <ele>7.35</ele>
        <time>2017-04-09T13:05:43Z</time>
      </trkpt>
      <trkpt lat="44.047264689579606" lon="9.843693003058434">
        <ele>7.35</ele>
        <time>2017-04-09T13:05:44Z</time>
      </trkpt>
      <trkpt lat="44.047346161678433" lon="9.843537099659443">
        <ele>7.83</ele>
        <time>2017-04-09T13:05:56Z</time>
      </trkpt>
      <trkpt lat="44.047350939363241" lon="9.843526287004352">
        <ele>7.83</ele>
        <time>2017-04-09T13:05:57Z</time>
      </trkpt>
      <trkpt lat="44.04738605953753" lon="9.843448083847761">
        <ele>7.83</ele>
        <time>2017-04-09T13:06:03Z</time>
      </trkpt>
      <trkpt lat="44.047442637383938" lon="9.843286648392677">
        <ele>7.35</ele>
        <time>2017-04-09T13:06:16Z</time>
      </trkpt>
      <trkpt lat="44.047448839992285" lon="9.843254210427404">
        <ele>8.310000000000001</ele>
        <time>2017-04-09T13:06:19Z</time>
      </trkpt>
      <trkpt lat="44.047459485009313" lon="9.843228310346603">
        <ele>8.310000000000001</ele>
        <time>2017-04-09T13:06:21Z</time>
      </trkpt>
      <trkpt lat="44.047610945999622" lon="9.842961095273495">
        <ele>7.83</ele>
        <time>2017-04-09T13:06:37Z</time>
      </trkpt>
      <trkpt lat="44.047686383128166" lon="9.84277568757534">
        <ele>7.83</ele>
        <time>2017-04-09T13:06:50Z</time>
      </trkpt>
      <trkpt lat="44.047750839963555" lon="9.842631602659822">
        <ele>7.35</ele>
        <time>2017-04-09T13:07:01Z</time>
      </trkpt>
      <trkpt lat="44.047843795269728" lon="9.842452565208077">
        <ele>7.35</ele>
        <time>2017-04-09T13:07:15Z</time>
      </trkpt>
      <trkpt lat="44.047903977334499" lon="9.842263720929623">
        <ele>7.35</ele>
        <time>2017-04-09T13:07:28Z</time>
      </trkpt>
      <trkpt lat="44.047867767512798" lon="9.842039756476879">
        <ele>8.310000000000001</ele>
        <time>2017-04-09T13:07:43Z</time>
      </trkpt>
      <trkpt lat="44.047823678702116" lon="9.84187857247889">
        <ele>6.39</ele>
        <time>2017-04-09T13:07:55Z</time>
      </trkpt>
      <trkpt lat="44.047788307070732" lon="9.841796848922968">
        <ele>4.94</ele>
        <time>2017-04-09T13:08:01Z</time>
      </trkpt>
      <trkpt lat="44.047751175239682" lon="9.841536339372397">
        <ele>4.94</ele>
        <time>2017-04-09T13:08:17Z</time>
      </trkpt>
      <trkpt lat="44.047743799164891" lon="9.841341460123658">
        <ele>5.42</ele>
        <time>2017-04-09T13:08:29Z</time>
      </trkpt>
      <trkpt lat="44.04774815775454" lon="9.841281864792109">
        <ele>4.94</ele>
        <time>2017-04-09T13:08:33Z</time>
      </trkpt>
      <trkpt lat="44.047761987894773" lon="9.841187819838524">
        <ele>5.42</ele>
        <time>2017-04-09T13:08:40Z</time>
      </trkpt>
      <trkpt lat="44.047744050621986" lon="9.841117076575756">
        <ele>5.42</ele>
        <time>2017-04-09T13:08:45Z</time>
      </trkpt>
      <trkpt lat="44.047813536599278" lon="9.840951282531023">
        <ele>5.42</ele>
        <time>2017-04-09T13:08:57Z</time>
      </trkpt>
      <trkpt lat="44.047902133315802" lon="9.840760510414839">
        <ele>5.42</ele>
        <time>2017-04-09T13:09:12Z</time>
      </trkpt>
      <trkpt lat="44.047967847436666" lon="9.840613072738051">
        <ele>5.42</ele>
        <time>2017-04-09T13:09:24Z</time>
      </trkpt>
      <trkpt lat="44.047997184097767" lon="9.84055389650166">
        <ele>4.94</ele>
        <time>2017-04-09T13:09:29Z</time>
      </trkpt>
      <trkpt lat="44.048090390861034" lon="9.840412409976125">
        <ele>5.42</ele>
        <time>2017-04-09T13:09:42Z</time>
      </trkpt>
      <trkpt lat="44.0481923148036" lon="9.840243430808187">
        <ele>5.42</ele>
        <time>2017-04-09T13:09:56Z</time>
      </trkpt>
      <trkpt lat="44.048277474939823" lon="9.840121641755104">
        <ele>5.42</ele>
        <time>2017-04-09T13:10:07Z</time>
      </trkpt>
      <trkpt lat="44.048361629247665" lon="9.8400251660496">
        <ele>6.87</ele>
        <time>2017-04-09T13:10:19Z</time>
      </trkpt>
      <trkpt lat="44.048452069982886" lon="9.839890636503696">
        <ele>7.35</ele>
        <time>2017-04-09T13:10:34Z</time>
      </trkpt>
      <trkpt lat="44.048510659486055" lon="9.839866245165467">
        <ele>7.83</ele>
        <time>2017-04-09T13:10:46Z</time>
      </trkpt>
      <trkpt lat="44.048552652820945" lon="9.839869178831577">
        <ele>6.39</ele>
        <time>2017-04-09T13:10:57Z</time>
      </trkpt>
      <trkpt lat="44.048600932583213" lon="9.839849900454283">
        <ele>6.39</ele>
        <time>2017-04-09T13:11:08Z</time>
      </trkpt>
      <trkpt lat="44.048637058585882" lon="9.839847218245268">
        <ele>5.42</ele>
        <time>2017-04-09T13:11:14Z</time>
      </trkpt>
      <trkpt lat="44.048675950616598" lon="9.839842189103365">
        <ele>5.42</ele>
        <time>2017-04-09T13:11:23Z</time>
      </trkpt>
      <trkpt lat="44.048706209287047" lon="9.839818300679326">
        <ele>4.94</ele>
        <time>2017-04-09T13:11:33Z</time>
      </trkpt>
      <trkpt lat="44.0487190335989" lon="9.839788628742099">
        <ele>4.94</ele>
        <time>2017-04-09T13:11:43Z</time>
      </trkpt>
      <trkpt lat="44.048726828768849" lon="9.839783431962133">
        <ele>4.94</ele>
        <time>2017-04-09T13:11:54Z</time>
      </trkpt>
      <trkpt lat="44.048761948943138" lon="9.839628953486681">
        <ele>4.94</ele>
        <time>2017-04-09T13:12:07Z</time>
      </trkpt>
      <trkpt lat="44.048759769648314" lon="9.83955510891974">
        <ele>5.42</ele>
        <time>2017-04-09T13:12:18Z</time>
      </trkpt>
      <trkpt lat="44.048780053853989" lon="9.839443545788527">
        <ele>4.94</ele>
        <time>2017-04-09T13:12:30Z</time>
      </trkpt>
      <trkpt lat="44.048782233148813" lon="9.839423932135105">
        <ele>5.42</ele>
        <time>2017-04-09T13:12:41Z</time>
      </trkpt>
      <trkpt lat="44.048788519576192" lon="9.839405911043286">
        <ele>5.91</ele>
        <time>2017-04-09T13:12:56Z</time>
      </trkpt>
      <trkpt lat="44.048770079389215" lon="9.839431643486023">
        <ele>5.42</ele>
        <time>2017-04-09T13:13:07Z</time>
      </trkpt>
      <trkpt lat="44.04879916459322" lon="9.839411107823253">
        <ele>4.46</ele>
        <time>2017-04-09T13:13:16Z</time>
      </trkpt>
      <trkpt lat="44.048792459070683" lon="9.839390739798546">
        <ele>4.46</ele>
        <time>2017-04-09T13:13:39Z</time>
      </trkpt>
      <trkpt lat="44.048800589516759" lon="9.839383950456977">
        <ele>4.46</ele>
        <time>2017-04-09T13:13:59Z</time>
      </trkpt>
      <trkpt lat="44.048789106309414" lon="9.839392080903053">
        <ele>4.46</ele>
        <time>2017-04-09T13:14:19Z</time>
      </trkpt>
      <trkpt lat="44.04878206551075" lon="9.839390320703387">
        <ele>4.46</ele>
        <time>2017-04-09T13:14:40Z</time>
      </trkpt>
      <trkpt lat="44.048800421878695" lon="9.839379424229264">
        <ele>4.46</ele>
        <time>2017-04-09T13:14:58Z</time>
      </trkpt>
      <trkpt lat="44.04880603775382" lon="9.839382609352469">
        <ele>4.46</ele>
        <time>2017-04-09T13:15:18Z</time>
      </trkpt>
      <trkpt lat="44.048808133229613" lon="9.83938017860055">
        <ele>4.46</ele>
        <time>2017-04-09T13:15:39Z</time>
      </trkpt>
      <trkpt lat="44.04880553483963" lon="9.839388225227594">
        <ele>3.98</ele>
        <time>2017-04-09T13:16:01Z</time>
      </trkpt>
      <trkpt lat="44.048815174028277" lon="9.839379927143455">
        <ele>4.46</ele>
        <time>2017-04-09T13:16:20Z</time>
      </trkpt>
      <trkpt lat="44.048837805166841" lon="9.839370455592871">
        <ele>4.46</ele>
        <time>2017-04-09T13:16:42Z</time>
      </trkpt>
      <trkpt lat="44.048832524567842" lon="9.839372131973505">
        <ele>3.98</ele>
        <time>2017-04-09T13:17:11Z</time>
      </trkpt>
      <trkpt lat="44.048824897035956" lon="9.839380513876677">
        <ele>4.46</ele>
        <time>2017-04-09T13:17:38Z</time>
      </trkpt>
      <trkpt lat="44.048813581466675" lon="9.839385459199548">
        <ele>4.46</ele>
        <time>2017-04-09T13:18:04Z</time>
      </trkpt>
      <trkpt lat="44.048799499869347" lon="9.839388728141785">
        <ele>3.98</ele>
        <time>2017-04-09T13:18:27Z</time>
      </trkpt>
      <trkpt lat="44.04878843575716" lon="9.839396690949798">
        <ele>4.46</ele>
        <time>2017-04-09T13:18:50Z</time>
      </trkpt>
      <trkpt lat="44.048803020268679" lon="9.839389566332102">
        <ele>4.46</ele>
        <time>2017-04-09T13:19:11Z</time>
      </trkpt>
      <trkpt lat="44.04881190508604" lon="9.839389733970165">
        <ele>4.46</ele>
        <time>2017-04-09T13:19:29Z</time>
      </trkpt>
      <trkpt lat="44.048803858458996" lon="9.839404821395874">
        <ele>4.46</ele>
        <time>2017-04-09T13:19:46Z</time>
      </trkpt>
      <trkpt lat="44.048799751326442" lon="9.839411275461316">
        <ele>4.94</ele>
        <time>2017-04-09T13:19:57Z</time>
      </trkpt>
      <trkpt lat="44.048818778246641" lon="9.839446563273668">
        <ele>4.94</ele>
        <time>2017-04-09T13:20:05Z</time>
      </trkpt>
      <trkpt lat="44.048797572031617" lon="9.839484198018909">
        <ele>4.94</ele>
        <time>2017-04-09T13:20:17Z</time>
      </trkpt>
      <trkpt lat="44.048801427707076" lon="9.839526945725083">
        <ele>4.46</ele>
        <time>2017-04-09T13:20:30Z</time>
      </trkpt>
      <trkpt lat="44.048802433535457" lon="9.839505907148123">
        <ele>4.94</ele>
        <time>2017-04-09T13:20:49Z</time>
      </trkpt>
      <trkpt lat="44.048804193735123" lon="9.839492747560144">
        <ele>4.94</ele>
        <time>2017-04-09T13:21:01Z</time>
      </trkpt>
      <trkpt lat="44.048798074945807" lon="9.839519988745451">
        <ele>4.94</ele>
        <time>2017-04-09T13:21:11Z</time>
      </trkpt>
      <trkpt lat="44.048782652243972" lon="9.839467518031597">
        <ele>4.46</ele>
        <time>2017-04-09T13:21:18Z</time>
      </trkpt>
      <trkpt lat="44.04884560033679" lon="9.839369198307395">
        <ele>4.94</ele>
        <time>2017-04-09T13:21:29Z</time>
      </trkpt>
      <trkpt lat="44.048845851793885" lon="9.8393982835114">
        <ele>4.46</ele>
        <time>2017-04-09T13:21:44Z</time>
      </trkpt>
      <trkpt lat="44.048829171806574" lon="9.839422088116407">
        <ele>4.94</ele>
        <time>2017-04-09T13:21:57Z</time>
      </trkpt>
      <trkpt lat="44.048809222877026" lon="9.839509008452296">
        <ele>4.46</ele>
        <time>2017-04-09T13:22:10Z</time>
      </trkpt>
      <trkpt lat="44.048816347494721" lon="9.83950431458652">
        <ele>4.94</ele>
        <time>2017-04-09T13:22:26Z</time>
      </trkpt>
      <trkpt lat="44.048788016662002" lon="9.839538428932428">
        <ele>4.46</ele>
        <time>2017-04-09T13:22:35Z</time>
      </trkpt>
      <trkpt lat="44.048783155158162" lon="9.839551085606217">
        <ele>4.94</ele>
        <time>2017-04-09T13:22:36Z</time>
      </trkpt>
      <trkpt lat="44.04876253567636" lon="9.839677652344108">
        <ele>4.46</ele>
        <time>2017-04-09T13:22:47Z</time>
      </trkpt>
      <trkpt lat="44.048756333068013" lon="9.839692153036594">
        <ele>4.46</ele>
        <time>2017-04-09T13:22:57Z</time>
      </trkpt>
      <trkpt lat="44.048766978085041" lon="9.839717382565141">
        <ele>4.46</ele>
        <time>2017-04-09T13:23:08Z</time>
      </trkpt>
      <trkpt lat="44.048778964206576" lon="9.839730374515057">
        <ele>4.94</ele>
        <time>2017-04-09T13:23:20Z</time>
      </trkpt>
      <trkpt lat="44.048774186521769" lon="9.839728195220232">
        <ele>4.94</ele>
        <time>2017-04-09T13:23:31Z</time>
      </trkpt>
      <trkpt lat="44.048790279775858" lon="9.839740013703704">
        <ele>4.94</ele>
        <time>2017-04-09T13:23:44Z</time>
      </trkpt>
      <trkpt lat="44.048821376636624" lon="9.839770859107375">
        <ele>4.94</ele>
        <time>2017-04-09T13:23:55Z</time>
      </trkpt>
      <trkpt lat="44.048822466284037" lon="9.839775888249278">
        <ele>4.94</ele>
        <time>2017-04-09T13:24:09Z</time>
      </trkpt>
      <trkpt lat="44.048827663064003" lon="9.839759459719062">
        <ele>5.42</ele>
        <time>2017-04-09T13:24:21Z</time>
      </trkpt>
      <trkpt lat="44.048832608386874" lon="9.839751748368144">
        <ele>4.46</ele>
        <time>2017-04-09T13:24:22Z</time>
      </trkpt>
      <trkpt lat="44.048864459618926" lon="9.839738169685006">
        <ele>4.94</ele>
        <time>2017-04-09T13:24:33Z</time>
      </trkpt>
      <trkpt lat="44.048871668055654" lon="9.839735738933086">
        <ele>4.94</ele>
        <time>2017-04-09T13:24:49Z</time>
      </trkpt>
      <trkpt lat="44.048834703862667" lon="9.839732386171818">
        <ele>4.94</ele>
        <time>2017-04-09T13:25:00Z</time>
      </trkpt>
      <trkpt lat="44.048818945884705" lon="9.839725010097027">
        <ele>5.42</ele>
        <time>2017-04-09T13:25:02Z</time>
      </trkpt>
      <trkpt lat="44.048708891496062" lon="9.839848391711712">
        <ele>4.46</ele>
        <time>2017-04-09T13:25:13Z</time>
      </trkpt>
      <trkpt lat="44.048653906211257" lon="9.839959535747767">
        <ele>4.94</ele>
        <time>2017-04-09T13:25:24Z</time>
      </trkpt>
      <trkpt lat="44.048654576763511" lon="9.840001696720719">
        <ele>4.46</ele>
        <time>2017-04-09T13:25:35Z</time>
      </trkpt>
      <trkpt lat="44.04864527285099" lon="9.840029859915376">
        <ele>4.94</ele>
        <time>2017-04-09T13:25:38Z</time>
      </trkpt>
      <trkpt lat="44.048610404133797" lon="9.840242173522711">
        <ele>4.46</ele>
        <time>2017-04-09T13:25:51Z</time>
      </trkpt>
      <trkpt lat="44.048613840714097" lon="9.840493630617857">
        <ele>4.46</ele>
        <time>2017-04-09T13:26:06Z</time>
      </trkpt>
      <trkpt lat="44.048604033887386" lon="9.840580550953746">
        <ele>4.46</ele>
        <time>2017-04-09T13:26:17Z</time>
      </trkpt>
      <trkpt lat="44.048605374991894" lon="9.840613827109337">
        <ele>4.46</ele>
        <time>2017-04-09T13:26:31Z</time>
      </trkpt>
      <trkpt lat="44.048613170161843" lon="9.840608378872275">
        <ele>4.46</ele>
        <time>2017-04-09T13:26:49Z</time>
      </trkpt>
      <trkpt lat="44.048609146848321" lon="9.840608546510339">
        <ele>5.42</ele>
        <time>2017-04-09T13:27:02Z</time>
      </trkpt>
      <trkpt lat="44.048612667247653" lon="9.840613743290305">
        <ele>4.94</ele>
        <time>2017-04-09T13:27:16Z</time>
      </trkpt>
      <trkpt lat="44.048616690561175" lon="9.840624388307333">
        <ele>4.94</ele>
        <time>2017-04-09T13:27:32Z</time>
      </trkpt>
      <trkpt lat="44.048609314486384" lon="9.84063939191401">
        <ele>4.46</ele>
        <time>2017-04-09T13:27:50Z</time>
      </trkpt>
      <trkpt lat="44.048614930361509" lon="9.840644421055913">
        <ele>4.46</ele>
        <time>2017-04-09T13:28:06Z</time>
      </trkpt>
      <trkpt lat="44.048593556508422" lon="9.84061106108129">
        <ele>4.46</ele>
        <time>2017-04-09T13:28:26Z</time>
      </trkpt>
      <trkpt lat="44.04859934002161" lon="9.840599577873945">
        <ele>4.46</ele>
        <time>2017-04-09T13:28:45Z</time>
      </trkpt>
      <trkpt lat="44.048601854592562" lon="9.840605780482292">
        <ele>4.46</ele>
        <time>2017-04-09T13:29:03Z</time>
      </trkpt>
      <trkpt lat="44.048587689176202" lon="9.840612318366766">
        <ele>4.94</ele>
        <time>2017-04-09T13:29:20Z</time>
      </trkpt>
      <trkpt lat="44.048592802137136" lon="9.840612066909671">
        <ele>4.46</ele>
        <time>2017-04-09T13:29:43Z</time>
      </trkpt>
      <trkpt lat="44.0485964063555" lon="9.840600248426199">
        <ele>4.46</ele>
        <time>2017-04-09T13:30:00Z</time>
      </trkpt>
      <trkpt lat="44.048595316708088" lon="9.840607875958085">
        <ele>4.46</ele>
        <time>2017-04-09T13:30:16Z</time>
      </trkpt>
      <trkpt lat="44.048591209575534" lon="9.840606199577451">
        <ele>4.46</ele>
        <time>2017-04-09T13:30:40Z</time>
      </trkpt>
      <trkpt lat="44.04859540052712" lon="9.840605696663261">
        <ele>4.46</ele>
        <time>2017-04-09T13:30:57Z</time>
      </trkpt>
      <trkpt lat="44.04858810827136" lon="9.840608881786466">
        <ele>4.94</ele>
        <time>2017-04-09T13:31:17Z</time>
      </trkpt>
      <trkpt lat="44.048589365556836" lon="9.840605361387134">
        <ele>4.46</ele>
        <time>2017-04-09T13:31:42Z</time>
      </trkpt>
      <trkpt lat="44.048599004745483" lon="9.840607792139053">
        <ele>4.94</ele>
        <time>2017-04-09T13:32:05Z</time>
      </trkpt>
      <trkpt lat="44.048594646155834" lon="9.840617012232542">
        <ele>4.94</ele>
        <time>2017-04-09T13:32:25Z</time>
      </trkpt>
    </trkseg>
  </trk>

</gpx>